<?xml version="1.0" encoding="UTF-8" standalone="no" ?>
<gpx xmlns="http://www.topografix.com/GPX/1/1" xmlns:xsi="http://www.w3.org/2001/XMLSchema-instance" xsi:schemaLocation="http://www.topografix.com/GPX/1/1 http://www.topografix.com/GPX/1/1/gpx.xsd" version="1.1" creator="VisuGPX - https://www.visugpx.com">
  <metadata>
    <name>Cumul Sorties vélo avec Robin</name>
  </metadata>
  <trk>
    <name><![CDATA[Ramonville-Saint-Agne Cyclisme sur route]]></name>
    <extensions>
      <line xmlns="http://www.topografix.com/GPX/gpx_style/0/2">
        <color>ff0000</color>
        <width>4</width>
      </line>
    </extensions>
    <trkseg>
      <trkpt lat="43.54314" lon="1.4582">
        <ele>221.80000305176</ele>
        <time>2020-06-08T13:20:37.000Z</time>
      </trkpt>
      <trkpt lat="43.54314" lon="1.4582">
        <ele>221.80000305176</ele>
        <time>2020-06-08T13:20:37.000Z</time>
      </trkpt>
      <trkpt lat="43.54315" lon="1.45821">
        <ele>221.80000305176</ele>
        <time>2020-06-08T13:20:39.000Z</time>
      </trkpt>
      <trkpt lat="43.54328" lon="1.45822">
        <ele>221.39999389648</ele>
        <time>2020-06-08T13:20:48.000Z</time>
      </trkpt>
      <trkpt lat="43.54329" lon="1.45821">
        <ele>221.60000610352</ele>
        <time>2020-06-08T13:20:50.000Z</time>
      </trkpt>
      <trkpt lat="43.54332" lon="1.45819">
        <ele>221.60000610352</ele>
        <time>2020-06-08T13:20:52.000Z</time>
      </trkpt>
      <trkpt lat="43.54333" lon="1.45819">
        <ele>221.60000610352</ele>
        <time>2020-06-08T13:20:54.000Z</time>
      </trkpt>
      <trkpt lat="43.54336" lon="1.45821">
        <ele>222.39999389648</ele>
        <time>2020-06-08T13:21:11.000Z</time>
      </trkpt>
      <trkpt lat="43.54336" lon="1.45823">
        <ele>222.39999389648</ele>
        <time>2020-06-08T13:21:12.000Z</time>
      </trkpt>
      <trkpt lat="43.54337" lon="1.45829">
        <ele>222.39999389648</ele>
        <time>2020-06-08T13:21:14.000Z</time>
      </trkpt>
      <trkpt lat="43.54338" lon="1.45836">
        <ele>222.39999389648</ele>
        <time>2020-06-08T13:21:16.000Z</time>
      </trkpt>
      <trkpt lat="43.5434" lon="1.45844">
        <ele>222.19999694824</ele>
        <time>2020-06-08T13:21:18.000Z</time>
      </trkpt>
      <trkpt lat="43.54344" lon="1.45853">
        <ele>222.19999694824</ele>
        <time>2020-06-08T13:21:20.000Z</time>
      </trkpt>
      <trkpt lat="43.54348" lon="1.45863">
        <ele>222.19999694824</ele>
        <time>2020-06-08T13:21:22.000Z</time>
      </trkpt>
      <trkpt lat="43.54351" lon="1.45874">
        <ele>221.80000305176</ele>
        <time>2020-06-08T13:21:24.000Z</time>
      </trkpt>
      <trkpt lat="43.54351" lon="1.45887">
        <ele>221.39999389648</ele>
        <time>2020-06-08T13:21:26.000Z</time>
      </trkpt>
      <trkpt lat="43.54351" lon="1.45901">
        <ele>221</ele>
        <time>2020-06-08T13:21:28.000Z</time>
      </trkpt>
      <trkpt lat="43.54355" lon="1.45915">
        <ele>220.39999389648</ele>
        <time>2020-06-08T13:21:30.000Z</time>
      </trkpt>
      <trkpt lat="43.54358" lon="1.45922">
        <ele>220.19999694824</ele>
        <time>2020-06-08T13:21:31.000Z</time>
      </trkpt>
      <trkpt lat="43.54361" lon="1.4593">
        <ele>219.80000305176</ele>
        <time>2020-06-08T13:21:32.000Z</time>
      </trkpt>
      <trkpt lat="43.54366" lon="1.45943">
        <ele>219.39999389648</ele>
        <time>2020-06-08T13:21:34.000Z</time>
      </trkpt>
      <trkpt lat="43.54371" lon="1.45956">
        <ele>218.80000305176</ele>
        <time>2020-06-08T13:21:36.000Z</time>
      </trkpt>
      <trkpt lat="43.54377" lon="1.45966">
        <ele>218.39999389648</ele>
        <time>2020-06-08T13:21:38.000Z</time>
      </trkpt>
      <trkpt lat="43.54384" lon="1.45973">
        <ele>218.39999389648</ele>
        <time>2020-06-08T13:21:40.000Z</time>
      </trkpt>
      <trkpt lat="43.54391" lon="1.45977">
        <ele>218.39999389648</ele>
        <time>2020-06-08T13:21:42.000Z</time>
      </trkpt>
      <trkpt lat="43.54398" lon="1.45974">
        <ele>218.39999389648</ele>
        <time>2020-06-08T13:21:44.000Z</time>
      </trkpt>
      <trkpt lat="43.54402" lon="1.45967">
        <ele>218.39999389648</ele>
        <time>2020-06-08T13:21:46.000Z</time>
      </trkpt>
      <trkpt lat="43.54405" lon="1.4596">
        <ele>218.39999389648</ele>
        <time>2020-06-08T13:21:48.000Z</time>
      </trkpt>
      <trkpt lat="43.54407" lon="1.45953">
        <ele>218.80000305176</ele>
        <time>2020-06-08T13:21:50.000Z</time>
      </trkpt>
      <trkpt lat="43.54408" lon="1.45949">
        <ele>219</ele>
        <time>2020-06-08T13:21:51.000Z</time>
      </trkpt>
      <trkpt lat="43.54409" lon="1.45944">
        <ele>219.19999694824</ele>
        <time>2020-06-08T13:21:52.000Z</time>
      </trkpt>
      <trkpt lat="43.54411" lon="1.45936">
        <ele>219.80000305176</ele>
        <time>2020-06-08T13:21:54.000Z</time>
      </trkpt>
      <trkpt lat="43.54412" lon="1.45931">
        <ele>220.19999694824</ele>
        <time>2020-06-08T13:21:55.000Z</time>
      </trkpt>
      <trkpt lat="43.54412" lon="1.45927">
        <ele>220.39999389648</ele>
        <time>2020-06-08T13:21:56.000Z</time>
      </trkpt>
      <trkpt lat="43.54412" lon="1.45917">
        <ele>221</ele>
        <time>2020-06-08T13:21:58.000Z</time>
      </trkpt>
      <trkpt lat="43.54412" lon="1.45912">
        <ele>221.19999694824</ele>
        <time>2020-06-08T13:21:59.000Z</time>
      </trkpt>
      <trkpt lat="43.54412" lon="1.45907">
        <ele>221.60000610352</ele>
        <time>2020-06-08T13:22:00.000Z</time>
      </trkpt>
      <trkpt lat="43.54411" lon="1.45897">
        <ele>222</ele>
        <time>2020-06-08T13:22:02.000Z</time>
      </trkpt>
      <trkpt lat="43.54411" lon="1.45892">
        <ele>222.39999389648</ele>
        <time>2020-06-08T13:22:03.000Z</time>
      </trkpt>
      <trkpt lat="43.5441" lon="1.45887">
        <ele>222.60000610352</ele>
        <time>2020-06-08T13:22:04.000Z</time>
      </trkpt>
      <trkpt lat="43.54409" lon="1.45877">
        <ele>223</ele>
        <time>2020-06-08T13:22:06.000Z</time>
      </trkpt>
      <trkpt lat="43.54408" lon="1.45866">
        <ele>223.19999694824</ele>
        <time>2020-06-08T13:22:08.000Z</time>
      </trkpt>
      <trkpt lat="43.54406" lon="1.45856">
        <ele>223.19999694824</ele>
        <time>2020-06-08T13:22:10.000Z</time>
      </trkpt>
      <trkpt lat="43.54405" lon="1.45846">
        <ele>223.19999694824</ele>
        <time>2020-06-08T13:22:12.000Z</time>
      </trkpt>
      <trkpt lat="43.54404" lon="1.45835">
        <ele>223.19999694824</ele>
        <time>2020-06-08T13:22:14.000Z</time>
      </trkpt>
      <trkpt lat="43.54402" lon="1.45824">
        <ele>223</ele>
        <time>2020-06-08T13:22:16.000Z</time>
      </trkpt>
      <trkpt lat="43.54401" lon="1.45813">
        <ele>223</ele>
        <time>2020-06-08T13:22:18.000Z</time>
      </trkpt>
      <trkpt lat="43.544" lon="1.45802">
        <ele>223</ele>
        <time>2020-06-08T13:22:20.000Z</time>
      </trkpt>
      <trkpt lat="43.54399" lon="1.45791">
        <ele>223</ele>
        <time>2020-06-08T13:22:22.000Z</time>
      </trkpt>
      <trkpt lat="43.54399" lon="1.4578">
        <ele>223.19999694824</ele>
        <time>2020-06-08T13:22:24.000Z</time>
      </trkpt>
      <trkpt lat="43.54398" lon="1.45775">
        <ele>223.19999694824</ele>
        <time>2020-06-08T13:22:25.000Z</time>
      </trkpt>
      <trkpt lat="43.54398" lon="1.4577">
        <ele>223.19999694824</ele>
        <time>2020-06-08T13:22:26.000Z</time>
      </trkpt>
      <trkpt lat="43.54398" lon="1.45765">
        <ele>223.19999694824</ele>
        <time>2020-06-08T13:22:27.000Z</time>
      </trkpt>
      <trkpt lat="43.54399" lon="1.4576">
        <ele>223.19999694824</ele>
        <time>2020-06-08T13:22:28.000Z</time>
      </trkpt>
      <trkpt lat="43.544" lon="1.4575">
        <ele>223.39999389648</ele>
        <time>2020-06-08T13:22:30.000Z</time>
      </trkpt>
      <trkpt lat="43.54402" lon="1.4574">
        <ele>223.60000610352</ele>
        <time>2020-06-08T13:22:32.000Z</time>
      </trkpt>
      <trkpt lat="43.54404" lon="1.45731">
        <ele>223.80000305176</ele>
        <time>2020-06-08T13:22:34.000Z</time>
      </trkpt>
      <trkpt lat="43.54407" lon="1.45722">
        <ele>224.39999389648</ele>
        <time>2020-06-08T13:22:36.000Z</time>
      </trkpt>
      <trkpt lat="43.5441" lon="1.45714">
        <ele>225</ele>
        <time>2020-06-08T13:22:38.000Z</time>
      </trkpt>
      <trkpt lat="43.54413" lon="1.45707">
        <ele>225.39999389648</ele>
        <time>2020-06-08T13:22:40.000Z</time>
      </trkpt>
      <trkpt lat="43.54415" lon="1.45704">
        <ele>225.60000610352</ele>
        <time>2020-06-08T13:22:41.000Z</time>
      </trkpt>
      <trkpt lat="43.54417" lon="1.457">
        <ele>225.60000610352</ele>
        <time>2020-06-08T13:22:42.000Z</time>
      </trkpt>
      <trkpt lat="43.54421" lon="1.45694">
        <ele>226</ele>
        <time>2020-06-08T13:22:44.000Z</time>
      </trkpt>
      <trkpt lat="43.54425" lon="1.45689">
        <ele>226.60000610352</ele>
        <time>2020-06-08T13:22:46.000Z</time>
      </trkpt>
      <trkpt lat="43.5443" lon="1.45684">
        <ele>227</ele>
        <time>2020-06-08T13:22:48.000Z</time>
      </trkpt>
      <trkpt lat="43.54434" lon="1.45678">
        <ele>227.60000610352</ele>
        <time>2020-06-08T13:22:50.000Z</time>
      </trkpt>
      <trkpt lat="43.54436" lon="1.45676">
        <ele>227.80000305176</ele>
        <time>2020-06-08T13:22:51.000Z</time>
      </trkpt>
      <trkpt lat="43.54438" lon="1.45673">
        <ele>228</ele>
        <time>2020-06-08T13:22:52.000Z</time>
      </trkpt>
      <trkpt lat="43.54441" lon="1.45668">
        <ele>228.19999694824</ele>
        <time>2020-06-08T13:22:54.000Z</time>
      </trkpt>
      <trkpt lat="43.5444" lon="1.45661">
        <ele>228.19999694824</ele>
        <time>2020-06-08T13:22:56.000Z</time>
      </trkpt>
      <trkpt lat="43.54439" lon="1.45654">
        <ele>228.39999389648</ele>
        <time>2020-06-08T13:22:58.000Z</time>
      </trkpt>
      <trkpt lat="43.54439" lon="1.45644">
        <ele>228.80000305176</ele>
        <time>2020-06-08T13:23:00.000Z</time>
      </trkpt>
      <trkpt lat="43.5444" lon="1.45634">
        <ele>228.80000305176</ele>
        <time>2020-06-08T13:23:02.000Z</time>
      </trkpt>
      <trkpt lat="43.54441" lon="1.45622">
        <ele>229</ele>
        <time>2020-06-08T13:23:04.000Z</time>
      </trkpt>
      <trkpt lat="43.54444" lon="1.45613">
        <ele>229</ele>
        <time>2020-06-08T13:23:06.000Z</time>
      </trkpt>
      <trkpt lat="43.54447" lon="1.45603">
        <ele>229.19999694824</ele>
        <time>2020-06-08T13:23:08.000Z</time>
      </trkpt>
      <trkpt lat="43.54447" lon="1.45593">
        <ele>229.19999694824</ele>
        <time>2020-06-08T13:23:10.000Z</time>
      </trkpt>
      <trkpt lat="43.54445" lon="1.45584">
        <ele>229.39999389648</ele>
        <time>2020-06-08T13:23:12.000Z</time>
      </trkpt>
      <trkpt lat="43.54444" lon="1.45574">
        <ele>229.19999694824</ele>
        <time>2020-06-08T13:23:14.000Z</time>
      </trkpt>
      <trkpt lat="43.54445" lon="1.45563">
        <ele>229.19999694824</ele>
        <time>2020-06-08T13:23:16.000Z</time>
      </trkpt>
      <trkpt lat="43.54448" lon="1.45553">
        <ele>229.19999694824</ele>
        <time>2020-06-08T13:23:18.000Z</time>
      </trkpt>
      <trkpt lat="43.54451" lon="1.45549">
        <ele>229.19999694824</ele>
        <time>2020-06-08T13:23:19.000Z</time>
      </trkpt>
      <trkpt lat="43.54453" lon="1.45545">
        <ele>229.19999694824</ele>
        <time>2020-06-08T13:23:20.000Z</time>
      </trkpt>
      <trkpt lat="43.54458" lon="1.45537">
        <ele>229.19999694824</ele>
        <time>2020-06-08T13:23:22.000Z</time>
      </trkpt>
      <trkpt lat="43.54463" lon="1.4553">
        <ele>229.39999389648</ele>
        <time>2020-06-08T13:23:24.000Z</time>
      </trkpt>
      <trkpt lat="43.54468" lon="1.45523">
        <ele>229.39999389648</ele>
        <time>2020-06-08T13:23:26.000Z</time>
      </trkpt>
      <trkpt lat="43.54474" lon="1.45516">
        <ele>229.19999694824</ele>
        <time>2020-06-08T13:23:28.000Z</time>
      </trkpt>
      <trkpt lat="43.54479" lon="1.45509">
        <ele>229.19999694824</ele>
        <time>2020-06-08T13:23:30.000Z</time>
      </trkpt>
      <trkpt lat="43.54484" lon="1.45502">
        <ele>229.39999389648</ele>
        <time>2020-06-08T13:23:32.000Z</time>
      </trkpt>
      <trkpt lat="43.54489" lon="1.45494">
        <ele>229.39999389648</ele>
        <time>2020-06-08T13:23:34.000Z</time>
      </trkpt>
      <trkpt lat="43.54494" lon="1.45486">
        <ele>229.60000610352</ele>
        <time>2020-06-08T13:23:36.000Z</time>
      </trkpt>
      <trkpt lat="43.54499" lon="1.45477">
        <ele>229.39999389648</ele>
        <time>2020-06-08T13:23:38.000Z</time>
      </trkpt>
      <trkpt lat="43.54505" lon="1.45469">
        <ele>229.39999389648</ele>
        <time>2020-06-08T13:23:40.000Z</time>
      </trkpt>
      <trkpt lat="43.54511" lon="1.4546">
        <ele>229.39999389648</ele>
        <time>2020-06-08T13:23:42.000Z</time>
      </trkpt>
      <trkpt lat="43.54517" lon="1.45451">
        <ele>229.60000610352</ele>
        <time>2020-06-08T13:23:44.000Z</time>
      </trkpt>
      <trkpt lat="43.54523" lon="1.45442">
        <ele>229.39999389648</ele>
        <time>2020-06-08T13:23:46.000Z</time>
      </trkpt>
      <trkpt lat="43.54529" lon="1.45433">
        <ele>229.39999389648</ele>
        <time>2020-06-08T13:23:48.000Z</time>
      </trkpt>
      <trkpt lat="43.54532" lon="1.45428">
        <ele>229.39999389648</ele>
        <time>2020-06-08T13:23:49.000Z</time>
      </trkpt>
      <trkpt lat="43.54534" lon="1.45423">
        <ele>229.19999694824</ele>
        <time>2020-06-08T13:23:50.000Z</time>
      </trkpt>
      <trkpt lat="43.54538" lon="1.45412">
        <ele>229</ele>
        <time>2020-06-08T13:23:52.000Z</time>
      </trkpt>
      <trkpt lat="43.54541" lon="1.454">
        <ele>228.60000610352</ele>
        <time>2020-06-08T13:23:54.000Z</time>
      </trkpt>
      <trkpt lat="43.54544" lon="1.45387">
        <ele>228.39999389648</ele>
        <time>2020-06-08T13:23:56.000Z</time>
      </trkpt>
      <trkpt lat="43.54547" lon="1.45373">
        <ele>228.60000610352</ele>
        <time>2020-06-08T13:23:58.000Z</time>
      </trkpt>
      <trkpt lat="43.54554" lon="1.45362">
        <ele>228.39999389648</ele>
        <time>2020-06-08T13:24:00.000Z</time>
      </trkpt>
      <trkpt lat="43.54562" lon="1.45351">
        <ele>228.19999694824</ele>
        <time>2020-06-08T13:24:02.000Z</time>
      </trkpt>
      <trkpt lat="43.54571" lon="1.45341">
        <ele>228.19999694824</ele>
        <time>2020-06-08T13:24:04.000Z</time>
      </trkpt>
      <trkpt lat="43.5458" lon="1.45331">
        <ele>228</ele>
        <time>2020-06-08T13:24:06.000Z</time>
      </trkpt>
      <trkpt lat="43.5459" lon="1.45322">
        <ele>228</ele>
        <time>2020-06-08T13:24:08.000Z</time>
      </trkpt>
      <trkpt lat="43.54601" lon="1.45316">
        <ele>227.80000305176</ele>
        <time>2020-06-08T13:24:10.000Z</time>
      </trkpt>
      <trkpt lat="43.54607" lon="1.45314">
        <ele>227.80000305176</ele>
        <time>2020-06-08T13:24:11.000Z</time>
      </trkpt>
      <trkpt lat="43.54613" lon="1.45313">
        <ele>227.39999389648</ele>
        <time>2020-06-08T13:24:12.000Z</time>
      </trkpt>
      <trkpt lat="43.54625" lon="1.45315">
        <ele>227.19999694824</ele>
        <time>2020-06-08T13:24:14.000Z</time>
      </trkpt>
      <trkpt lat="43.54637" lon="1.45313">
        <ele>227</ele>
        <time>2020-06-08T13:24:16.000Z</time>
      </trkpt>
      <trkpt lat="43.54644" lon="1.45301">
        <ele>226.80000305176</ele>
        <time>2020-06-08T13:24:18.000Z</time>
      </trkpt>
      <trkpt lat="43.54643" lon="1.45293">
        <ele>226.80000305176</ele>
        <time>2020-06-08T13:24:19.000Z</time>
      </trkpt>
      <trkpt lat="43.5464" lon="1.45286">
        <ele>226.60000610352</ele>
        <time>2020-06-08T13:24:20.000Z</time>
      </trkpt>
      <trkpt lat="43.54629" lon="1.45276">
        <ele>226.19999694824</ele>
        <time>2020-06-08T13:24:22.000Z</time>
      </trkpt>
      <trkpt lat="43.54619" lon="1.45267">
        <ele>225.80000305176</ele>
        <time>2020-06-08T13:24:24.000Z</time>
      </trkpt>
      <trkpt lat="43.54615" lon="1.45262">
        <ele>225.39999389648</ele>
        <time>2020-06-08T13:24:25.000Z</time>
      </trkpt>
      <trkpt lat="43.54611" lon="1.45257">
        <ele>225.19999694824</ele>
        <time>2020-06-08T13:24:26.000Z</time>
      </trkpt>
      <trkpt lat="43.54605" lon="1.45248">
        <ele>225.19999694824</ele>
        <time>2020-06-08T13:24:28.000Z</time>
      </trkpt>
      <trkpt lat="43.54599" lon="1.45242">
        <ele>225</ele>
        <time>2020-06-08T13:24:30.000Z</time>
      </trkpt>
      <trkpt lat="43.54593" lon="1.45235">
        <ele>225</ele>
        <time>2020-06-08T13:24:32.000Z</time>
      </trkpt>
      <trkpt lat="43.54587" lon="1.45229">
        <ele>225</ele>
        <time>2020-06-08T13:24:34.000Z</time>
      </trkpt>
      <trkpt lat="43.54581" lon="1.45224">
        <ele>225.19999694824</ele>
        <time>2020-06-08T13:24:36.000Z</time>
      </trkpt>
      <trkpt lat="43.54575" lon="1.45219">
        <ele>225.60000610352</ele>
        <time>2020-06-08T13:24:38.000Z</time>
      </trkpt>
      <trkpt lat="43.54568" lon="1.45213">
        <ele>226.19999694824</ele>
        <time>2020-06-08T13:24:40.000Z</time>
      </trkpt>
      <trkpt lat="43.54565" lon="1.4521">
        <ele>226.39999389648</ele>
        <time>2020-06-08T13:24:41.000Z</time>
      </trkpt>
      <trkpt lat="43.54562" lon="1.45207">
        <ele>226.80000305176</ele>
        <time>2020-06-08T13:24:42.000Z</time>
      </trkpt>
      <trkpt lat="43.54555" lon="1.45202">
        <ele>227.39999389648</ele>
        <time>2020-06-08T13:24:44.000Z</time>
      </trkpt>
      <trkpt lat="43.54552" lon="1.45199">
        <ele>227.60000610352</ele>
        <time>2020-06-08T13:24:45.000Z</time>
      </trkpt>
      <trkpt lat="43.54549" lon="1.45196">
        <ele>227.80000305176</ele>
        <time>2020-06-08T13:24:46.000Z</time>
      </trkpt>
      <trkpt lat="43.54541" lon="1.4519">
        <ele>228</ele>
        <time>2020-06-08T13:24:48.000Z</time>
      </trkpt>
      <trkpt lat="43.54534" lon="1.45185">
        <ele>228.19999694824</ele>
        <time>2020-06-08T13:24:50.000Z</time>
      </trkpt>
      <trkpt lat="43.54526" lon="1.4518">
        <ele>228.39999389648</ele>
        <time>2020-06-08T13:24:52.000Z</time>
      </trkpt>
      <trkpt lat="43.54518" lon="1.45174">
        <ele>228.80000305176</ele>
        <time>2020-06-08T13:24:54.000Z</time>
      </trkpt>
      <trkpt lat="43.54511" lon="1.45169">
        <ele>228.80000305176</ele>
        <time>2020-06-08T13:24:56.000Z</time>
      </trkpt>
      <trkpt lat="43.54502" lon="1.45165">
        <ele>228.80000305176</ele>
        <time>2020-06-08T13:24:58.000Z</time>
      </trkpt>
      <trkpt lat="43.54493" lon="1.4516">
        <ele>229</ele>
        <time>2020-06-08T13:25:00.000Z</time>
      </trkpt>
      <trkpt lat="43.54484" lon="1.45155">
        <ele>229</ele>
        <time>2020-06-08T13:25:02.000Z</time>
      </trkpt>
      <trkpt lat="43.54473" lon="1.4515">
        <ele>229</ele>
        <time>2020-06-08T13:25:04.000Z</time>
      </trkpt>
      <trkpt lat="43.54462" lon="1.45145">
        <ele>228.80000305176</ele>
        <time>2020-06-08T13:25:06.000Z</time>
      </trkpt>
      <trkpt lat="43.54449" lon="1.45139">
        <ele>228.80000305176</ele>
        <time>2020-06-08T13:25:08.000Z</time>
      </trkpt>
      <trkpt lat="43.54436" lon="1.45132">
        <ele>228.60000610352</ele>
        <time>2020-06-08T13:25:10.000Z</time>
      </trkpt>
      <trkpt lat="43.54422" lon="1.45126">
        <ele>228.19999694824</ele>
        <time>2020-06-08T13:25:12.000Z</time>
      </trkpt>
      <trkpt lat="43.54408" lon="1.4512">
        <ele>227.19999694824</ele>
        <time>2020-06-08T13:25:14.000Z</time>
      </trkpt>
      <trkpt lat="43.54394" lon="1.45113">
        <ele>226.19999694824</ele>
        <time>2020-06-08T13:25:16.000Z</time>
      </trkpt>
      <trkpt lat="43.54381" lon="1.45106">
        <ele>225.39999389648</ele>
        <time>2020-06-08T13:25:18.000Z</time>
      </trkpt>
      <trkpt lat="43.54374" lon="1.45104">
        <ele>225.19999694824</ele>
        <time>2020-06-08T13:25:19.000Z</time>
      </trkpt>
      <trkpt lat="43.54369" lon="1.45101">
        <ele>225</ele>
        <time>2020-06-08T13:25:20.000Z</time>
      </trkpt>
      <trkpt lat="43.54358" lon="1.45097">
        <ele>225</ele>
        <time>2020-06-08T13:25:22.000Z</time>
      </trkpt>
      <trkpt lat="43.54353" lon="1.45094">
        <ele>224.80000305176</ele>
        <time>2020-06-08T13:25:23.000Z</time>
      </trkpt>
      <trkpt lat="43.54349" lon="1.45091">
        <ele>224.80000305176</ele>
        <time>2020-06-08T13:25:24.000Z</time>
      </trkpt>
      <trkpt lat="43.54341" lon="1.45085">
        <ele>224.80000305176</ele>
        <time>2020-06-08T13:25:26.000Z</time>
      </trkpt>
      <trkpt lat="43.54334" lon="1.45079">
        <ele>225</ele>
        <time>2020-06-08T13:25:28.000Z</time>
      </trkpt>
      <trkpt lat="43.54328" lon="1.45074">
        <ele>225.39999389648</ele>
        <time>2020-06-08T13:25:30.000Z</time>
      </trkpt>
      <trkpt lat="43.54322" lon="1.45069">
        <ele>225.80000305176</ele>
        <time>2020-06-08T13:25:32.000Z</time>
      </trkpt>
      <trkpt lat="43.54316" lon="1.45064">
        <ele>226</ele>
        <time>2020-06-08T13:25:34.000Z</time>
      </trkpt>
      <trkpt lat="43.54314" lon="1.45062">
        <ele>226.19999694824</ele>
        <time>2020-06-08T13:25:35.000Z</time>
      </trkpt>
      <trkpt lat="43.54311" lon="1.45059">
        <ele>226.19999694824</ele>
        <time>2020-06-08T13:25:36.000Z</time>
      </trkpt>
      <trkpt lat="43.54307" lon="1.45053">
        <ele>226.60000610352</ele>
        <time>2020-06-08T13:25:38.000Z</time>
      </trkpt>
      <trkpt lat="43.54303" lon="1.45049">
        <ele>226.80000305176</ele>
        <time>2020-06-08T13:25:40.000Z</time>
      </trkpt>
      <trkpt lat="43.54301" lon="1.45046">
        <ele>227.19999694824</ele>
        <time>2020-06-08T13:25:41.000Z</time>
      </trkpt>
      <trkpt lat="43.543" lon="1.45044">
        <ele>227.60000610352</ele>
        <time>2020-06-08T13:25:42.000Z</time>
      </trkpt>
      <trkpt lat="43.54297" lon="1.4504">
        <ele>228.19999694824</ele>
        <time>2020-06-08T13:25:44.000Z</time>
      </trkpt>
      <trkpt lat="43.54294" lon="1.45037">
        <ele>228.60000610352</ele>
        <time>2020-06-08T13:25:46.000Z</time>
      </trkpt>
      <trkpt lat="43.54291" lon="1.45032">
        <ele>229</ele>
        <time>2020-06-08T13:25:48.000Z</time>
      </trkpt>
      <trkpt lat="43.5429" lon="1.45029">
        <ele>229.39999389648</ele>
        <time>2020-06-08T13:25:49.000Z</time>
      </trkpt>
      <trkpt lat="43.54289" lon="1.45026">
        <ele>229.80000305176</ele>
        <time>2020-06-08T13:25:50.000Z</time>
      </trkpt>
      <trkpt lat="43.54285" lon="1.45022">
        <ele>230.39999389648</ele>
        <time>2020-06-08T13:25:52.000Z</time>
      </trkpt>
      <trkpt lat="43.54282" lon="1.45018">
        <ele>231.19999694824</ele>
        <time>2020-06-08T13:25:54.000Z</time>
      </trkpt>
      <trkpt lat="43.54279" lon="1.45014">
        <ele>231.60000610352</ele>
        <time>2020-06-08T13:25:56.000Z</time>
      </trkpt>
      <trkpt lat="43.54275" lon="1.45009">
        <ele>232</ele>
        <time>2020-06-08T13:25:58.000Z</time>
      </trkpt>
      <trkpt lat="43.5427" lon="1.45005">
        <ele>232.60000610352</ele>
        <time>2020-06-08T13:26:00.000Z</time>
      </trkpt>
      <trkpt lat="43.54267" lon="1.45003">
        <ele>232.80000305176</ele>
        <time>2020-06-08T13:26:01.000Z</time>
      </trkpt>
      <trkpt lat="43.54264" lon="1.45002">
        <ele>232.80000305176</ele>
        <time>2020-06-08T13:26:02.000Z</time>
      </trkpt>
      <trkpt lat="43.54256" lon="1.44999">
        <ele>233.19999694824</ele>
        <time>2020-06-08T13:26:04.000Z</time>
      </trkpt>
      <trkpt lat="43.5425" lon="1.44998">
        <ele>233.39999389648</ele>
        <time>2020-06-08T13:26:06.000Z</time>
      </trkpt>
      <trkpt lat="43.54244" lon="1.44996">
        <ele>233.80000305176</ele>
        <time>2020-06-08T13:26:08.000Z</time>
      </trkpt>
      <trkpt lat="43.54239" lon="1.44994">
        <ele>234.19999694824</ele>
        <time>2020-06-08T13:26:10.000Z</time>
      </trkpt>
      <trkpt lat="43.54233" lon="1.44994">
        <ele>234.80000305176</ele>
        <time>2020-06-08T13:26:12.000Z</time>
      </trkpt>
      <trkpt lat="43.54231" lon="1.44994">
        <ele>235.19999694824</ele>
        <time>2020-06-08T13:26:13.000Z</time>
      </trkpt>
      <trkpt lat="43.54229" lon="1.44994">
        <ele>235.39999389648</ele>
        <time>2020-06-08T13:26:14.000Z</time>
      </trkpt>
      <trkpt lat="43.54225" lon="1.44995">
        <ele>235.60000610352</ele>
        <time>2020-06-08T13:26:16.000Z</time>
      </trkpt>
      <trkpt lat="43.54221" lon="1.44996">
        <ele>235.80000305176</ele>
        <time>2020-06-08T13:26:18.000Z</time>
      </trkpt>
      <trkpt lat="43.54216" lon="1.44997">
        <ele>236</ele>
        <time>2020-06-08T13:26:20.000Z</time>
      </trkpt>
      <trkpt lat="43.54211" lon="1.44999">
        <ele>236.19999694824</ele>
        <time>2020-06-08T13:26:22.000Z</time>
      </trkpt>
      <trkpt lat="43.54204" lon="1.45001">
        <ele>236.19999694824</ele>
        <time>2020-06-08T13:26:24.000Z</time>
      </trkpt>
      <trkpt lat="43.54195" lon="1.45004">
        <ele>236.19999694824</ele>
        <time>2020-06-08T13:26:26.000Z</time>
      </trkpt>
      <trkpt lat="43.54182" lon="1.45009">
        <ele>236.19999694824</ele>
        <time>2020-06-08T13:26:28.000Z</time>
      </trkpt>
      <trkpt lat="43.54166" lon="1.45015">
        <ele>235.80000305176</ele>
        <time>2020-06-08T13:26:30.000Z</time>
      </trkpt>
      <trkpt lat="43.54149" lon="1.45022">
        <ele>235</ele>
        <time>2020-06-08T13:26:32.000Z</time>
      </trkpt>
      <trkpt lat="43.54132" lon="1.45029">
        <ele>233.19999694824</ele>
        <time>2020-06-08T13:26:34.000Z</time>
      </trkpt>
      <trkpt lat="43.54123" lon="1.45032">
        <ele>232</ele>
        <time>2020-06-08T13:26:35.000Z</time>
      </trkpt>
      <trkpt lat="43.54115" lon="1.45035">
        <ele>230.60000610352</ele>
        <time>2020-06-08T13:26:36.000Z</time>
      </trkpt>
      <trkpt lat="43.54107" lon="1.45038">
        <ele>229.39999389648</ele>
        <time>2020-06-08T13:26:37.000Z</time>
      </trkpt>
      <trkpt lat="43.54099" lon="1.45041">
        <ele>228.19999694824</ele>
        <time>2020-06-08T13:26:38.000Z</time>
      </trkpt>
      <trkpt lat="43.54092" lon="1.45044">
        <ele>226.80000305176</ele>
        <time>2020-06-08T13:26:39.000Z</time>
      </trkpt>
      <trkpt lat="43.54084" lon="1.45047">
        <ele>225.60000610352</ele>
        <time>2020-06-08T13:26:40.000Z</time>
      </trkpt>
      <trkpt lat="43.54069" lon="1.45053">
        <ele>224.19999694824</ele>
        <time>2020-06-08T13:26:42.000Z</time>
      </trkpt>
      <trkpt lat="43.54054" lon="1.45059">
        <ele>223.60000610352</ele>
        <time>2020-06-08T13:26:44.000Z</time>
      </trkpt>
      <trkpt lat="43.54038" lon="1.45068">
        <ele>223</ele>
        <time>2020-06-08T13:26:46.000Z</time>
      </trkpt>
      <trkpt lat="43.54023" lon="1.4508">
        <ele>222.19999694824</ele>
        <time>2020-06-08T13:26:48.000Z</time>
      </trkpt>
      <trkpt lat="43.54015" lon="1.45086">
        <ele>221.39999389648</ele>
        <time>2020-06-08T13:26:49.000Z</time>
      </trkpt>
      <trkpt lat="43.54008" lon="1.45094">
        <ele>220.60000610352</ele>
        <time>2020-06-08T13:26:50.000Z</time>
      </trkpt>
      <trkpt lat="43.54002" lon="1.45102">
        <ele>220.19999694824</ele>
        <time>2020-06-08T13:26:51.000Z</time>
      </trkpt>
      <trkpt lat="43.53996" lon="1.45111">
        <ele>219.60000610352</ele>
        <time>2020-06-08T13:26:52.000Z</time>
      </trkpt>
      <trkpt lat="43.53989" lon="1.4512">
        <ele>218.80000305176</ele>
        <time>2020-06-08T13:26:53.000Z</time>
      </trkpt>
      <trkpt lat="43.53983" lon="1.45129">
        <ele>217.60000610352</ele>
        <time>2020-06-08T13:26:54.000Z</time>
      </trkpt>
      <trkpt lat="43.53972" lon="1.45149">
        <ele>215.60000610352</ele>
        <time>2020-06-08T13:26:56.000Z</time>
      </trkpt>
      <trkpt lat="43.53961" lon="1.4517">
        <ele>214.60000610352</ele>
        <time>2020-06-08T13:26:58.000Z</time>
      </trkpt>
      <trkpt lat="43.53949" lon="1.4519">
        <ele>213.80000305176</ele>
        <time>2020-06-08T13:27:00.000Z</time>
      </trkpt>
      <trkpt lat="43.53944" lon="1.45199">
        <ele>213.19999694824</ele>
        <time>2020-06-08T13:27:01.000Z</time>
      </trkpt>
      <trkpt lat="43.53939" lon="1.45209">
        <ele>212.60000610352</ele>
        <time>2020-06-08T13:27:02.000Z</time>
      </trkpt>
      <trkpt lat="43.53931" lon="1.45231">
        <ele>211.60000610352</ele>
        <time>2020-06-08T13:27:04.000Z</time>
      </trkpt>
      <trkpt lat="43.53927" lon="1.45243">
        <ele>211</ele>
        <time>2020-06-08T13:27:05.000Z</time>
      </trkpt>
      <trkpt lat="43.53924" lon="1.45254">
        <ele>209.60000610352</ele>
        <time>2020-06-08T13:27:06.000Z</time>
      </trkpt>
      <trkpt lat="43.5392" lon="1.45264">
        <ele>208.39999389648</ele>
        <time>2020-06-08T13:27:07.000Z</time>
      </trkpt>
      <trkpt lat="43.53917" lon="1.45273">
        <ele>207.39999389648</ele>
        <time>2020-06-08T13:27:08.000Z</time>
      </trkpt>
      <trkpt lat="43.53913" lon="1.45282">
        <ele>207.19999694824</ele>
        <time>2020-06-08T13:27:09.000Z</time>
      </trkpt>
      <trkpt lat="43.53908" lon="1.4529">
        <ele>206.60000610352</ele>
        <time>2020-06-08T13:27:10.000Z</time>
      </trkpt>
      <trkpt lat="43.53903" lon="1.45297">
        <ele>205.60000610352</ele>
        <time>2020-06-08T13:27:11.000Z</time>
      </trkpt>
      <trkpt lat="43.53896" lon="1.45305">
        <ele>205</ele>
        <time>2020-06-08T13:27:12.000Z</time>
      </trkpt>
      <trkpt lat="43.5389" lon="1.45312">
        <ele>204.60000610352</ele>
        <time>2020-06-08T13:27:13.000Z</time>
      </trkpt>
      <trkpt lat="43.53884" lon="1.45319">
        <ele>204.39999389648</ele>
        <time>2020-06-08T13:27:14.000Z</time>
      </trkpt>
      <trkpt lat="43.53873" lon="1.45333">
        <ele>204</ele>
        <time>2020-06-08T13:27:16.000Z</time>
      </trkpt>
      <trkpt lat="43.53863" lon="1.45347">
        <ele>203.80000305176</ele>
        <time>2020-06-08T13:27:18.000Z</time>
      </trkpt>
      <trkpt lat="43.53852" lon="1.45359">
        <ele>203.80000305176</ele>
        <time>2020-06-08T13:27:20.000Z</time>
      </trkpt>
      <trkpt lat="43.53842" lon="1.45368">
        <ele>203.80000305176</ele>
        <time>2020-06-08T13:27:22.000Z</time>
      </trkpt>
      <trkpt lat="43.53833" lon="1.45376">
        <ele>204</ele>
        <time>2020-06-08T13:27:24.000Z</time>
      </trkpt>
      <trkpt lat="43.53825" lon="1.45383">
        <ele>204</ele>
        <time>2020-06-08T13:27:26.000Z</time>
      </trkpt>
      <trkpt lat="43.53817" lon="1.4539">
        <ele>204</ele>
        <time>2020-06-08T13:27:28.000Z</time>
      </trkpt>
      <trkpt lat="43.53809" lon="1.45396">
        <ele>204.19999694824</ele>
        <time>2020-06-08T13:27:30.000Z</time>
      </trkpt>
      <trkpt lat="43.53801" lon="1.45402">
        <ele>204.60000610352</ele>
        <time>2020-06-08T13:27:32.000Z</time>
      </trkpt>
      <trkpt lat="43.53792" lon="1.45409">
        <ele>204.80000305176</ele>
        <time>2020-06-08T13:27:34.000Z</time>
      </trkpt>
      <trkpt lat="43.53783" lon="1.45417">
        <ele>204.80000305176</ele>
        <time>2020-06-08T13:27:36.000Z</time>
      </trkpt>
      <trkpt lat="43.53772" lon="1.45424">
        <ele>204.80000305176</ele>
        <time>2020-06-08T13:27:38.000Z</time>
      </trkpt>
      <trkpt lat="43.53759" lon="1.45434">
        <ele>204.80000305176</ele>
        <time>2020-06-08T13:27:40.000Z</time>
      </trkpt>
      <trkpt lat="43.53743" lon="1.45444">
        <ele>204.39999389648</ele>
        <time>2020-06-08T13:27:42.000Z</time>
      </trkpt>
      <trkpt lat="43.53724" lon="1.45455">
        <ele>203.80000305176</ele>
        <time>2020-06-08T13:27:44.000Z</time>
      </trkpt>
      <trkpt lat="43.53715" lon="1.45459">
        <ele>203.39999389648</ele>
        <time>2020-06-08T13:27:45.000Z</time>
      </trkpt>
      <trkpt lat="43.53705" lon="1.45463">
        <ele>203</ele>
        <time>2020-06-08T13:27:46.000Z</time>
      </trkpt>
      <trkpt lat="43.53696" lon="1.45466">
        <ele>202</ele>
        <time>2020-06-08T13:27:47.000Z</time>
      </trkpt>
      <trkpt lat="43.53686" lon="1.45469">
        <ele>201</ele>
        <time>2020-06-08T13:27:48.000Z</time>
      </trkpt>
      <trkpt lat="43.53675" lon="1.45472">
        <ele>200</ele>
        <time>2020-06-08T13:27:49.000Z</time>
      </trkpt>
      <trkpt lat="43.53665" lon="1.45475">
        <ele>199</ele>
        <time>2020-06-08T13:27:50.000Z</time>
      </trkpt>
      <trkpt lat="43.53655" lon="1.45478">
        <ele>197.39999389648</ele>
        <time>2020-06-08T13:27:51.000Z</time>
      </trkpt>
      <trkpt lat="43.53645" lon="1.45482">
        <ele>195.80000305176</ele>
        <time>2020-06-08T13:27:52.000Z</time>
      </trkpt>
      <trkpt lat="43.53636" lon="1.45486">
        <ele>194.80000305176</ele>
        <time>2020-06-08T13:27:53.000Z</time>
      </trkpt>
      <trkpt lat="43.53627" lon="1.45491">
        <ele>193.80000305176</ele>
        <time>2020-06-08T13:27:54.000Z</time>
      </trkpt>
      <trkpt lat="43.53618" lon="1.45496">
        <ele>192.80000305176</ele>
        <time>2020-06-08T13:27:55.000Z</time>
      </trkpt>
      <trkpt lat="43.53609" lon="1.45502">
        <ele>191.19999694824</ele>
        <time>2020-06-08T13:27:56.000Z</time>
      </trkpt>
      <trkpt lat="43.536" lon="1.45508">
        <ele>189.39999389648</ele>
        <time>2020-06-08T13:27:57.000Z</time>
      </trkpt>
      <trkpt lat="43.53591" lon="1.45516">
        <ele>187.80000305176</ele>
        <time>2020-06-08T13:27:58.000Z</time>
      </trkpt>
      <trkpt lat="43.53583" lon="1.45524">
        <ele>185.80000305176</ele>
        <time>2020-06-08T13:27:59.000Z</time>
      </trkpt>
      <trkpt lat="43.53574" lon="1.4553">
        <ele>184.19999694824</ele>
        <time>2020-06-08T13:28:00.000Z</time>
      </trkpt>
      <trkpt lat="43.53566" lon="1.45536">
        <ele>183</ele>
        <time>2020-06-08T13:28:01.000Z</time>
      </trkpt>
      <trkpt lat="43.53558" lon="1.45542">
        <ele>182.60000610352</ele>
        <time>2020-06-08T13:28:02.000Z</time>
      </trkpt>
      <trkpt lat="43.5355" lon="1.45547">
        <ele>182</ele>
        <time>2020-06-08T13:28:03.000Z</time>
      </trkpt>
      <trkpt lat="43.53541" lon="1.45553">
        <ele>181.60000610352</ele>
        <time>2020-06-08T13:28:04.000Z</time>
      </trkpt>
      <trkpt lat="43.53525" lon="1.45567">
        <ele>180.80000305176</ele>
        <time>2020-06-08T13:28:06.000Z</time>
      </trkpt>
      <trkpt lat="43.5351" lon="1.45584">
        <ele>180.39999389648</ele>
        <time>2020-06-08T13:28:08.000Z</time>
      </trkpt>
      <trkpt lat="43.53502" lon="1.45593">
        <ele>179.19999694824</ele>
        <time>2020-06-08T13:28:09.000Z</time>
      </trkpt>
      <trkpt lat="43.53495" lon="1.45601">
        <ele>178.39999389648</ele>
        <time>2020-06-08T13:28:10.000Z</time>
      </trkpt>
      <trkpt lat="43.53488" lon="1.4561">
        <ele>177.39999389648</ele>
        <time>2020-06-08T13:28:11.000Z</time>
      </trkpt>
      <trkpt lat="43.53482" lon="1.45618">
        <ele>175.80000305176</ele>
        <time>2020-06-08T13:28:12.000Z</time>
      </trkpt>
      <trkpt lat="43.53475" lon="1.45627">
        <ele>175</ele>
        <time>2020-06-08T13:28:13.000Z</time>
      </trkpt>
      <trkpt lat="43.5347" lon="1.45635">
        <ele>174</ele>
        <time>2020-06-08T13:28:14.000Z</time>
      </trkpt>
      <trkpt lat="43.53464" lon="1.45643">
        <ele>173.19999694824</ele>
        <time>2020-06-08T13:28:15.000Z</time>
      </trkpt>
      <trkpt lat="43.53459" lon="1.45652">
        <ele>172.60000610352</ele>
        <time>2020-06-08T13:28:16.000Z</time>
      </trkpt>
      <trkpt lat="43.53448" lon="1.45666">
        <ele>172</ele>
        <time>2020-06-08T13:28:18.000Z</time>
      </trkpt>
      <trkpt lat="43.53439" lon="1.45682">
        <ele>172</ele>
        <time>2020-06-08T13:28:20.000Z</time>
      </trkpt>
      <trkpt lat="43.5343" lon="1.45697">
        <ele>171.80000305176</ele>
        <time>2020-06-08T13:28:22.000Z</time>
      </trkpt>
      <trkpt lat="43.53422" lon="1.45711">
        <ele>171.80000305176</ele>
        <time>2020-06-08T13:28:24.000Z</time>
      </trkpt>
      <trkpt lat="43.53415" lon="1.45724">
        <ele>171.60000610352</ele>
        <time>2020-06-08T13:28:26.000Z</time>
      </trkpt>
      <trkpt lat="43.53408" lon="1.45735">
        <ele>172</ele>
        <time>2020-06-08T13:28:28.000Z</time>
      </trkpt>
      <trkpt lat="43.53401" lon="1.45746">
        <ele>172.60000610352</ele>
        <time>2020-06-08T13:28:30.000Z</time>
      </trkpt>
      <trkpt lat="43.53394" lon="1.45756">
        <ele>173.19999694824</ele>
        <time>2020-06-08T13:28:32.000Z</time>
      </trkpt>
      <trkpt lat="43.53388" lon="1.45766">
        <ele>173.60000610352</ele>
        <time>2020-06-08T13:28:34.000Z</time>
      </trkpt>
      <trkpt lat="43.53383" lon="1.45776">
        <ele>174.19999694824</ele>
        <time>2020-06-08T13:28:36.000Z</time>
      </trkpt>
      <trkpt lat="43.53381" lon="1.45781">
        <ele>174.39999389648</ele>
        <time>2020-06-08T13:28:37.000Z</time>
      </trkpt>
      <trkpt lat="43.53378" lon="1.45787">
        <ele>174.39999389648</ele>
        <time>2020-06-08T13:28:38.000Z</time>
      </trkpt>
      <trkpt lat="43.53373" lon="1.45798">
        <ele>174.60000610352</ele>
        <time>2020-06-08T13:28:40.000Z</time>
      </trkpt>
      <trkpt lat="43.53368" lon="1.45809">
        <ele>174.60000610352</ele>
        <time>2020-06-08T13:28:42.000Z</time>
      </trkpt>
      <trkpt lat="43.53363" lon="1.45821">
        <ele>174.80000305176</ele>
        <time>2020-06-08T13:28:44.000Z</time>
      </trkpt>
      <trkpt lat="43.53358" lon="1.45833">
        <ele>175.19999694824</ele>
        <time>2020-06-08T13:28:46.000Z</time>
      </trkpt>
      <trkpt lat="43.53356" lon="1.4584">
        <ele>175.39999389648</ele>
        <time>2020-06-08T13:28:47.000Z</time>
      </trkpt>
      <trkpt lat="43.53354" lon="1.45846">
        <ele>175.39999389648</ele>
        <time>2020-06-08T13:28:48.000Z</time>
      </trkpt>
      <trkpt lat="43.5335" lon="1.45858">
        <ele>175.80000305176</ele>
        <time>2020-06-08T13:28:50.000Z</time>
      </trkpt>
      <trkpt lat="43.53346" lon="1.45871">
        <ele>176</ele>
        <time>2020-06-08T13:28:52.000Z</time>
      </trkpt>
      <trkpt lat="43.53342" lon="1.45883">
        <ele>176.19999694824</ele>
        <time>2020-06-08T13:28:54.000Z</time>
      </trkpt>
      <trkpt lat="43.5334" lon="1.45889">
        <ele>176.19999694824</ele>
        <time>2020-06-08T13:28:55.000Z</time>
      </trkpt>
      <trkpt lat="43.53338" lon="1.45894">
        <ele>176.39999389648</ele>
        <time>2020-06-08T13:28:56.000Z</time>
      </trkpt>
      <trkpt lat="43.53334" lon="1.45905">
        <ele>176.39999389648</ele>
        <time>2020-06-08T13:28:58.000Z</time>
      </trkpt>
      <trkpt lat="43.5333" lon="1.45915">
        <ele>176.39999389648</ele>
        <time>2020-06-08T13:29:00.000Z</time>
      </trkpt>
      <trkpt lat="43.53325" lon="1.45927">
        <ele>176.60000610352</ele>
        <time>2020-06-08T13:29:02.000Z</time>
      </trkpt>
      <trkpt lat="43.53322" lon="1.45938">
        <ele>176.80000305176</ele>
        <time>2020-06-08T13:29:04.000Z</time>
      </trkpt>
      <trkpt lat="43.53318" lon="1.45949">
        <ele>177</ele>
        <time>2020-06-08T13:29:06.000Z</time>
      </trkpt>
      <trkpt lat="43.53315" lon="1.45959">
        <ele>177</ele>
        <time>2020-06-08T13:29:08.000Z</time>
      </trkpt>
      <trkpt lat="43.53311" lon="1.4597">
        <ele>177.19999694824</ele>
        <time>2020-06-08T13:29:10.000Z</time>
      </trkpt>
      <trkpt lat="43.53308" lon="1.45981">
        <ele>177.60000610352</ele>
        <time>2020-06-08T13:29:12.000Z</time>
      </trkpt>
      <trkpt lat="43.53304" lon="1.45992">
        <ele>177.60000610352</ele>
        <time>2020-06-08T13:29:14.000Z</time>
      </trkpt>
      <trkpt lat="43.533" lon="1.46003">
        <ele>177.60000610352</ele>
        <time>2020-06-08T13:29:16.000Z</time>
      </trkpt>
      <trkpt lat="43.53297" lon="1.46014">
        <ele>177.60000610352</ele>
        <time>2020-06-08T13:29:18.000Z</time>
      </trkpt>
      <trkpt lat="43.53293" lon="1.46024">
        <ele>177.80000305176</ele>
        <time>2020-06-08T13:29:20.000Z</time>
      </trkpt>
      <trkpt lat="43.5329" lon="1.46035">
        <ele>177.80000305176</ele>
        <time>2020-06-08T13:29:22.000Z</time>
      </trkpt>
      <trkpt lat="43.53288" lon="1.46045">
        <ele>177.80000305176</ele>
        <time>2020-06-08T13:29:24.000Z</time>
      </trkpt>
      <trkpt lat="43.53285" lon="1.46056">
        <ele>178</ele>
        <time>2020-06-08T13:29:26.000Z</time>
      </trkpt>
      <trkpt lat="43.53283" lon="1.46067">
        <ele>178.19999694824</ele>
        <time>2020-06-08T13:29:28.000Z</time>
      </trkpt>
      <trkpt lat="43.53281" lon="1.46077">
        <ele>178.39999389648</ele>
        <time>2020-06-08T13:29:30.000Z</time>
      </trkpt>
      <trkpt lat="43.53279" lon="1.46087">
        <ele>178.60000610352</ele>
        <time>2020-06-08T13:29:32.000Z</time>
      </trkpt>
      <trkpt lat="43.53278" lon="1.46098">
        <ele>178.60000610352</ele>
        <time>2020-06-08T13:29:34.000Z</time>
      </trkpt>
      <trkpt lat="43.53276" lon="1.46108">
        <ele>178.60000610352</ele>
        <time>2020-06-08T13:29:36.000Z</time>
      </trkpt>
      <trkpt lat="43.53276" lon="1.46118">
        <ele>178.80000305176</ele>
        <time>2020-06-08T13:29:38.000Z</time>
      </trkpt>
      <trkpt lat="43.53275" lon="1.46123">
        <ele>178.80000305176</ele>
        <time>2020-06-08T13:29:39.000Z</time>
      </trkpt>
      <trkpt lat="43.53275" lon="1.46128">
        <ele>179</ele>
        <time>2020-06-08T13:29:40.000Z</time>
      </trkpt>
      <trkpt lat="43.53274" lon="1.46138">
        <ele>179.19999694824</ele>
        <time>2020-06-08T13:29:42.000Z</time>
      </trkpt>
      <trkpt lat="43.53273" lon="1.46147">
        <ele>179.19999694824</ele>
        <time>2020-06-08T13:29:44.000Z</time>
      </trkpt>
      <trkpt lat="43.53272" lon="1.46156">
        <ele>179.60000610352</ele>
        <time>2020-06-08T13:29:46.000Z</time>
      </trkpt>
      <trkpt lat="43.53271" lon="1.46165">
        <ele>180</ele>
        <time>2020-06-08T13:29:48.000Z</time>
      </trkpt>
      <trkpt lat="43.5327" lon="1.46174">
        <ele>180.19999694824</ele>
        <time>2020-06-08T13:29:50.000Z</time>
      </trkpt>
      <trkpt lat="43.53269" lon="1.46183">
        <ele>180.39999389648</ele>
        <time>2020-06-08T13:29:52.000Z</time>
      </trkpt>
      <trkpt lat="43.53268" lon="1.46192">
        <ele>180.60000610352</ele>
        <time>2020-06-08T13:29:54.000Z</time>
      </trkpt>
      <trkpt lat="43.53266" lon="1.46201">
        <ele>180.80000305176</ele>
        <time>2020-06-08T13:29:56.000Z</time>
      </trkpt>
      <trkpt lat="43.53266" lon="1.46205">
        <ele>181</ele>
        <time>2020-06-08T13:29:57.000Z</time>
      </trkpt>
      <trkpt lat="43.53265" lon="1.4621">
        <ele>181.19999694824</ele>
        <time>2020-06-08T13:29:58.000Z</time>
      </trkpt>
      <trkpt lat="43.53264" lon="1.46219">
        <ele>181.60000610352</ele>
        <time>2020-06-08T13:30:00.000Z</time>
      </trkpt>
      <trkpt lat="43.53262" lon="1.46228">
        <ele>181.80000305176</ele>
        <time>2020-06-08T13:30:02.000Z</time>
      </trkpt>
      <trkpt lat="43.53261" lon="1.46236">
        <ele>182</ele>
        <time>2020-06-08T13:30:04.000Z</time>
      </trkpt>
      <trkpt lat="43.5326" lon="1.46245">
        <ele>182.19999694824</ele>
        <time>2020-06-08T13:30:06.000Z</time>
      </trkpt>
      <trkpt lat="43.53259" lon="1.46249">
        <ele>182.19999694824</ele>
        <time>2020-06-08T13:30:07.000Z</time>
      </trkpt>
      <trkpt lat="43.53259" lon="1.46253">
        <ele>182.39999389648</ele>
        <time>2020-06-08T13:30:08.000Z</time>
      </trkpt>
      <trkpt lat="43.53258" lon="1.46261">
        <ele>182.39999389648</ele>
        <time>2020-06-08T13:30:10.000Z</time>
      </trkpt>
      <trkpt lat="43.53257" lon="1.46269">
        <ele>182.60000610352</ele>
        <time>2020-06-08T13:30:12.000Z</time>
      </trkpt>
      <trkpt lat="43.53256" lon="1.46278">
        <ele>183.19999694824</ele>
        <time>2020-06-08T13:30:14.000Z</time>
      </trkpt>
      <trkpt lat="43.53256" lon="1.46282">
        <ele>183.39999389648</ele>
        <time>2020-06-08T13:30:15.000Z</time>
      </trkpt>
      <trkpt lat="43.53256" lon="1.46286">
        <ele>183.39999389648</ele>
        <time>2020-06-08T13:30:16.000Z</time>
      </trkpt>
      <trkpt lat="43.53256" lon="1.46294">
        <ele>183.60000610352</ele>
        <time>2020-06-08T13:30:18.000Z</time>
      </trkpt>
      <trkpt lat="43.53256" lon="1.46303">
        <ele>184</ele>
        <time>2020-06-08T13:30:20.000Z</time>
      </trkpt>
      <trkpt lat="43.53255" lon="1.46311">
        <ele>184.19999694824</ele>
        <time>2020-06-08T13:30:22.000Z</time>
      </trkpt>
      <trkpt lat="43.53255" lon="1.46319">
        <ele>184.39999389648</ele>
        <time>2020-06-08T13:30:24.000Z</time>
      </trkpt>
      <trkpt lat="43.53254" lon="1.46326">
        <ele>184.60000610352</ele>
        <time>2020-06-08T13:30:26.000Z</time>
      </trkpt>
      <trkpt lat="43.53253" lon="1.46333">
        <ele>184.60000610352</ele>
        <time>2020-06-08T13:30:28.000Z</time>
      </trkpt>
      <trkpt lat="43.53251" lon="1.46342">
        <ele>184.60000610352</ele>
        <time>2020-06-08T13:30:30.000Z</time>
      </trkpt>
      <trkpt lat="43.53248" lon="1.46349">
        <ele>184.80000305176</ele>
        <time>2020-06-08T13:30:32.000Z</time>
      </trkpt>
      <trkpt lat="43.53246" lon="1.46356">
        <ele>184.80000305176</ele>
        <time>2020-06-08T13:30:34.000Z</time>
      </trkpt>
      <trkpt lat="43.53244" lon="1.46362">
        <ele>185</ele>
        <time>2020-06-08T13:30:36.000Z</time>
      </trkpt>
      <trkpt lat="43.53243" lon="1.46368">
        <ele>185</ele>
        <time>2020-06-08T13:30:38.000Z</time>
      </trkpt>
      <trkpt lat="43.53241" lon="1.46375">
        <ele>185.19999694824</ele>
        <time>2020-06-08T13:30:40.000Z</time>
      </trkpt>
      <trkpt lat="43.53239" lon="1.46383">
        <ele>185.39999389648</ele>
        <time>2020-06-08T13:30:42.000Z</time>
      </trkpt>
      <trkpt lat="43.53236" lon="1.46391">
        <ele>185.60000610352</ele>
        <time>2020-06-08T13:30:44.000Z</time>
      </trkpt>
      <trkpt lat="43.53234" lon="1.46399">
        <ele>185.60000610352</ele>
        <time>2020-06-08T13:30:46.000Z</time>
      </trkpt>
      <trkpt lat="43.53231" lon="1.46406">
        <ele>185.60000610352</ele>
        <time>2020-06-08T13:30:48.000Z</time>
      </trkpt>
      <trkpt lat="43.53229" lon="1.46409">
        <ele>185.80000305176</ele>
        <time>2020-06-08T13:30:49.000Z</time>
      </trkpt>
      <trkpt lat="43.53227" lon="1.4641">
        <ele>185.80000305176</ele>
        <time>2020-06-08T13:30:50.000Z</time>
      </trkpt>
      <trkpt lat="43.53223" lon="1.4641">
        <ele>185.80000305176</ele>
        <time>2020-06-08T13:30:52.000Z</time>
      </trkpt>
      <trkpt lat="43.53221" lon="1.46407">
        <ele>185.80000305176</ele>
        <time>2020-06-08T13:30:54.000Z</time>
      </trkpt>
      <trkpt lat="43.53219" lon="1.46403">
        <ele>186</ele>
        <time>2020-06-08T13:30:56.000Z</time>
      </trkpt>
      <trkpt lat="43.53218" lon="1.464">
        <ele>186</ele>
        <time>2020-06-08T13:30:57.000Z</time>
      </trkpt>
      <trkpt lat="43.53217" lon="1.46396">
        <ele>186</ele>
        <time>2020-06-08T13:30:58.000Z</time>
      </trkpt>
      <trkpt lat="43.53215" lon="1.46388">
        <ele>186</ele>
        <time>2020-06-08T13:31:00.000Z</time>
      </trkpt>
      <trkpt lat="43.53213" lon="1.4638">
        <ele>186.19999694824</ele>
        <time>2020-06-08T13:31:02.000Z</time>
      </trkpt>
      <trkpt lat="43.53211" lon="1.46371">
        <ele>186.19999694824</ele>
        <time>2020-06-08T13:31:04.000Z</time>
      </trkpt>
      <trkpt lat="43.53209" lon="1.46364">
        <ele>186.19999694824</ele>
        <time>2020-06-08T13:31:06.000Z</time>
      </trkpt>
      <trkpt lat="43.53206" lon="1.46357">
        <ele>186.39999389648</ele>
        <time>2020-06-08T13:31:08.000Z</time>
      </trkpt>
      <trkpt lat="43.53204" lon="1.46351">
        <ele>186.60000610352</ele>
        <time>2020-06-08T13:31:10.000Z</time>
      </trkpt>
      <trkpt lat="43.53203" lon="1.46345">
        <ele>187</ele>
        <time>2020-06-08T13:31:12.000Z</time>
      </trkpt>
      <trkpt lat="43.53202" lon="1.4634">
        <ele>187.39999389648</ele>
        <time>2020-06-08T13:31:14.000Z</time>
      </trkpt>
      <trkpt lat="43.53201" lon="1.46336">
        <ele>187.39999389648</ele>
        <time>2020-06-08T13:31:16.000Z</time>
      </trkpt>
      <trkpt lat="43.53199" lon="1.46332">
        <ele>187.60000610352</ele>
        <time>2020-06-08T13:31:18.000Z</time>
      </trkpt>
      <trkpt lat="43.53198" lon="1.46329">
        <ele>187.60000610352</ele>
        <time>2020-06-08T13:31:19.000Z</time>
      </trkpt>
      <trkpt lat="43.53198" lon="1.46327">
        <ele>187.60000610352</ele>
        <time>2020-06-08T13:31:20.000Z</time>
      </trkpt>
      <trkpt lat="43.53197" lon="1.46322">
        <ele>188</ele>
        <time>2020-06-08T13:31:22.000Z</time>
      </trkpt>
      <trkpt lat="43.53195" lon="1.46317">
        <ele>188.60000610352</ele>
        <time>2020-06-08T13:31:24.000Z</time>
      </trkpt>
      <trkpt lat="43.53195" lon="1.46314">
        <ele>188.80000305176</ele>
        <time>2020-06-08T13:31:25.000Z</time>
      </trkpt>
      <trkpt lat="43.53194" lon="1.46312">
        <ele>189.19999694824</ele>
        <time>2020-06-08T13:31:26.000Z</time>
      </trkpt>
      <trkpt lat="43.53193" lon="1.46306">
        <ele>190</ele>
        <time>2020-06-08T13:31:28.000Z</time>
      </trkpt>
      <trkpt lat="43.53191" lon="1.463">
        <ele>190.19999694824</ele>
        <time>2020-06-08T13:31:30.000Z</time>
      </trkpt>
      <trkpt lat="43.53189" lon="1.46294">
        <ele>190.19999694824</ele>
        <time>2020-06-08T13:31:32.000Z</time>
      </trkpt>
      <trkpt lat="43.53188" lon="1.46288">
        <ele>190.60000610352</ele>
        <time>2020-06-08T13:31:34.000Z</time>
      </trkpt>
      <trkpt lat="43.53187" lon="1.46285">
        <ele>191</ele>
        <time>2020-06-08T13:31:35.000Z</time>
      </trkpt>
      <trkpt lat="43.53186" lon="1.46283">
        <ele>191.19999694824</ele>
        <time>2020-06-08T13:31:36.000Z</time>
      </trkpt>
      <trkpt lat="43.53185" lon="1.46277">
        <ele>191.39999389648</ele>
        <time>2020-06-08T13:31:38.000Z</time>
      </trkpt>
      <trkpt lat="43.53184" lon="1.46271">
        <ele>191.60000610352</ele>
        <time>2020-06-08T13:31:40.000Z</time>
      </trkpt>
      <trkpt lat="43.53182" lon="1.46266">
        <ele>191.80000305176</ele>
        <time>2020-06-08T13:31:42.000Z</time>
      </trkpt>
      <trkpt lat="43.53181" lon="1.46263">
        <ele>192</ele>
        <time>2020-06-08T13:31:43.000Z</time>
      </trkpt>
      <trkpt lat="43.53181" lon="1.4626">
        <ele>192.19999694824</ele>
        <time>2020-06-08T13:31:44.000Z</time>
      </trkpt>
      <trkpt lat="43.53179" lon="1.46254">
        <ele>193</ele>
        <time>2020-06-08T13:31:46.000Z</time>
      </trkpt>
      <trkpt lat="43.53178" lon="1.4625">
        <ele>193</ele>
        <time>2020-06-08T13:31:47.000Z</time>
      </trkpt>
      <trkpt lat="43.53177" lon="1.46247">
        <ele>193.19999694824</ele>
        <time>2020-06-08T13:31:48.000Z</time>
      </trkpt>
      <trkpt lat="43.53175" lon="1.46241">
        <ele>193.60000610352</ele>
        <time>2020-06-08T13:31:50.000Z</time>
      </trkpt>
      <trkpt lat="43.53173" lon="1.46235">
        <ele>193.80000305176</ele>
        <time>2020-06-08T13:31:52.000Z</time>
      </trkpt>
      <trkpt lat="43.53172" lon="1.46232">
        <ele>194.19999694824</ele>
        <time>2020-06-08T13:31:53.000Z</time>
      </trkpt>
      <trkpt lat="43.53171" lon="1.46229">
        <ele>194.60000610352</ele>
        <time>2020-06-08T13:31:54.000Z</time>
      </trkpt>
      <trkpt lat="43.5317" lon="1.46224">
        <ele>195.19999694824</ele>
        <time>2020-06-08T13:31:56.000Z</time>
      </trkpt>
      <trkpt lat="43.53167" lon="1.46218">
        <ele>195.60000610352</ele>
        <time>2020-06-08T13:31:58.000Z</time>
      </trkpt>
      <trkpt lat="43.53165" lon="1.46213">
        <ele>196</ele>
        <time>2020-06-08T13:32:00.000Z</time>
      </trkpt>
      <trkpt lat="43.53163" lon="1.46208">
        <ele>196.19999694824</ele>
        <time>2020-06-08T13:32:02.000Z</time>
      </trkpt>
      <trkpt lat="43.5316" lon="1.46203">
        <ele>196.60000610352</ele>
        <time>2020-06-08T13:32:04.000Z</time>
      </trkpt>
      <trkpt lat="43.53158" lon="1.46198">
        <ele>197</ele>
        <time>2020-06-08T13:32:06.000Z</time>
      </trkpt>
      <trkpt lat="43.53156" lon="1.46194">
        <ele>197.19999694824</ele>
        <time>2020-06-08T13:32:08.000Z</time>
      </trkpt>
      <trkpt lat="43.53155" lon="1.46191">
        <ele>197.39999389648</ele>
        <time>2020-06-08T13:32:09.000Z</time>
      </trkpt>
      <trkpt lat="43.53154" lon="1.46189">
        <ele>197.60000610352</ele>
        <time>2020-06-08T13:32:10.000Z</time>
      </trkpt>
      <trkpt lat="43.53151" lon="1.46184">
        <ele>198.19999694824</ele>
        <time>2020-06-08T13:32:12.000Z</time>
      </trkpt>
      <trkpt lat="43.5315" lon="1.46181">
        <ele>198.60000610352</ele>
        <time>2020-06-08T13:32:13.000Z</time>
      </trkpt>
      <trkpt lat="43.53148" lon="1.46179">
        <ele>198.80000305176</ele>
        <time>2020-06-08T13:32:14.000Z</time>
      </trkpt>
      <trkpt lat="43.53144" lon="1.46175">
        <ele>199</ele>
        <time>2020-06-08T13:32:16.000Z</time>
      </trkpt>
      <trkpt lat="43.53141" lon="1.46171">
        <ele>199.19999694824</ele>
        <time>2020-06-08T13:32:18.000Z</time>
      </trkpt>
      <trkpt lat="43.53138" lon="1.46167">
        <ele>199.19999694824</ele>
        <time>2020-06-08T13:32:20.000Z</time>
      </trkpt>
      <trkpt lat="43.53135" lon="1.46164">
        <ele>199.60000610352</ele>
        <time>2020-06-08T13:32:22.000Z</time>
      </trkpt>
      <trkpt lat="43.53133" lon="1.46161">
        <ele>200</ele>
        <time>2020-06-08T13:32:24.000Z</time>
      </trkpt>
      <trkpt lat="43.5313" lon="1.46158">
        <ele>200.39999389648</ele>
        <time>2020-06-08T13:32:26.000Z</time>
      </trkpt>
      <trkpt lat="43.53127" lon="1.46155">
        <ele>200.60000610352</ele>
        <time>2020-06-08T13:32:28.000Z</time>
      </trkpt>
      <trkpt lat="43.53124" lon="1.46152">
        <ele>201</ele>
        <time>2020-06-08T13:32:30.000Z</time>
      </trkpt>
      <trkpt lat="43.53121" lon="1.46149">
        <ele>201.39999389648</ele>
        <time>2020-06-08T13:32:32.000Z</time>
      </trkpt>
      <trkpt lat="43.53118" lon="1.46145">
        <ele>201.80000305176</ele>
        <time>2020-06-08T13:32:34.000Z</time>
      </trkpt>
      <trkpt lat="43.53114" lon="1.46142">
        <ele>202</ele>
        <time>2020-06-08T13:32:36.000Z</time>
      </trkpt>
      <trkpt lat="43.53111" lon="1.46139">
        <ele>202</ele>
        <time>2020-06-08T13:32:38.000Z</time>
      </trkpt>
      <trkpt lat="43.53107" lon="1.46136">
        <ele>202.19999694824</ele>
        <time>2020-06-08T13:32:40.000Z</time>
      </trkpt>
      <trkpt lat="43.53103" lon="1.46133">
        <ele>202.60000610352</ele>
        <time>2020-06-08T13:32:42.000Z</time>
      </trkpt>
      <trkpt lat="43.53101" lon="1.46132">
        <ele>202.80000305176</ele>
        <time>2020-06-08T13:32:43.000Z</time>
      </trkpt>
      <trkpt lat="43.53099" lon="1.4613">
        <ele>203.19999694824</ele>
        <time>2020-06-08T13:32:44.000Z</time>
      </trkpt>
      <trkpt lat="43.53095" lon="1.46128">
        <ele>203.39999389648</ele>
        <time>2020-06-08T13:32:46.000Z</time>
      </trkpt>
      <trkpt lat="43.53092" lon="1.46125">
        <ele>203.60000610352</ele>
        <time>2020-06-08T13:32:48.000Z</time>
      </trkpt>
      <trkpt lat="43.53088" lon="1.46123">
        <ele>203.80000305176</ele>
        <time>2020-06-08T13:32:50.000Z</time>
      </trkpt>
      <trkpt lat="43.53085" lon="1.46121">
        <ele>204</ele>
        <time>2020-06-08T13:32:52.000Z</time>
      </trkpt>
      <trkpt lat="43.53081" lon="1.4612">
        <ele>204.39999389648</ele>
        <time>2020-06-08T13:32:54.000Z</time>
      </trkpt>
      <trkpt lat="43.53077" lon="1.46117">
        <ele>204.80000305176</ele>
        <time>2020-06-08T13:32:56.000Z</time>
      </trkpt>
      <trkpt lat="43.53074" lon="1.46115">
        <ele>205.19999694824</ele>
        <time>2020-06-08T13:32:58.000Z</time>
      </trkpt>
      <trkpt lat="43.5307" lon="1.46113">
        <ele>205.60000610352</ele>
        <time>2020-06-08T13:33:00.000Z</time>
      </trkpt>
      <trkpt lat="43.53065" lon="1.46112">
        <ele>205.80000305176</ele>
        <time>2020-06-08T13:33:02.000Z</time>
      </trkpt>
      <trkpt lat="43.53061" lon="1.46109">
        <ele>206.19999694824</ele>
        <time>2020-06-08T13:33:04.000Z</time>
      </trkpt>
      <trkpt lat="43.53057" lon="1.46108">
        <ele>206.19999694824</ele>
        <time>2020-06-08T13:33:06.000Z</time>
      </trkpt>
      <trkpt lat="43.53053" lon="1.46106">
        <ele>206.80000305176</ele>
        <time>2020-06-08T13:33:08.000Z</time>
      </trkpt>
      <trkpt lat="43.53051" lon="1.46106">
        <ele>207</ele>
        <time>2020-06-08T13:33:09.000Z</time>
      </trkpt>
      <trkpt lat="43.53049" lon="1.46105">
        <ele>207.19999694824</ele>
        <time>2020-06-08T13:33:10.000Z</time>
      </trkpt>
      <trkpt lat="43.53045" lon="1.46105">
        <ele>207.60000610352</ele>
        <time>2020-06-08T13:33:12.000Z</time>
      </trkpt>
      <trkpt lat="43.53041" lon="1.46104">
        <ele>208.19999694824</ele>
        <time>2020-06-08T13:33:14.000Z</time>
      </trkpt>
      <trkpt lat="43.53037" lon="1.46103">
        <ele>208.39999389648</ele>
        <time>2020-06-08T13:33:16.000Z</time>
      </trkpt>
      <trkpt lat="43.53034" lon="1.46103">
        <ele>208.80000305176</ele>
        <time>2020-06-08T13:33:18.000Z</time>
      </trkpt>
      <trkpt lat="43.53032" lon="1.46102">
        <ele>209.19999694824</ele>
        <time>2020-06-08T13:33:19.000Z</time>
      </trkpt>
      <trkpt lat="43.5303" lon="1.46102">
        <ele>209.39999389648</ele>
        <time>2020-06-08T13:33:20.000Z</time>
      </trkpt>
      <trkpt lat="43.53026" lon="1.46102">
        <ele>209.60000610352</ele>
        <time>2020-06-08T13:33:22.000Z</time>
      </trkpt>
      <trkpt lat="43.53022" lon="1.46102">
        <ele>210</ele>
        <time>2020-06-08T13:33:24.000Z</time>
      </trkpt>
      <trkpt lat="43.53019" lon="1.46102">
        <ele>210.19999694824</ele>
        <time>2020-06-08T13:33:26.000Z</time>
      </trkpt>
      <trkpt lat="43.53017" lon="1.46102">
        <ele>210.39999389648</ele>
        <time>2020-06-08T13:33:27.000Z</time>
      </trkpt>
      <trkpt lat="43.53015" lon="1.46102">
        <ele>210.39999389648</ele>
        <time>2020-06-08T13:33:28.000Z</time>
      </trkpt>
      <trkpt lat="43.53011" lon="1.46102">
        <ele>210.60000610352</ele>
        <time>2020-06-08T13:33:30.000Z</time>
      </trkpt>
      <trkpt lat="43.53008" lon="1.46102">
        <ele>211</ele>
        <time>2020-06-08T13:33:32.000Z</time>
      </trkpt>
      <trkpt lat="43.53004" lon="1.46102">
        <ele>211.39999389648</ele>
        <time>2020-06-08T13:33:34.000Z</time>
      </trkpt>
      <trkpt lat="43.53" lon="1.46102">
        <ele>211.80000305176</ele>
        <time>2020-06-08T13:33:36.000Z</time>
      </trkpt>
      <trkpt lat="43.52996" lon="1.46104">
        <ele>212</ele>
        <time>2020-06-08T13:33:38.000Z</time>
      </trkpt>
      <trkpt lat="43.52991" lon="1.46105">
        <ele>212.19999694824</ele>
        <time>2020-06-08T13:33:40.000Z</time>
      </trkpt>
      <trkpt lat="43.52987" lon="1.46107">
        <ele>212.60000610352</ele>
        <time>2020-06-08T13:33:42.000Z</time>
      </trkpt>
      <trkpt lat="43.52982" lon="1.46109">
        <ele>212.60000610352</ele>
        <time>2020-06-08T13:33:44.000Z</time>
      </trkpt>
      <trkpt lat="43.52977" lon="1.46111">
        <ele>213</ele>
        <time>2020-06-08T13:33:46.000Z</time>
      </trkpt>
      <trkpt lat="43.52972" lon="1.46113">
        <ele>213.39999389648</ele>
        <time>2020-06-08T13:33:48.000Z</time>
      </trkpt>
      <trkpt lat="43.5297" lon="1.46114">
        <ele>213.60000610352</ele>
        <time>2020-06-08T13:33:49.000Z</time>
      </trkpt>
      <trkpt lat="43.52967" lon="1.46115">
        <ele>213.80000305176</ele>
        <time>2020-06-08T13:33:50.000Z</time>
      </trkpt>
      <trkpt lat="43.52963" lon="1.46118">
        <ele>214</ele>
        <time>2020-06-08T13:33:52.000Z</time>
      </trkpt>
      <trkpt lat="43.52959" lon="1.46121">
        <ele>214.60000610352</ele>
        <time>2020-06-08T13:33:54.000Z</time>
      </trkpt>
      <trkpt lat="43.52956" lon="1.46122">
        <ele>214.80000305176</ele>
        <time>2020-06-08T13:33:55.000Z</time>
      </trkpt>
      <trkpt lat="43.52954" lon="1.46124">
        <ele>215</ele>
        <time>2020-06-08T13:33:56.000Z</time>
      </trkpt>
      <trkpt lat="43.52951" lon="1.46127">
        <ele>215.39999389648</ele>
        <time>2020-06-08T13:33:58.000Z</time>
      </trkpt>
      <trkpt lat="43.52947" lon="1.46129">
        <ele>215.60000610352</ele>
        <time>2020-06-08T13:34:00.000Z</time>
      </trkpt>
      <trkpt lat="43.52946" lon="1.46131">
        <ele>215.80000305176</ele>
        <time>2020-06-08T13:34:01.000Z</time>
      </trkpt>
      <trkpt lat="43.52944" lon="1.46132">
        <ele>216</ele>
        <time>2020-06-08T13:34:02.000Z</time>
      </trkpt>
      <trkpt lat="43.5294" lon="1.46135">
        <ele>216.60000610352</ele>
        <time>2020-06-08T13:34:04.000Z</time>
      </trkpt>
      <trkpt lat="43.52938" lon="1.46137">
        <ele>216.80000305176</ele>
        <time>2020-06-08T13:34:05.000Z</time>
      </trkpt>
      <trkpt lat="43.52936" lon="1.46138">
        <ele>217</ele>
        <time>2020-06-08T13:34:06.000Z</time>
      </trkpt>
      <trkpt lat="43.52932" lon="1.46141">
        <ele>217.19999694824</ele>
        <time>2020-06-08T13:34:08.000Z</time>
      </trkpt>
      <trkpt lat="43.5293" lon="1.46142">
        <ele>217.19999694824</ele>
        <time>2020-06-08T13:34:09.000Z</time>
      </trkpt>
      <trkpt lat="43.52928" lon="1.46144">
        <ele>217.39999389648</ele>
        <time>2020-06-08T13:34:10.000Z</time>
      </trkpt>
      <trkpt lat="43.52924" lon="1.46146">
        <ele>217.60000610352</ele>
        <time>2020-06-08T13:34:12.000Z</time>
      </trkpt>
      <trkpt lat="43.5292" lon="1.46149">
        <ele>217.80000305176</ele>
        <time>2020-06-08T13:34:14.000Z</time>
      </trkpt>
      <trkpt lat="43.52917" lon="1.46152">
        <ele>218</ele>
        <time>2020-06-08T13:34:16.000Z</time>
      </trkpt>
      <trkpt lat="43.52913" lon="1.46154">
        <ele>218.19999694824</ele>
        <time>2020-06-08T13:34:18.000Z</time>
      </trkpt>
      <trkpt lat="43.5291" lon="1.46156">
        <ele>218.80000305176</ele>
        <time>2020-06-08T13:34:20.000Z</time>
      </trkpt>
      <trkpt lat="43.52908" lon="1.46157">
        <ele>219</ele>
        <time>2020-06-08T13:34:21.000Z</time>
      </trkpt>
      <trkpt lat="43.52907" lon="1.46159">
        <ele>219.19999694824</ele>
        <time>2020-06-08T13:34:22.000Z</time>
      </trkpt>
      <trkpt lat="43.52903" lon="1.46161">
        <ele>219.60000610352</ele>
        <time>2020-06-08T13:34:24.000Z</time>
      </trkpt>
      <trkpt lat="43.52899" lon="1.46164">
        <ele>219.80000305176</ele>
        <time>2020-06-08T13:34:26.000Z</time>
      </trkpt>
      <trkpt lat="43.52896" lon="1.46166">
        <ele>219.80000305176</ele>
        <time>2020-06-08T13:34:28.000Z</time>
      </trkpt>
      <trkpt lat="43.52891" lon="1.46169">
        <ele>220</ele>
        <time>2020-06-08T13:34:30.000Z</time>
      </trkpt>
      <trkpt lat="43.52889" lon="1.4617">
        <ele>220.19999694824</ele>
        <time>2020-06-08T13:34:31.000Z</time>
      </trkpt>
      <trkpt lat="43.52887" lon="1.46171">
        <ele>220.19999694824</ele>
        <time>2020-06-08T13:34:32.000Z</time>
      </trkpt>
      <trkpt lat="43.52883" lon="1.46174">
        <ele>220.60000610352</ele>
        <time>2020-06-08T13:34:34.000Z</time>
      </trkpt>
      <trkpt lat="43.52879" lon="1.46177">
        <ele>221</ele>
        <time>2020-06-08T13:34:36.000Z</time>
      </trkpt>
      <trkpt lat="43.52875" lon="1.4618">
        <ele>221.39999389648</ele>
        <time>2020-06-08T13:34:38.000Z</time>
      </trkpt>
      <trkpt lat="43.52871" lon="1.46183">
        <ele>221.80000305176</ele>
        <time>2020-06-08T13:34:40.000Z</time>
      </trkpt>
      <trkpt lat="43.52867" lon="1.46185">
        <ele>222</ele>
        <time>2020-06-08T13:34:42.000Z</time>
      </trkpt>
      <trkpt lat="43.52863" lon="1.46188">
        <ele>222</ele>
        <time>2020-06-08T13:34:44.000Z</time>
      </trkpt>
      <trkpt lat="43.52859" lon="1.46191">
        <ele>222.19999694824</ele>
        <time>2020-06-08T13:34:46.000Z</time>
      </trkpt>
      <trkpt lat="43.52855" lon="1.46194">
        <ele>222.39999389648</ele>
        <time>2020-06-08T13:34:48.000Z</time>
      </trkpt>
      <trkpt lat="43.52853" lon="1.46195">
        <ele>222.60000610352</ele>
        <time>2020-06-08T13:34:49.000Z</time>
      </trkpt>
      <trkpt lat="43.52851" lon="1.46196">
        <ele>223</ele>
        <time>2020-06-08T13:34:50.000Z</time>
      </trkpt>
      <trkpt lat="43.52846" lon="1.46199">
        <ele>223.80000305176</ele>
        <time>2020-06-08T13:34:52.000Z</time>
      </trkpt>
      <trkpt lat="43.52842" lon="1.46202">
        <ele>224</ele>
        <time>2020-06-08T13:34:54.000Z</time>
      </trkpt>
      <trkpt lat="43.52838" lon="1.46204">
        <ele>224.19999694824</ele>
        <time>2020-06-08T13:34:56.000Z</time>
      </trkpt>
      <trkpt lat="43.52834" lon="1.46207">
        <ele>224.19999694824</ele>
        <time>2020-06-08T13:34:58.000Z</time>
      </trkpt>
      <trkpt lat="43.5283" lon="1.4621">
        <ele>224.60000610352</ele>
        <time>2020-06-08T13:35:00.000Z</time>
      </trkpt>
      <trkpt lat="43.52828" lon="1.46211">
        <ele>224.80000305176</ele>
        <time>2020-06-08T13:35:01.000Z</time>
      </trkpt>
      <trkpt lat="43.52826" lon="1.46212">
        <ele>225</ele>
        <time>2020-06-08T13:35:02.000Z</time>
      </trkpt>
      <trkpt lat="43.52822" lon="1.46216">
        <ele>225.39999389648</ele>
        <time>2020-06-08T13:35:04.000Z</time>
      </trkpt>
      <trkpt lat="43.52819" lon="1.46219">
        <ele>225.60000610352</ele>
        <time>2020-06-08T13:35:06.000Z</time>
      </trkpt>
      <trkpt lat="43.52815" lon="1.46221">
        <ele>226</ele>
        <time>2020-06-08T13:35:08.000Z</time>
      </trkpt>
      <trkpt lat="43.52811" lon="1.46224">
        <ele>226.39999389648</ele>
        <time>2020-06-08T13:35:10.000Z</time>
      </trkpt>
      <trkpt lat="43.52807" lon="1.46227">
        <ele>226.39999389648</ele>
        <time>2020-06-08T13:35:12.000Z</time>
      </trkpt>
      <trkpt lat="43.52803" lon="1.46229">
        <ele>226.60000610352</ele>
        <time>2020-06-08T13:35:14.000Z</time>
      </trkpt>
      <trkpt lat="43.52799" lon="1.46232">
        <ele>226.80000305176</ele>
        <time>2020-06-08T13:35:16.000Z</time>
      </trkpt>
      <trkpt lat="43.52795" lon="1.46235">
        <ele>227.19999694824</ele>
        <time>2020-06-08T13:35:18.000Z</time>
      </trkpt>
      <trkpt lat="43.52791" lon="1.46237">
        <ele>227.39999389648</ele>
        <time>2020-06-08T13:35:20.000Z</time>
      </trkpt>
      <trkpt lat="43.52787" lon="1.4624">
        <ele>227.80000305176</ele>
        <time>2020-06-08T13:35:22.000Z</time>
      </trkpt>
      <trkpt lat="43.52782" lon="1.46242">
        <ele>228.19999694824</ele>
        <time>2020-06-08T13:35:24.000Z</time>
      </trkpt>
      <trkpt lat="43.5278" lon="1.46243">
        <ele>228.39999389648</ele>
        <time>2020-06-08T13:35:25.000Z</time>
      </trkpt>
      <trkpt lat="43.52778" lon="1.46244">
        <ele>228.39999389648</ele>
        <time>2020-06-08T13:35:26.000Z</time>
      </trkpt>
      <trkpt lat="43.52774" lon="1.46247">
        <ele>228.80000305176</ele>
        <time>2020-06-08T13:35:28.000Z</time>
      </trkpt>
      <trkpt lat="43.5277" lon="1.4625">
        <ele>229.19999694824</ele>
        <time>2020-06-08T13:35:30.000Z</time>
      </trkpt>
      <trkpt lat="43.52766" lon="1.46253">
        <ele>229.39999389648</ele>
        <time>2020-06-08T13:35:32.000Z</time>
      </trkpt>
      <trkpt lat="43.52762" lon="1.46255">
        <ele>229.60000610352</ele>
        <time>2020-06-08T13:35:34.000Z</time>
      </trkpt>
      <trkpt lat="43.52758" lon="1.46257">
        <ele>230</ele>
        <time>2020-06-08T13:35:36.000Z</time>
      </trkpt>
      <trkpt lat="43.52754" lon="1.46259">
        <ele>230.39999389648</ele>
        <time>2020-06-08T13:35:38.000Z</time>
      </trkpt>
      <trkpt lat="43.52752" lon="1.4626">
        <ele>230.60000610352</ele>
        <time>2020-06-08T13:35:39.000Z</time>
      </trkpt>
      <trkpt lat="43.5275" lon="1.46262">
        <ele>230.80000305176</ele>
        <time>2020-06-08T13:35:40.000Z</time>
      </trkpt>
      <trkpt lat="43.52745" lon="1.46264">
        <ele>231.19999694824</ele>
        <time>2020-06-08T13:35:42.000Z</time>
      </trkpt>
      <trkpt lat="43.52743" lon="1.46265">
        <ele>231.60000610352</ele>
        <time>2020-06-08T13:35:43.000Z</time>
      </trkpt>
      <trkpt lat="43.52741" lon="1.46266">
        <ele>231.80000305176</ele>
        <time>2020-06-08T13:35:44.000Z</time>
      </trkpt>
      <trkpt lat="43.52737" lon="1.46269">
        <ele>232.19999694824</ele>
        <time>2020-06-08T13:35:46.000Z</time>
      </trkpt>
      <trkpt lat="43.52732" lon="1.46271">
        <ele>232.60000610352</ele>
        <time>2020-06-08T13:35:48.000Z</time>
      </trkpt>
      <trkpt lat="43.52728" lon="1.46273">
        <ele>233</ele>
        <time>2020-06-08T13:35:50.000Z</time>
      </trkpt>
      <trkpt lat="43.52724" lon="1.46275">
        <ele>233.39999389648</ele>
        <time>2020-06-08T13:35:52.000Z</time>
      </trkpt>
      <trkpt lat="43.52722" lon="1.46276">
        <ele>233.60000610352</ele>
        <time>2020-06-08T13:35:53.000Z</time>
      </trkpt>
      <trkpt lat="43.5272" lon="1.46276">
        <ele>233.80000305176</ele>
        <time>2020-06-08T13:35:54.000Z</time>
      </trkpt>
      <trkpt lat="43.52715" lon="1.46278">
        <ele>234.19999694824</ele>
        <time>2020-06-08T13:35:56.000Z</time>
      </trkpt>
      <trkpt lat="43.52711" lon="1.46279">
        <ele>234.60000610352</ele>
        <time>2020-06-08T13:35:58.000Z</time>
      </trkpt>
      <trkpt lat="43.52706" lon="1.46279">
        <ele>234.60000610352</ele>
        <time>2020-06-08T13:36:00.000Z</time>
      </trkpt>
      <trkpt lat="43.52701" lon="1.4628">
        <ele>235</ele>
        <time>2020-06-08T13:36:02.000Z</time>
      </trkpt>
      <trkpt lat="43.52696" lon="1.4628">
        <ele>235.39999389648</ele>
        <time>2020-06-08T13:36:04.000Z</time>
      </trkpt>
      <trkpt lat="43.52691" lon="1.46279">
        <ele>235.80000305176</ele>
        <time>2020-06-08T13:36:06.000Z</time>
      </trkpt>
      <trkpt lat="43.52686" lon="1.46279">
        <ele>236.39999389648</ele>
        <time>2020-06-08T13:36:08.000Z</time>
      </trkpt>
      <trkpt lat="43.52682" lon="1.46278">
        <ele>236.80000305176</ele>
        <time>2020-06-08T13:36:10.000Z</time>
      </trkpt>
      <trkpt lat="43.52679" lon="1.46277">
        <ele>237</ele>
        <time>2020-06-08T13:36:11.000Z</time>
      </trkpt>
      <trkpt lat="43.52677" lon="1.46277">
        <ele>237.19999694824</ele>
        <time>2020-06-08T13:36:12.000Z</time>
      </trkpt>
      <trkpt lat="43.52672" lon="1.46275">
        <ele>237.19999694824</ele>
        <time>2020-06-08T13:36:14.000Z</time>
      </trkpt>
      <trkpt lat="43.52667" lon="1.46274">
        <ele>237.60000610352</ele>
        <time>2020-06-08T13:36:16.000Z</time>
      </trkpt>
      <trkpt lat="43.52663" lon="1.46273">
        <ele>237.80000305176</ele>
        <time>2020-06-08T13:36:18.000Z</time>
      </trkpt>
      <trkpt lat="43.52658" lon="1.46271">
        <ele>238</ele>
        <time>2020-06-08T13:36:20.000Z</time>
      </trkpt>
      <trkpt lat="43.52656" lon="1.4627">
        <ele>238</ele>
        <time>2020-06-08T13:36:21.000Z</time>
      </trkpt>
      <trkpt lat="43.52654" lon="1.46269">
        <ele>238.19999694824</ele>
        <time>2020-06-08T13:36:22.000Z</time>
      </trkpt>
      <trkpt lat="43.52649" lon="1.46268">
        <ele>238.39999389648</ele>
        <time>2020-06-08T13:36:24.000Z</time>
      </trkpt>
      <trkpt lat="43.52645" lon="1.46266">
        <ele>238.39999389648</ele>
        <time>2020-06-08T13:36:26.000Z</time>
      </trkpt>
      <trkpt lat="43.5264" lon="1.46264">
        <ele>238.80000305176</ele>
        <time>2020-06-08T13:36:28.000Z</time>
      </trkpt>
      <trkpt lat="43.52635" lon="1.46262">
        <ele>239</ele>
        <time>2020-06-08T13:36:30.000Z</time>
      </trkpt>
      <trkpt lat="43.52633" lon="1.46261">
        <ele>239.19999694824</ele>
        <time>2020-06-08T13:36:31.000Z</time>
      </trkpt>
      <trkpt lat="43.5263" lon="1.4626">
        <ele>239.39999389648</ele>
        <time>2020-06-08T13:36:32.000Z</time>
      </trkpt>
      <trkpt lat="43.52625" lon="1.46258">
        <ele>239.80000305176</ele>
        <time>2020-06-08T13:36:34.000Z</time>
      </trkpt>
      <trkpt lat="43.52621" lon="1.46257">
        <ele>240</ele>
        <time>2020-06-08T13:36:36.000Z</time>
      </trkpt>
      <trkpt lat="43.52616" lon="1.46255">
        <ele>240.19999694824</ele>
        <time>2020-06-08T13:36:38.000Z</time>
      </trkpt>
      <trkpt lat="43.52611" lon="1.46253">
        <ele>240.60000610352</ele>
        <time>2020-06-08T13:36:40.000Z</time>
      </trkpt>
      <trkpt lat="43.52606" lon="1.46251">
        <ele>241</ele>
        <time>2020-06-08T13:36:42.000Z</time>
      </trkpt>
      <trkpt lat="43.52601" lon="1.46249">
        <ele>241.39999389648</ele>
        <time>2020-06-08T13:36:44.000Z</time>
      </trkpt>
      <trkpt lat="43.52596" lon="1.46247">
        <ele>241.80000305176</ele>
        <time>2020-06-08T13:36:46.000Z</time>
      </trkpt>
      <trkpt lat="43.52591" lon="1.46245">
        <ele>242</ele>
        <time>2020-06-08T13:36:48.000Z</time>
      </trkpt>
      <trkpt lat="43.52587" lon="1.46244">
        <ele>242.19999694824</ele>
        <time>2020-06-08T13:36:50.000Z</time>
      </trkpt>
      <trkpt lat="43.52584" lon="1.46243">
        <ele>242.39999389648</ele>
        <time>2020-06-08T13:36:51.000Z</time>
      </trkpt>
      <trkpt lat="43.52582" lon="1.46242">
        <ele>242.60000610352</ele>
        <time>2020-06-08T13:36:52.000Z</time>
      </trkpt>
      <trkpt lat="43.52577" lon="1.4624">
        <ele>242.80000305176</ele>
        <time>2020-06-08T13:36:54.000Z</time>
      </trkpt>
      <trkpt lat="43.52572" lon="1.46237">
        <ele>243</ele>
        <time>2020-06-08T13:36:56.000Z</time>
      </trkpt>
      <trkpt lat="43.52567" lon="1.46235">
        <ele>243.19999694824</ele>
        <time>2020-06-08T13:36:58.000Z</time>
      </trkpt>
      <trkpt lat="43.52563" lon="1.46233">
        <ele>243.60000610352</ele>
        <time>2020-06-08T13:37:00.000Z</time>
      </trkpt>
      <trkpt lat="43.52558" lon="1.46231">
        <ele>243.80000305176</ele>
        <time>2020-06-08T13:37:02.000Z</time>
      </trkpt>
      <trkpt lat="43.52553" lon="1.4623">
        <ele>243.80000305176</ele>
        <time>2020-06-08T13:37:04.000Z</time>
      </trkpt>
      <trkpt lat="43.52548" lon="1.46228">
        <ele>244</ele>
        <time>2020-06-08T13:37:06.000Z</time>
      </trkpt>
      <trkpt lat="43.52543" lon="1.46227">
        <ele>244.19999694824</ele>
        <time>2020-06-08T13:37:08.000Z</time>
      </trkpt>
      <trkpt lat="43.52538" lon="1.46225">
        <ele>244.39999389648</ele>
        <time>2020-06-08T13:37:10.000Z</time>
      </trkpt>
      <trkpt lat="43.52536" lon="1.46224">
        <ele>244.60000610352</ele>
        <time>2020-06-08T13:37:11.000Z</time>
      </trkpt>
      <trkpt lat="43.52534" lon="1.46223">
        <ele>244.80000305176</ele>
        <time>2020-06-08T13:37:12.000Z</time>
      </trkpt>
      <trkpt lat="43.52529" lon="1.46222">
        <ele>245</ele>
        <time>2020-06-08T13:37:14.000Z</time>
      </trkpt>
      <trkpt lat="43.52525" lon="1.46221">
        <ele>245.60000610352</ele>
        <time>2020-06-08T13:37:16.000Z</time>
      </trkpt>
      <trkpt lat="43.5252" lon="1.46219">
        <ele>245.80000305176</ele>
        <time>2020-06-08T13:37:18.000Z</time>
      </trkpt>
      <trkpt lat="43.52515" lon="1.46217">
        <ele>246.19999694824</ele>
        <time>2020-06-08T13:37:20.000Z</time>
      </trkpt>
      <trkpt lat="43.5251" lon="1.46217">
        <ele>246.60000610352</ele>
        <time>2020-06-08T13:37:22.000Z</time>
      </trkpt>
      <trkpt lat="43.52504" lon="1.46216">
        <ele>247</ele>
        <time>2020-06-08T13:37:24.000Z</time>
      </trkpt>
      <trkpt lat="43.52498" lon="1.46215">
        <ele>247.39999389648</ele>
        <time>2020-06-08T13:37:26.000Z</time>
      </trkpt>
      <trkpt lat="43.52493" lon="1.46213">
        <ele>247.60000610352</ele>
        <time>2020-06-08T13:37:28.000Z</time>
      </trkpt>
      <trkpt lat="43.52488" lon="1.46212">
        <ele>248</ele>
        <time>2020-06-08T13:37:30.000Z</time>
      </trkpt>
      <trkpt lat="43.52482" lon="1.46211">
        <ele>248</ele>
        <time>2020-06-08T13:37:32.000Z</time>
      </trkpt>
      <trkpt lat="43.52477" lon="1.46211">
        <ele>248.19999694824</ele>
        <time>2020-06-08T13:37:34.000Z</time>
      </trkpt>
      <trkpt lat="43.52472" lon="1.4621">
        <ele>248.39999389648</ele>
        <time>2020-06-08T13:37:36.000Z</time>
      </trkpt>
      <trkpt lat="43.52467" lon="1.4621">
        <ele>248.60000610352</ele>
        <time>2020-06-08T13:37:38.000Z</time>
      </trkpt>
      <trkpt lat="43.52462" lon="1.4621">
        <ele>248.60000610352</ele>
        <time>2020-06-08T13:37:40.000Z</time>
      </trkpt>
      <trkpt lat="43.52457" lon="1.4621">
        <ele>248.80000305176</ele>
        <time>2020-06-08T13:37:42.000Z</time>
      </trkpt>
      <trkpt lat="43.52452" lon="1.4621">
        <ele>248.80000305176</ele>
        <time>2020-06-08T13:37:44.000Z</time>
      </trkpt>
      <trkpt lat="43.52447" lon="1.46209">
        <ele>249</ele>
        <time>2020-06-08T13:37:46.000Z</time>
      </trkpt>
      <trkpt lat="43.52442" lon="1.46209">
        <ele>249</ele>
        <time>2020-06-08T13:37:48.000Z</time>
      </trkpt>
      <trkpt lat="43.52436" lon="1.46209">
        <ele>249</ele>
        <time>2020-06-08T13:37:50.000Z</time>
      </trkpt>
      <trkpt lat="43.5243" lon="1.4621">
        <ele>249</ele>
        <time>2020-06-08T13:37:52.000Z</time>
      </trkpt>
      <trkpt lat="43.52424" lon="1.4621">
        <ele>249</ele>
        <time>2020-06-08T13:37:54.000Z</time>
      </trkpt>
      <trkpt lat="43.52417" lon="1.46211">
        <ele>248.80000305176</ele>
        <time>2020-06-08T13:37:56.000Z</time>
      </trkpt>
      <trkpt lat="43.52411" lon="1.46212">
        <ele>248.60000610352</ele>
        <time>2020-06-08T13:37:58.000Z</time>
      </trkpt>
      <trkpt lat="43.52404" lon="1.46212">
        <ele>248.39999389648</ele>
        <time>2020-06-08T13:38:00.000Z</time>
      </trkpt>
      <trkpt lat="43.52397" lon="1.46212">
        <ele>248.39999389648</ele>
        <time>2020-06-08T13:38:02.000Z</time>
      </trkpt>
      <trkpt lat="43.5239" lon="1.46212">
        <ele>248.19999694824</ele>
        <time>2020-06-08T13:38:04.000Z</time>
      </trkpt>
      <trkpt lat="43.52384" lon="1.46212">
        <ele>248.19999694824</ele>
        <time>2020-06-08T13:38:06.000Z</time>
      </trkpt>
      <trkpt lat="43.52377" lon="1.46212">
        <ele>248.19999694824</ele>
        <time>2020-06-08T13:38:08.000Z</time>
      </trkpt>
      <trkpt lat="43.5237" lon="1.46212">
        <ele>248.19999694824</ele>
        <time>2020-06-08T13:38:10.000Z</time>
      </trkpt>
      <trkpt lat="43.52364" lon="1.46212">
        <ele>248.19999694824</ele>
        <time>2020-06-08T13:38:12.000Z</time>
      </trkpt>
      <trkpt lat="43.52357" lon="1.46213">
        <ele>248.39999389648</ele>
        <time>2020-06-08T13:38:14.000Z</time>
      </trkpt>
      <trkpt lat="43.5235" lon="1.46214">
        <ele>248.39999389648</ele>
        <time>2020-06-08T13:38:16.000Z</time>
      </trkpt>
      <trkpt lat="43.52344" lon="1.46215">
        <ele>248.39999389648</ele>
        <time>2020-06-08T13:38:18.000Z</time>
      </trkpt>
      <trkpt lat="43.52337" lon="1.46216">
        <ele>248.39999389648</ele>
        <time>2020-06-08T13:38:20.000Z</time>
      </trkpt>
      <trkpt lat="43.52331" lon="1.46217">
        <ele>248.60000610352</ele>
        <time>2020-06-08T13:38:22.000Z</time>
      </trkpt>
      <trkpt lat="43.52324" lon="1.46219">
        <ele>248.60000610352</ele>
        <time>2020-06-08T13:38:24.000Z</time>
      </trkpt>
      <trkpt lat="43.52317" lon="1.4622">
        <ele>248.60000610352</ele>
        <time>2020-06-08T13:38:26.000Z</time>
      </trkpt>
      <trkpt lat="43.52309" lon="1.46222">
        <ele>248.80000305176</ele>
        <time>2020-06-08T13:38:28.000Z</time>
      </trkpt>
      <trkpt lat="43.52302" lon="1.46223">
        <ele>248.80000305176</ele>
        <time>2020-06-08T13:38:30.000Z</time>
      </trkpt>
      <trkpt lat="43.52295" lon="1.46224">
        <ele>248.80000305176</ele>
        <time>2020-06-08T13:38:32.000Z</time>
      </trkpt>
      <trkpt lat="43.52288" lon="1.46226">
        <ele>249</ele>
        <time>2020-06-08T13:38:34.000Z</time>
      </trkpt>
      <trkpt lat="43.52281" lon="1.46228">
        <ele>249</ele>
        <time>2020-06-08T13:38:36.000Z</time>
      </trkpt>
      <trkpt lat="43.52273" lon="1.4623">
        <ele>249</ele>
        <time>2020-06-08T13:38:38.000Z</time>
      </trkpt>
      <trkpt lat="43.52265" lon="1.46231">
        <ele>249</ele>
        <time>2020-06-08T13:38:40.000Z</time>
      </trkpt>
      <trkpt lat="43.52257" lon="1.46231">
        <ele>249.19999694824</ele>
        <time>2020-06-08T13:38:42.000Z</time>
      </trkpt>
      <trkpt lat="43.52249" lon="1.46233">
        <ele>249.19999694824</ele>
        <time>2020-06-08T13:38:44.000Z</time>
      </trkpt>
      <trkpt lat="43.52239" lon="1.46234">
        <ele>249.19999694824</ele>
        <time>2020-06-08T13:38:46.000Z</time>
      </trkpt>
      <trkpt lat="43.52229" lon="1.46237">
        <ele>249.19999694824</ele>
        <time>2020-06-08T13:38:48.000Z</time>
      </trkpt>
      <trkpt lat="43.5222" lon="1.46239">
        <ele>249.19999694824</ele>
        <time>2020-06-08T13:38:50.000Z</time>
      </trkpt>
      <trkpt lat="43.5221" lon="1.46241">
        <ele>249.19999694824</ele>
        <time>2020-06-08T13:38:52.000Z</time>
      </trkpt>
      <trkpt lat="43.52201" lon="1.46243">
        <ele>249.39999389648</ele>
        <time>2020-06-08T13:38:54.000Z</time>
      </trkpt>
      <trkpt lat="43.52192" lon="1.46245">
        <ele>249.39999389648</ele>
        <time>2020-06-08T13:38:56.000Z</time>
      </trkpt>
      <trkpt lat="43.52184" lon="1.46247">
        <ele>250</ele>
        <time>2020-06-08T13:38:58.000Z</time>
      </trkpt>
      <trkpt lat="43.52175" lon="1.46249">
        <ele>250.19999694824</ele>
        <time>2020-06-08T13:39:00.000Z</time>
      </trkpt>
      <trkpt lat="43.52171" lon="1.46249">
        <ele>250.19999694824</ele>
        <time>2020-06-08T13:39:01.000Z</time>
      </trkpt>
      <trkpt lat="43.52167" lon="1.4625">
        <ele>250.19999694824</ele>
        <time>2020-06-08T13:39:02.000Z</time>
      </trkpt>
      <trkpt lat="43.52158" lon="1.46252">
        <ele>250.39999389648</ele>
        <time>2020-06-08T13:39:04.000Z</time>
      </trkpt>
      <trkpt lat="43.5215" lon="1.46254">
        <ele>250.80000305176</ele>
        <time>2020-06-08T13:39:06.000Z</time>
      </trkpt>
      <trkpt lat="43.52142" lon="1.46256">
        <ele>251</ele>
        <time>2020-06-08T13:39:08.000Z</time>
      </trkpt>
      <trkpt lat="43.52133" lon="1.46259">
        <ele>251.19999694824</ele>
        <time>2020-06-08T13:39:10.000Z</time>
      </trkpt>
      <trkpt lat="43.52125" lon="1.46262">
        <ele>251.60000610352</ele>
        <time>2020-06-08T13:39:12.000Z</time>
      </trkpt>
      <trkpt lat="43.52118" lon="1.46265">
        <ele>251.80000305176</ele>
        <time>2020-06-08T13:39:14.000Z</time>
      </trkpt>
      <trkpt lat="43.52111" lon="1.46267">
        <ele>252</ele>
        <time>2020-06-08T13:39:16.000Z</time>
      </trkpt>
      <trkpt lat="43.52108" lon="1.46268">
        <ele>252.19999694824</ele>
        <time>2020-06-08T13:39:17.000Z</time>
      </trkpt>
      <trkpt lat="43.52105" lon="1.4627">
        <ele>252.39999389648</ele>
        <time>2020-06-08T13:39:18.000Z</time>
      </trkpt>
      <trkpt lat="43.521" lon="1.46272">
        <ele>252.60000610352</ele>
        <time>2020-06-08T13:39:20.000Z</time>
      </trkpt>
      <trkpt lat="43.52094" lon="1.46275">
        <ele>252.80000305176</ele>
        <time>2020-06-08T13:39:22.000Z</time>
      </trkpt>
      <trkpt lat="43.52088" lon="1.46278">
        <ele>253.60000610352</ele>
        <time>2020-06-08T13:39:24.000Z</time>
      </trkpt>
      <trkpt lat="43.52083" lon="1.46279">
        <ele>253.80000305176</ele>
        <time>2020-06-08T13:39:26.000Z</time>
      </trkpt>
      <trkpt lat="43.52077" lon="1.46282">
        <ele>254.19999694824</ele>
        <time>2020-06-08T13:39:28.000Z</time>
      </trkpt>
      <trkpt lat="43.52074" lon="1.46283">
        <ele>254.39999389648</ele>
        <time>2020-06-08T13:39:29.000Z</time>
      </trkpt>
      <trkpt lat="43.52071" lon="1.46284">
        <ele>254.60000610352</ele>
        <time>2020-06-08T13:39:30.000Z</time>
      </trkpt>
      <trkpt lat="43.52065" lon="1.46287">
        <ele>254.80000305176</ele>
        <time>2020-06-08T13:39:32.000Z</time>
      </trkpt>
      <trkpt lat="43.52059" lon="1.4629">
        <ele>255</ele>
        <time>2020-06-08T13:39:34.000Z</time>
      </trkpt>
      <trkpt lat="43.52052" lon="1.46293">
        <ele>255.19999694824</ele>
        <time>2020-06-08T13:39:36.000Z</time>
      </trkpt>
      <trkpt lat="43.52046" lon="1.46295">
        <ele>255.80000305176</ele>
        <time>2020-06-08T13:39:38.000Z</time>
      </trkpt>
      <trkpt lat="43.52039" lon="1.46298">
        <ele>256</ele>
        <time>2020-06-08T13:39:40.000Z</time>
      </trkpt>
      <trkpt lat="43.52032" lon="1.46301">
        <ele>256.39999389648</ele>
        <time>2020-06-08T13:39:42.000Z</time>
      </trkpt>
      <trkpt lat="43.52026" lon="1.46304">
        <ele>256.60000610352</ele>
        <time>2020-06-08T13:39:44.000Z</time>
      </trkpt>
      <trkpt lat="43.52019" lon="1.46307">
        <ele>257</ele>
        <time>2020-06-08T13:39:46.000Z</time>
      </trkpt>
      <trkpt lat="43.52012" lon="1.46309">
        <ele>257.79998779297</ele>
        <time>2020-06-08T13:39:48.000Z</time>
      </trkpt>
      <trkpt lat="43.52006" lon="1.46312">
        <ele>258.20001220703</ele>
        <time>2020-06-08T13:39:50.000Z</time>
      </trkpt>
      <trkpt lat="43.51999" lon="1.46313">
        <ele>258.20001220703</ele>
        <time>2020-06-08T13:39:52.000Z</time>
      </trkpt>
      <trkpt lat="43.51993" lon="1.46315">
        <ele>258.39999389648</ele>
        <time>2020-06-08T13:39:54.000Z</time>
      </trkpt>
      <trkpt lat="43.51987" lon="1.46316">
        <ele>258.60000610352</ele>
        <time>2020-06-08T13:39:56.000Z</time>
      </trkpt>
      <trkpt lat="43.51981" lon="1.46318">
        <ele>258.79998779297</ele>
        <time>2020-06-08T13:39:58.000Z</time>
      </trkpt>
      <trkpt lat="43.51975" lon="1.46319">
        <ele>258.79998779297</ele>
        <time>2020-06-08T13:40:00.000Z</time>
      </trkpt>
      <trkpt lat="43.51969" lon="1.4632">
        <ele>259</ele>
        <time>2020-06-08T13:40:02.000Z</time>
      </trkpt>
      <trkpt lat="43.51964" lon="1.4632">
        <ele>259.20001220703</ele>
        <time>2020-06-08T13:40:04.000Z</time>
      </trkpt>
      <trkpt lat="43.51958" lon="1.46321">
        <ele>259.39999389648</ele>
        <time>2020-06-08T13:40:06.000Z</time>
      </trkpt>
      <trkpt lat="43.51951" lon="1.46321">
        <ele>259.60000610352</ele>
        <time>2020-06-08T13:40:08.000Z</time>
      </trkpt>
      <trkpt lat="43.51948" lon="1.46322">
        <ele>260</ele>
        <time>2020-06-08T13:40:09.000Z</time>
      </trkpt>
      <trkpt lat="43.51944" lon="1.46322">
        <ele>260</ele>
        <time>2020-06-08T13:40:10.000Z</time>
      </trkpt>
      <trkpt lat="43.51938" lon="1.46323">
        <ele>260.39999389648</ele>
        <time>2020-06-08T13:40:12.000Z</time>
      </trkpt>
      <trkpt lat="43.51931" lon="1.46323">
        <ele>261.20001220703</ele>
        <time>2020-06-08T13:40:14.000Z</time>
      </trkpt>
      <trkpt lat="43.51924" lon="1.46323">
        <ele>261.60000610352</ele>
        <time>2020-06-08T13:40:16.000Z</time>
      </trkpt>
      <trkpt lat="43.51917" lon="1.46323">
        <ele>262</ele>
        <time>2020-06-08T13:40:18.000Z</time>
      </trkpt>
      <trkpt lat="43.51914" lon="1.46323">
        <ele>262.39999389648</ele>
        <time>2020-06-08T13:40:19.000Z</time>
      </trkpt>
      <trkpt lat="43.5191" lon="1.46323">
        <ele>262.79998779297</ele>
        <time>2020-06-08T13:40:20.000Z</time>
      </trkpt>
      <trkpt lat="43.51903" lon="1.46323">
        <ele>263.39999389648</ele>
        <time>2020-06-08T13:40:22.000Z</time>
      </trkpt>
      <trkpt lat="43.51896" lon="1.46323">
        <ele>264</ele>
        <time>2020-06-08T13:40:24.000Z</time>
      </trkpt>
      <trkpt lat="43.51889" lon="1.46323">
        <ele>264.39999389648</ele>
        <time>2020-06-08T13:40:26.000Z</time>
      </trkpt>
      <trkpt lat="43.51886" lon="1.46322">
        <ele>264.60000610352</ele>
        <time>2020-06-08T13:40:27.000Z</time>
      </trkpt>
      <trkpt lat="43.51882" lon="1.46322">
        <ele>264.79998779297</ele>
        <time>2020-06-08T13:40:28.000Z</time>
      </trkpt>
      <trkpt lat="43.51877" lon="1.46321">
        <ele>265.20001220703</ele>
        <time>2020-06-08T13:40:30.000Z</time>
      </trkpt>
      <trkpt lat="43.5187" lon="1.4632">
        <ele>265.60000610352</ele>
        <time>2020-06-08T13:40:32.000Z</time>
      </trkpt>
      <trkpt lat="43.51867" lon="1.46319">
        <ele>265.60000610352</ele>
        <time>2020-06-08T13:40:33.000Z</time>
      </trkpt>
      <trkpt lat="43.51864" lon="1.46318">
        <ele>265.79998779297</ele>
        <time>2020-06-08T13:40:34.000Z</time>
      </trkpt>
      <trkpt lat="43.51858" lon="1.46317">
        <ele>266.20001220703</ele>
        <time>2020-06-08T13:40:36.000Z</time>
      </trkpt>
      <trkpt lat="43.51852" lon="1.46315">
        <ele>266.60000610352</ele>
        <time>2020-06-08T13:40:38.000Z</time>
      </trkpt>
      <trkpt lat="43.51849" lon="1.46314">
        <ele>266.79998779297</ele>
        <time>2020-06-08T13:40:39.000Z</time>
      </trkpt>
      <trkpt lat="43.51846" lon="1.46313">
        <ele>267</ele>
        <time>2020-06-08T13:40:40.000Z</time>
      </trkpt>
      <trkpt lat="43.5184" lon="1.46312">
        <ele>267.60000610352</ele>
        <time>2020-06-08T13:40:42.000Z</time>
      </trkpt>
      <trkpt lat="43.51838" lon="1.46311">
        <ele>267.79998779297</ele>
        <time>2020-06-08T13:40:43.000Z</time>
      </trkpt>
      <trkpt lat="43.51835" lon="1.4631">
        <ele>268</ele>
        <time>2020-06-08T13:40:44.000Z</time>
      </trkpt>
      <trkpt lat="43.51829" lon="1.46308">
        <ele>268.60000610352</ele>
        <time>2020-06-08T13:40:46.000Z</time>
      </trkpt>
      <trkpt lat="43.51823" lon="1.46305">
        <ele>269</ele>
        <time>2020-06-08T13:40:48.000Z</time>
      </trkpt>
      <trkpt lat="43.51817" lon="1.46303">
        <ele>269.39999389648</ele>
        <time>2020-06-08T13:40:50.000Z</time>
      </trkpt>
      <trkpt lat="43.51811" lon="1.46301">
        <ele>269.79998779297</ele>
        <time>2020-06-08T13:40:52.000Z</time>
      </trkpt>
      <trkpt lat="43.51808" lon="1.46299">
        <ele>270</ele>
        <time>2020-06-08T13:40:53.000Z</time>
      </trkpt>
      <trkpt lat="43.51805" lon="1.46298">
        <ele>270</ele>
        <time>2020-06-08T13:40:54.000Z</time>
      </trkpt>
      <trkpt lat="43.51799" lon="1.46296">
        <ele>270.39999389648</ele>
        <time>2020-06-08T13:40:56.000Z</time>
      </trkpt>
      <trkpt lat="43.51793" lon="1.46293">
        <ele>270.39999389648</ele>
        <time>2020-06-08T13:40:58.000Z</time>
      </trkpt>
      <trkpt lat="43.51787" lon="1.46289">
        <ele>270.60000610352</ele>
        <time>2020-06-08T13:41:00.000Z</time>
      </trkpt>
      <trkpt lat="43.51781" lon="1.46285">
        <ele>270.79998779297</ele>
        <time>2020-06-08T13:41:02.000Z</time>
      </trkpt>
      <trkpt lat="43.51776" lon="1.46281">
        <ele>270.79998779297</ele>
        <time>2020-06-08T13:41:04.000Z</time>
      </trkpt>
      <trkpt lat="43.51769" lon="1.46277">
        <ele>271.20001220703</ele>
        <time>2020-06-08T13:41:06.000Z</time>
      </trkpt>
      <trkpt lat="43.51765" lon="1.46275">
        <ele>271.20001220703</ele>
        <time>2020-06-08T13:41:07.000Z</time>
      </trkpt>
      <trkpt lat="43.51761" lon="1.46273">
        <ele>271.20001220703</ele>
        <time>2020-06-08T13:41:08.000Z</time>
      </trkpt>
      <trkpt lat="43.51754" lon="1.46268">
        <ele>271.60000610352</ele>
        <time>2020-06-08T13:41:10.000Z</time>
      </trkpt>
      <trkpt lat="43.51747" lon="1.46264">
        <ele>271.79998779297</ele>
        <time>2020-06-08T13:41:12.000Z</time>
      </trkpt>
      <trkpt lat="43.5174" lon="1.4626">
        <ele>272</ele>
        <time>2020-06-08T13:41:14.000Z</time>
      </trkpt>
      <trkpt lat="43.51734" lon="1.46257">
        <ele>272.20001220703</ele>
        <time>2020-06-08T13:41:16.000Z</time>
      </trkpt>
      <trkpt lat="43.51727" lon="1.46255">
        <ele>272.20001220703</ele>
        <time>2020-06-08T13:41:18.000Z</time>
      </trkpt>
      <trkpt lat="43.51719" lon="1.46252">
        <ele>272.20001220703</ele>
        <time>2020-06-08T13:41:20.000Z</time>
      </trkpt>
      <trkpt lat="43.51711" lon="1.46249">
        <ele>272.20001220703</ele>
        <time>2020-06-08T13:41:22.000Z</time>
      </trkpt>
      <trkpt lat="43.51703" lon="1.46246">
        <ele>272.20001220703</ele>
        <time>2020-06-08T13:41:24.000Z</time>
      </trkpt>
      <trkpt lat="43.51694" lon="1.46245">
        <ele>272.20001220703</ele>
        <time>2020-06-08T13:41:26.000Z</time>
      </trkpt>
      <trkpt lat="43.51685" lon="1.46244">
        <ele>272.20001220703</ele>
        <time>2020-06-08T13:41:28.000Z</time>
      </trkpt>
      <trkpt lat="43.51676" lon="1.46243">
        <ele>272.20001220703</ele>
        <time>2020-06-08T13:41:30.000Z</time>
      </trkpt>
      <trkpt lat="43.51666" lon="1.46243">
        <ele>272.20001220703</ele>
        <time>2020-06-08T13:41:32.000Z</time>
      </trkpt>
      <trkpt lat="43.51657" lon="1.46242">
        <ele>272</ele>
        <time>2020-06-08T13:41:34.000Z</time>
      </trkpt>
      <trkpt lat="43.51647" lon="1.46241">
        <ele>271.79998779297</ele>
        <time>2020-06-08T13:41:36.000Z</time>
      </trkpt>
      <trkpt lat="43.51637" lon="1.46239">
        <ele>271.79998779297</ele>
        <time>2020-06-08T13:41:38.000Z</time>
      </trkpt>
      <trkpt lat="43.51627" lon="1.46238">
        <ele>271.79998779297</ele>
        <time>2020-06-08T13:41:40.000Z</time>
      </trkpt>
      <trkpt lat="43.51617" lon="1.46237">
        <ele>271.79998779297</ele>
        <time>2020-06-08T13:41:42.000Z</time>
      </trkpt>
      <trkpt lat="43.51607" lon="1.46235">
        <ele>271.60000610352</ele>
        <time>2020-06-08T13:41:44.000Z</time>
      </trkpt>
      <trkpt lat="43.51597" lon="1.46234">
        <ele>271.60000610352</ele>
        <time>2020-06-08T13:41:46.000Z</time>
      </trkpt>
      <trkpt lat="43.51587" lon="1.46233">
        <ele>271.60000610352</ele>
        <time>2020-06-08T13:41:48.000Z</time>
      </trkpt>
      <trkpt lat="43.51577" lon="1.46232">
        <ele>271.60000610352</ele>
        <time>2020-06-08T13:41:50.000Z</time>
      </trkpt>
      <trkpt lat="43.51567" lon="1.4623">
        <ele>271.39999389648</ele>
        <time>2020-06-08T13:41:52.000Z</time>
      </trkpt>
      <trkpt lat="43.51556" lon="1.4623">
        <ele>271.39999389648</ele>
        <time>2020-06-08T13:41:54.000Z</time>
      </trkpt>
      <trkpt lat="43.51551" lon="1.46229">
        <ele>271.20001220703</ele>
        <time>2020-06-08T13:41:55.000Z</time>
      </trkpt>
      <trkpt lat="43.51546" lon="1.46229">
        <ele>271.20001220703</ele>
        <time>2020-06-08T13:41:56.000Z</time>
      </trkpt>
      <trkpt lat="43.51536" lon="1.46228">
        <ele>271</ele>
        <time>2020-06-08T13:41:58.000Z</time>
      </trkpt>
      <trkpt lat="43.51526" lon="1.46228">
        <ele>271</ele>
        <time>2020-06-08T13:42:00.000Z</time>
      </trkpt>
      <trkpt lat="43.51517" lon="1.46229">
        <ele>271</ele>
        <time>2020-06-08T13:42:02.000Z</time>
      </trkpt>
      <trkpt lat="43.51507" lon="1.4623">
        <ele>270.79998779297</ele>
        <time>2020-06-08T13:42:04.000Z</time>
      </trkpt>
      <trkpt lat="43.51495" lon="1.46233">
        <ele>270.79998779297</ele>
        <time>2020-06-08T13:42:06.000Z</time>
      </trkpt>
      <trkpt lat="43.51483" lon="1.46235">
        <ele>270.60000610352</ele>
        <time>2020-06-08T13:42:08.000Z</time>
      </trkpt>
      <trkpt lat="43.51469" lon="1.46238">
        <ele>270.20001220703</ele>
        <time>2020-06-08T13:42:10.000Z</time>
      </trkpt>
      <trkpt lat="43.51463" lon="1.4624">
        <ele>269.79998779297</ele>
        <time>2020-06-08T13:42:11.000Z</time>
      </trkpt>
      <trkpt lat="43.51457" lon="1.46241">
        <ele>269.60000610352</ele>
        <time>2020-06-08T13:42:12.000Z</time>
      </trkpt>
      <trkpt lat="43.51446" lon="1.46243">
        <ele>268.79998779297</ele>
        <time>2020-06-08T13:42:14.000Z</time>
      </trkpt>
      <trkpt lat="43.51436" lon="1.46244">
        <ele>268.20001220703</ele>
        <time>2020-06-08T13:42:16.000Z</time>
      </trkpt>
      <trkpt lat="43.51428" lon="1.46243">
        <ele>267.79998779297</ele>
        <time>2020-06-08T13:42:18.000Z</time>
      </trkpt>
      <trkpt lat="43.51422" lon="1.46242">
        <ele>267.39999389648</ele>
        <time>2020-06-08T13:42:20.000Z</time>
      </trkpt>
      <trkpt lat="43.51416" lon="1.46237">
        <ele>266.39999389648</ele>
        <time>2020-06-08T13:42:22.000Z</time>
      </trkpt>
      <trkpt lat="43.51409" lon="1.46231">
        <ele>265.60000610352</ele>
        <time>2020-06-08T13:42:24.000Z</time>
      </trkpt>
      <trkpt lat="43.51405" lon="1.46229">
        <ele>265.39999389648</ele>
        <time>2020-06-08T13:42:25.000Z</time>
      </trkpt>
      <trkpt lat="43.514" lon="1.46227">
        <ele>265.20001220703</ele>
        <time>2020-06-08T13:42:26.000Z</time>
      </trkpt>
      <trkpt lat="43.5139" lon="1.46229">
        <ele>265</ele>
        <time>2020-06-08T13:42:28.000Z</time>
      </trkpt>
      <trkpt lat="43.51385" lon="1.46232">
        <ele>264.60000610352</ele>
        <time>2020-06-08T13:42:29.000Z</time>
      </trkpt>
      <trkpt lat="43.5138" lon="1.46234">
        <ele>264.39999389648</ele>
        <time>2020-06-08T13:42:30.000Z</time>
      </trkpt>
      <trkpt lat="43.51375" lon="1.46236">
        <ele>264</ele>
        <time>2020-06-08T13:42:31.000Z</time>
      </trkpt>
      <trkpt lat="43.51369" lon="1.46237">
        <ele>263.60000610352</ele>
        <time>2020-06-08T13:42:32.000Z</time>
      </trkpt>
      <trkpt lat="43.51356" lon="1.46235">
        <ele>263.39999389648</ele>
        <time>2020-06-08T13:42:34.000Z</time>
      </trkpt>
      <trkpt lat="43.51344" lon="1.46232">
        <ele>263.20001220703</ele>
        <time>2020-06-08T13:42:36.000Z</time>
      </trkpt>
      <trkpt lat="43.51331" lon="1.46227">
        <ele>263</ele>
        <time>2020-06-08T13:42:38.000Z</time>
      </trkpt>
      <trkpt lat="43.51318" lon="1.46221">
        <ele>262.60000610352</ele>
        <time>2020-06-08T13:42:40.000Z</time>
      </trkpt>
      <trkpt lat="43.51306" lon="1.46215">
        <ele>262</ele>
        <time>2020-06-08T13:42:42.000Z</time>
      </trkpt>
      <trkpt lat="43.51299" lon="1.46212">
        <ele>261.60000610352</ele>
        <time>2020-06-08T13:42:43.000Z</time>
      </trkpt>
      <trkpt lat="43.51292" lon="1.46208">
        <ele>261.20001220703</ele>
        <time>2020-06-08T13:42:44.000Z</time>
      </trkpt>
      <trkpt lat="43.51279" lon="1.46201">
        <ele>261</ele>
        <time>2020-06-08T13:42:46.000Z</time>
      </trkpt>
      <trkpt lat="43.51264" lon="1.46194">
        <ele>260.60000610352</ele>
        <time>2020-06-08T13:42:48.000Z</time>
      </trkpt>
      <trkpt lat="43.51249" lon="1.46187">
        <ele>260.20001220703</ele>
        <time>2020-06-08T13:42:50.000Z</time>
      </trkpt>
      <trkpt lat="43.51234" lon="1.46179">
        <ele>260</ele>
        <time>2020-06-08T13:42:52.000Z</time>
      </trkpt>
      <trkpt lat="43.5122" lon="1.46171">
        <ele>259.79998779297</ele>
        <time>2020-06-08T13:42:54.000Z</time>
      </trkpt>
      <trkpt lat="43.51205" lon="1.46163">
        <ele>259</ele>
        <time>2020-06-08T13:42:56.000Z</time>
      </trkpt>
      <trkpt lat="43.51197" lon="1.4616">
        <ele>257.79998779297</ele>
        <time>2020-06-08T13:42:57.000Z</time>
      </trkpt>
      <trkpt lat="43.5119" lon="1.46156">
        <ele>256.79998779297</ele>
        <time>2020-06-08T13:42:58.000Z</time>
      </trkpt>
      <trkpt lat="43.51183" lon="1.46153">
        <ele>256</ele>
        <time>2020-06-08T13:42:59.000Z</time>
      </trkpt>
      <trkpt lat="43.51175" lon="1.46149">
        <ele>255.60000610352</ele>
        <time>2020-06-08T13:43:00.000Z</time>
      </trkpt>
      <trkpt lat="43.51162" lon="1.46143">
        <ele>255</ele>
        <time>2020-06-08T13:43:02.000Z</time>
      </trkpt>
      <trkpt lat="43.51155" lon="1.4614">
        <ele>254.80000305176</ele>
        <time>2020-06-08T13:43:03.000Z</time>
      </trkpt>
      <trkpt lat="43.51149" lon="1.46137">
        <ele>254.80000305176</ele>
        <time>2020-06-08T13:43:04.000Z</time>
      </trkpt>
      <trkpt lat="43.51138" lon="1.46131">
        <ele>254.80000305176</ele>
        <time>2020-06-08T13:43:06.000Z</time>
      </trkpt>
      <trkpt lat="43.51127" lon="1.46125">
        <ele>254.80000305176</ele>
        <time>2020-06-08T13:43:08.000Z</time>
      </trkpt>
      <trkpt lat="43.51118" lon="1.46119">
        <ele>255</ele>
        <time>2020-06-08T13:43:10.000Z</time>
      </trkpt>
      <trkpt lat="43.51108" lon="1.46114">
        <ele>255.39999389648</ele>
        <time>2020-06-08T13:43:12.000Z</time>
      </trkpt>
      <trkpt lat="43.51099" lon="1.4611">
        <ele>255.39999389648</ele>
        <time>2020-06-08T13:43:14.000Z</time>
      </trkpt>
      <trkpt lat="43.5109" lon="1.46106">
        <ele>255.39999389648</ele>
        <time>2020-06-08T13:43:16.000Z</time>
      </trkpt>
      <trkpt lat="43.51081" lon="1.46102">
        <ele>255.60000610352</ele>
        <time>2020-06-08T13:43:18.000Z</time>
      </trkpt>
      <trkpt lat="43.51072" lon="1.46099">
        <ele>255.60000610352</ele>
        <time>2020-06-08T13:43:20.000Z</time>
      </trkpt>
      <trkpt lat="43.51062" lon="1.46095">
        <ele>255.19999694824</ele>
        <time>2020-06-08T13:43:22.000Z</time>
      </trkpt>
      <trkpt lat="43.51053" lon="1.46092">
        <ele>255</ele>
        <time>2020-06-08T13:43:24.000Z</time>
      </trkpt>
      <trkpt lat="43.51043" lon="1.46089">
        <ele>255</ele>
        <time>2020-06-08T13:43:26.000Z</time>
      </trkpt>
      <trkpt lat="43.51033" lon="1.46087">
        <ele>254.60000610352</ele>
        <time>2020-06-08T13:43:28.000Z</time>
      </trkpt>
      <trkpt lat="43.51022" lon="1.46083">
        <ele>254.60000610352</ele>
        <time>2020-06-08T13:43:30.000Z</time>
      </trkpt>
      <trkpt lat="43.51012" lon="1.4608">
        <ele>254.19999694824</ele>
        <time>2020-06-08T13:43:32.000Z</time>
      </trkpt>
      <trkpt lat="43.51002" lon="1.46077">
        <ele>254.19999694824</ele>
        <time>2020-06-08T13:43:34.000Z</time>
      </trkpt>
      <trkpt lat="43.50991" lon="1.46073">
        <ele>254.19999694824</ele>
        <time>2020-06-08T13:43:36.000Z</time>
      </trkpt>
      <trkpt lat="43.50981" lon="1.4607">
        <ele>254.19999694824</ele>
        <time>2020-06-08T13:43:38.000Z</time>
      </trkpt>
      <trkpt lat="43.50971" lon="1.46066">
        <ele>254.39999389648</ele>
        <time>2020-06-08T13:43:40.000Z</time>
      </trkpt>
      <trkpt lat="43.50959" lon="1.46065">
        <ele>254.60000610352</ele>
        <time>2020-06-08T13:43:42.000Z</time>
      </trkpt>
      <trkpt lat="43.50948" lon="1.46063">
        <ele>254.60000610352</ele>
        <time>2020-06-08T13:43:44.000Z</time>
      </trkpt>
      <trkpt lat="43.50938" lon="1.46061">
        <ele>254.60000610352</ele>
        <time>2020-06-08T13:43:46.000Z</time>
      </trkpt>
      <trkpt lat="43.50927" lon="1.46058">
        <ele>254.60000610352</ele>
        <time>2020-06-08T13:43:48.000Z</time>
      </trkpt>
      <trkpt lat="43.50917" lon="1.46056">
        <ele>254.60000610352</ele>
        <time>2020-06-08T13:43:50.000Z</time>
      </trkpt>
      <trkpt lat="43.50906" lon="1.46054">
        <ele>254.60000610352</ele>
        <time>2020-06-08T13:43:52.000Z</time>
      </trkpt>
      <trkpt lat="43.50894" lon="1.46053">
        <ele>254.60000610352</ele>
        <time>2020-06-08T13:43:54.000Z</time>
      </trkpt>
      <trkpt lat="43.50883" lon="1.4605">
        <ele>254.60000610352</ele>
        <time>2020-06-08T13:43:56.000Z</time>
      </trkpt>
      <trkpt lat="43.50872" lon="1.46048">
        <ele>254.39999389648</ele>
        <time>2020-06-08T13:43:58.000Z</time>
      </trkpt>
      <trkpt lat="43.50861" lon="1.46047">
        <ele>254.39999389648</ele>
        <time>2020-06-08T13:44:00.000Z</time>
      </trkpt>
      <trkpt lat="43.5085" lon="1.46045">
        <ele>254.39999389648</ele>
        <time>2020-06-08T13:44:02.000Z</time>
      </trkpt>
      <trkpt lat="43.50839" lon="1.46043">
        <ele>254.19999694824</ele>
        <time>2020-06-08T13:44:04.000Z</time>
      </trkpt>
      <trkpt lat="43.50828" lon="1.46042">
        <ele>254.19999694824</ele>
        <time>2020-06-08T13:44:06.000Z</time>
      </trkpt>
      <trkpt lat="43.50818" lon="1.4604">
        <ele>254.19999694824</ele>
        <time>2020-06-08T13:44:08.000Z</time>
      </trkpt>
      <trkpt lat="43.50808" lon="1.46039">
        <ele>254.19999694824</ele>
        <time>2020-06-08T13:44:10.000Z</time>
      </trkpt>
      <trkpt lat="43.50799" lon="1.46037">
        <ele>254.19999694824</ele>
        <time>2020-06-08T13:44:12.000Z</time>
      </trkpt>
      <trkpt lat="43.5079" lon="1.46036">
        <ele>254.19999694824</ele>
        <time>2020-06-08T13:44:14.000Z</time>
      </trkpt>
      <trkpt lat="43.50781" lon="1.46034">
        <ele>254.19999694824</ele>
        <time>2020-06-08T13:44:16.000Z</time>
      </trkpt>
      <trkpt lat="43.50772" lon="1.46033">
        <ele>254.39999389648</ele>
        <time>2020-06-08T13:44:18.000Z</time>
      </trkpt>
      <trkpt lat="43.50763" lon="1.46031">
        <ele>254.39999389648</ele>
        <time>2020-06-08T13:44:20.000Z</time>
      </trkpt>
      <trkpt lat="43.50754" lon="1.46029">
        <ele>254.39999389648</ele>
        <time>2020-06-08T13:44:22.000Z</time>
      </trkpt>
      <trkpt lat="43.50745" lon="1.46026">
        <ele>254.60000610352</ele>
        <time>2020-06-08T13:44:24.000Z</time>
      </trkpt>
      <trkpt lat="43.50737" lon="1.46024">
        <ele>254.60000610352</ele>
        <time>2020-06-08T13:44:26.000Z</time>
      </trkpt>
      <trkpt lat="43.50731" lon="1.46022">
        <ele>254.80000305176</ele>
        <time>2020-06-08T13:44:28.000Z</time>
      </trkpt>
      <trkpt lat="43.50725" lon="1.46021">
        <ele>255</ele>
        <time>2020-06-08T13:44:30.000Z</time>
      </trkpt>
      <trkpt lat="43.50719" lon="1.46019">
        <ele>255</ele>
        <time>2020-06-08T13:44:32.000Z</time>
      </trkpt>
      <trkpt lat="43.50714" lon="1.46018">
        <ele>255</ele>
        <time>2020-06-08T13:44:34.000Z</time>
      </trkpt>
      <trkpt lat="43.50709" lon="1.46016">
        <ele>255</ele>
        <time>2020-06-08T13:44:36.000Z</time>
      </trkpt>
      <trkpt lat="43.50704" lon="1.46013">
        <ele>255</ele>
        <time>2020-06-08T13:44:38.000Z</time>
      </trkpt>
      <trkpt lat="43.50701" lon="1.46011">
        <ele>255</ele>
        <time>2020-06-08T13:44:40.000Z</time>
      </trkpt>
      <trkpt lat="43.50698" lon="1.4601">
        <ele>254.80000305176</ele>
        <time>2020-06-08T13:44:42.000Z</time>
      </trkpt>
      <trkpt lat="43.50696" lon="1.46009">
        <ele>254.39999389648</ele>
        <time>2020-06-08T13:44:44.000Z</time>
      </trkpt>
      <trkpt lat="43.50694" lon="1.46008">
        <ele>254</ele>
        <time>2020-06-08T13:44:46.000Z</time>
      </trkpt>
      <trkpt lat="43.50693" lon="1.46008">
        <ele>254</ele>
        <time>2020-06-08T13:44:47.000Z</time>
      </trkpt>
      <trkpt lat="43.50692" lon="1.46007">
        <ele>253.80000305176</ele>
        <time>2020-06-08T13:44:48.000Z</time>
      </trkpt>
      <trkpt lat="43.50691" lon="1.46006">
        <ele>253.80000305176</ele>
        <time>2020-06-08T13:44:50.000Z</time>
      </trkpt>
      <trkpt lat="43.50689" lon="1.46006">
        <ele>253.60000610352</ele>
        <time>2020-06-08T13:44:52.000Z</time>
      </trkpt>
      <trkpt lat="43.50687" lon="1.46004">
        <ele>253.60000610352</ele>
        <time>2020-06-08T13:44:54.000Z</time>
      </trkpt>
      <trkpt lat="43.50682" lon="1.46001">
        <ele>253.39999389648</ele>
        <time>2020-06-08T13:44:56.000Z</time>
      </trkpt>
      <trkpt lat="43.50677" lon="1.45997">
        <ele>253.19999694824</ele>
        <time>2020-06-08T13:44:58.000Z</time>
      </trkpt>
      <trkpt lat="43.5067" lon="1.45992">
        <ele>253.19999694824</ele>
        <time>2020-06-08T13:45:00.000Z</time>
      </trkpt>
      <trkpt lat="43.50661" lon="1.45985">
        <ele>252.80000305176</ele>
        <time>2020-06-08T13:45:02.000Z</time>
      </trkpt>
      <trkpt lat="43.50651" lon="1.45976">
        <ele>252.19999694824</ele>
        <time>2020-06-08T13:45:04.000Z</time>
      </trkpt>
      <trkpt lat="43.5064" lon="1.45967">
        <ele>252.19999694824</ele>
        <time>2020-06-08T13:45:06.000Z</time>
      </trkpt>
      <trkpt lat="43.50628" lon="1.45958">
        <ele>251.80000305176</ele>
        <time>2020-06-08T13:45:08.000Z</time>
      </trkpt>
      <trkpt lat="43.50617" lon="1.45948">
        <ele>251.19999694824</ele>
        <time>2020-06-08T13:45:10.000Z</time>
      </trkpt>
      <trkpt lat="43.50604" lon="1.45937">
        <ele>250.60000610352</ele>
        <time>2020-06-08T13:45:12.000Z</time>
      </trkpt>
      <trkpt lat="43.50591" lon="1.45926">
        <ele>249.19999694824</ele>
        <time>2020-06-08T13:45:14.000Z</time>
      </trkpt>
      <trkpt lat="43.50578" lon="1.45914">
        <ele>248.19999694824</ele>
        <time>2020-06-08T13:45:16.000Z</time>
      </trkpt>
      <trkpt lat="43.50571" lon="1.45908">
        <ele>247.80000305176</ele>
        <time>2020-06-08T13:45:17.000Z</time>
      </trkpt>
      <trkpt lat="43.50564" lon="1.45902">
        <ele>247.39999389648</ele>
        <time>2020-06-08T13:45:18.000Z</time>
      </trkpt>
      <trkpt lat="43.5055" lon="1.45891">
        <ele>246.39999389648</ele>
        <time>2020-06-08T13:45:20.000Z</time>
      </trkpt>
      <trkpt lat="43.50538" lon="1.45881">
        <ele>245.19999694824</ele>
        <time>2020-06-08T13:45:22.000Z</time>
      </trkpt>
      <trkpt lat="43.50526" lon="1.4587">
        <ele>243</ele>
        <time>2020-06-08T13:45:24.000Z</time>
      </trkpt>
      <trkpt lat="43.50513" lon="1.45859">
        <ele>242</ele>
        <time>2020-06-08T13:45:26.000Z</time>
      </trkpt>
      <trkpt lat="43.50507" lon="1.45854">
        <ele>241.80000305176</ele>
        <time>2020-06-08T13:45:27.000Z</time>
      </trkpt>
      <trkpt lat="43.50501" lon="1.45848">
        <ele>241.39999389648</ele>
        <time>2020-06-08T13:45:28.000Z</time>
      </trkpt>
      <trkpt lat="43.50487" lon="1.45838">
        <ele>240.60000610352</ele>
        <time>2020-06-08T13:45:30.000Z</time>
      </trkpt>
      <trkpt lat="43.50473" lon="1.45829">
        <ele>240</ele>
        <time>2020-06-08T13:45:32.000Z</time>
      </trkpt>
      <trkpt lat="43.50466" lon="1.45823">
        <ele>239.60000610352</ele>
        <time>2020-06-08T13:45:33.000Z</time>
      </trkpt>
      <trkpt lat="43.50459" lon="1.45817">
        <ele>239</ele>
        <time>2020-06-08T13:45:34.000Z</time>
      </trkpt>
      <trkpt lat="43.50445" lon="1.45804">
        <ele>238.39999389648</ele>
        <time>2020-06-08T13:45:36.000Z</time>
      </trkpt>
      <trkpt lat="43.5043" lon="1.45791">
        <ele>237.19999694824</ele>
        <time>2020-06-08T13:45:38.000Z</time>
      </trkpt>
      <trkpt lat="43.50423" lon="1.45784">
        <ele>236.19999694824</ele>
        <time>2020-06-08T13:45:39.000Z</time>
      </trkpt>
      <trkpt lat="43.50415" lon="1.45777">
        <ele>235.60000610352</ele>
        <time>2020-06-08T13:45:40.000Z</time>
      </trkpt>
      <trkpt lat="43.50401" lon="1.45763">
        <ele>235</ele>
        <time>2020-06-08T13:45:42.000Z</time>
      </trkpt>
      <trkpt lat="43.50385" lon="1.4575">
        <ele>234</ele>
        <time>2020-06-08T13:45:44.000Z</time>
      </trkpt>
      <trkpt lat="43.5037" lon="1.45736">
        <ele>232.60000610352</ele>
        <time>2020-06-08T13:45:46.000Z</time>
      </trkpt>
      <trkpt lat="43.50354" lon="1.45723">
        <ele>231.60000610352</ele>
        <time>2020-06-08T13:45:48.000Z</time>
      </trkpt>
      <trkpt lat="43.50337" lon="1.45711">
        <ele>230.39999389648</ele>
        <time>2020-06-08T13:45:50.000Z</time>
      </trkpt>
      <trkpt lat="43.5032" lon="1.45699">
        <ele>229.39999389648</ele>
        <time>2020-06-08T13:45:52.000Z</time>
      </trkpt>
      <trkpt lat="43.50305" lon="1.4569">
        <ele>228.19999694824</ele>
        <time>2020-06-08T13:45:54.000Z</time>
      </trkpt>
      <trkpt lat="43.50291" lon="1.45681">
        <ele>227</ele>
        <time>2020-06-08T13:45:56.000Z</time>
      </trkpt>
      <trkpt lat="43.50278" lon="1.4567">
        <ele>225.19999694824</ele>
        <time>2020-06-08T13:45:58.000Z</time>
      </trkpt>
      <trkpt lat="43.50271" lon="1.45662">
        <ele>224</ele>
        <time>2020-06-08T13:45:59.000Z</time>
      </trkpt>
      <trkpt lat="43.50264" lon="1.45654">
        <ele>223.60000610352</ele>
        <time>2020-06-08T13:46:00.000Z</time>
      </trkpt>
      <trkpt lat="43.50252" lon="1.45634">
        <ele>223.19999694824</ele>
        <time>2020-06-08T13:46:02.000Z</time>
      </trkpt>
      <trkpt lat="43.50243" lon="1.45609">
        <ele>222.80000305176</ele>
        <time>2020-06-08T13:46:04.000Z</time>
      </trkpt>
      <trkpt lat="43.50239" lon="1.45582">
        <ele>221.19999694824</ele>
        <time>2020-06-08T13:46:06.000Z</time>
      </trkpt>
      <trkpt lat="43.5024" lon="1.45569">
        <ele>220</ele>
        <time>2020-06-08T13:46:07.000Z</time>
      </trkpt>
      <trkpt lat="43.50241" lon="1.45556">
        <ele>218.80000305176</ele>
        <time>2020-06-08T13:46:08.000Z</time>
      </trkpt>
      <trkpt lat="43.50244" lon="1.45543">
        <ele>217.39999389648</ele>
        <time>2020-06-08T13:46:09.000Z</time>
      </trkpt>
      <trkpt lat="43.50247" lon="1.4553">
        <ele>216.19999694824</ele>
        <time>2020-06-08T13:46:10.000Z</time>
      </trkpt>
      <trkpt lat="43.50249" lon="1.45518">
        <ele>215</ele>
        <time>2020-06-08T13:46:11.000Z</time>
      </trkpt>
      <trkpt lat="43.50251" lon="1.45506">
        <ele>213.80000305176</ele>
        <time>2020-06-08T13:46:12.000Z</time>
      </trkpt>
      <trkpt lat="43.50252" lon="1.45494">
        <ele>212.80000305176</ele>
        <time>2020-06-08T13:46:13.000Z</time>
      </trkpt>
      <trkpt lat="43.50253" lon="1.45484">
        <ele>211.80000305176</ele>
        <time>2020-06-08T13:46:14.000Z</time>
      </trkpt>
      <trkpt lat="43.50252" lon="1.45473">
        <ele>211</ele>
        <time>2020-06-08T13:46:15.000Z</time>
      </trkpt>
      <trkpt lat="43.5025" lon="1.45463">
        <ele>210.39999389648</ele>
        <time>2020-06-08T13:46:16.000Z</time>
      </trkpt>
      <trkpt lat="43.50246" lon="1.45453">
        <ele>209.80000305176</ele>
        <time>2020-06-08T13:46:17.000Z</time>
      </trkpt>
      <trkpt lat="43.50242" lon="1.45443">
        <ele>209.39999389648</ele>
        <time>2020-06-08T13:46:18.000Z</time>
      </trkpt>
      <trkpt lat="43.50236" lon="1.45434">
        <ele>208.60000610352</ele>
        <time>2020-06-08T13:46:19.000Z</time>
      </trkpt>
      <trkpt lat="43.50229" lon="1.45426">
        <ele>208.19999694824</ele>
        <time>2020-06-08T13:46:20.000Z</time>
      </trkpt>
      <trkpt lat="43.50211" lon="1.45417">
        <ele>207.80000305176</ele>
        <time>2020-06-08T13:46:22.000Z</time>
      </trkpt>
      <trkpt lat="43.50201" lon="1.45414">
        <ele>207.39999389648</ele>
        <time>2020-06-08T13:46:23.000Z</time>
      </trkpt>
      <trkpt lat="43.50191" lon="1.45412">
        <ele>207.19999694824</ele>
        <time>2020-06-08T13:46:24.000Z</time>
      </trkpt>
      <trkpt lat="43.5017" lon="1.45408">
        <ele>206.60000610352</ele>
        <time>2020-06-08T13:46:26.000Z</time>
      </trkpt>
      <trkpt lat="43.5016" lon="1.45405">
        <ele>205.60000610352</ele>
        <time>2020-06-08T13:46:27.000Z</time>
      </trkpt>
      <trkpt lat="43.50149" lon="1.45404">
        <ele>204.39999389648</ele>
        <time>2020-06-08T13:46:28.000Z</time>
      </trkpt>
      <trkpt lat="43.50139" lon="1.45403">
        <ele>203</ele>
        <time>2020-06-08T13:46:29.000Z</time>
      </trkpt>
      <trkpt lat="43.50129" lon="1.45403">
        <ele>201.80000305176</ele>
        <time>2020-06-08T13:46:30.000Z</time>
      </trkpt>
      <trkpt lat="43.50119" lon="1.45403">
        <ele>200.80000305176</ele>
        <time>2020-06-08T13:46:31.000Z</time>
      </trkpt>
      <trkpt lat="43.5011" lon="1.45404">
        <ele>199.80000305176</ele>
        <time>2020-06-08T13:46:32.000Z</time>
      </trkpt>
      <trkpt lat="43.50101" lon="1.45406">
        <ele>198.80000305176</ele>
        <time>2020-06-08T13:46:33.000Z</time>
      </trkpt>
      <trkpt lat="43.50092" lon="1.45411">
        <ele>196.60000610352</ele>
        <time>2020-06-08T13:46:34.000Z</time>
      </trkpt>
      <trkpt lat="43.50084" lon="1.45419">
        <ele>195.60000610352</ele>
        <time>2020-06-08T13:46:35.000Z</time>
      </trkpt>
      <trkpt lat="43.50076" lon="1.45428">
        <ele>194.60000610352</ele>
        <time>2020-06-08T13:46:36.000Z</time>
      </trkpt>
      <trkpt lat="43.50069" lon="1.45439">
        <ele>194</ele>
        <time>2020-06-08T13:46:37.000Z</time>
      </trkpt>
      <trkpt lat="43.50062" lon="1.4545">
        <ele>193.39999389648</ele>
        <time>2020-06-08T13:46:38.000Z</time>
      </trkpt>
      <trkpt lat="43.50055" lon="1.45461">
        <ele>193</ele>
        <time>2020-06-08T13:46:39.000Z</time>
      </trkpt>
      <trkpt lat="43.50048" lon="1.45473">
        <ele>192.60000610352</ele>
        <time>2020-06-08T13:46:40.000Z</time>
      </trkpt>
      <trkpt lat="43.50034" lon="1.45495">
        <ele>191.60000610352</ele>
        <time>2020-06-08T13:46:42.000Z</time>
      </trkpt>
      <trkpt lat="43.50021" lon="1.45515">
        <ele>190.80000305176</ele>
        <time>2020-06-08T13:46:44.000Z</time>
      </trkpt>
      <trkpt lat="43.50014" lon="1.45524">
        <ele>190.39999389648</ele>
        <time>2020-06-08T13:46:45.000Z</time>
      </trkpt>
      <trkpt lat="43.50006" lon="1.45532">
        <ele>190</ele>
        <time>2020-06-08T13:46:46.000Z</time>
      </trkpt>
      <trkpt lat="43.49997" lon="1.45539">
        <ele>188.80000305176</ele>
        <time>2020-06-08T13:46:47.000Z</time>
      </trkpt>
      <trkpt lat="43.49988" lon="1.45545">
        <ele>187.80000305176</ele>
        <time>2020-06-08T13:46:48.000Z</time>
      </trkpt>
      <trkpt lat="43.49968" lon="1.45551">
        <ele>186.39999389648</ele>
        <time>2020-06-08T13:46:50.000Z</time>
      </trkpt>
      <trkpt lat="43.49948" lon="1.45551">
        <ele>185.80000305176</ele>
        <time>2020-06-08T13:46:52.000Z</time>
      </trkpt>
      <trkpt lat="43.49938" lon="1.4555">
        <ele>185.19999694824</ele>
        <time>2020-06-08T13:46:53.000Z</time>
      </trkpt>
      <trkpt lat="43.4993" lon="1.45548">
        <ele>184.80000305176</ele>
        <time>2020-06-08T13:46:54.000Z</time>
      </trkpt>
      <trkpt lat="43.49914" lon="1.45545">
        <ele>184.19999694824</ele>
        <time>2020-06-08T13:46:56.000Z</time>
      </trkpt>
      <trkpt lat="43.49902" lon="1.45543">
        <ele>184</ele>
        <time>2020-06-08T13:46:58.000Z</time>
      </trkpt>
      <trkpt lat="43.49892" lon="1.45542">
        <ele>183.80000305176</ele>
        <time>2020-06-08T13:47:00.000Z</time>
      </trkpt>
      <trkpt lat="43.49883" lon="1.45542">
        <ele>183.80000305176</ele>
        <time>2020-06-08T13:47:02.000Z</time>
      </trkpt>
      <trkpt lat="43.49879" lon="1.45543">
        <ele>183.80000305176</ele>
        <time>2020-06-08T13:47:03.000Z</time>
      </trkpt>
      <trkpt lat="43.49874" lon="1.45544">
        <ele>183.80000305176</ele>
        <time>2020-06-08T13:47:04.000Z</time>
      </trkpt>
      <trkpt lat="43.49867" lon="1.45548">
        <ele>185</ele>
        <time>2020-06-08T13:47:06.000Z</time>
      </trkpt>
      <trkpt lat="43.49863" lon="1.4555">
        <ele>185.60000610352</ele>
        <time>2020-06-08T13:47:07.000Z</time>
      </trkpt>
      <trkpt lat="43.4986" lon="1.45553">
        <ele>187</ele>
        <time>2020-06-08T13:47:08.000Z</time>
      </trkpt>
      <trkpt lat="43.49854" lon="1.45559">
        <ele>188.19999694824</ele>
        <time>2020-06-08T13:47:10.000Z</time>
      </trkpt>
      <trkpt lat="43.49849" lon="1.45566">
        <ele>188.80000305176</ele>
        <time>2020-06-08T13:47:12.000Z</time>
      </trkpt>
      <trkpt lat="43.49847" lon="1.4557">
        <ele>189.39999389648</ele>
        <time>2020-06-08T13:47:13.000Z</time>
      </trkpt>
      <trkpt lat="43.49845" lon="1.45573">
        <ele>189.80000305176</ele>
        <time>2020-06-08T13:47:14.000Z</time>
      </trkpt>
      <trkpt lat="43.49841" lon="1.45579">
        <ele>190.39999389648</ele>
        <time>2020-06-08T13:47:16.000Z</time>
      </trkpt>
      <trkpt lat="43.49837" lon="1.45586">
        <ele>191.19999694824</ele>
        <time>2020-06-08T13:47:18.000Z</time>
      </trkpt>
      <trkpt lat="43.49835" lon="1.4559">
        <ele>191.39999389648</ele>
        <time>2020-06-08T13:47:19.000Z</time>
      </trkpt>
      <trkpt lat="43.49833" lon="1.45594">
        <ele>191.80000305176</ele>
        <time>2020-06-08T13:47:20.000Z</time>
      </trkpt>
      <trkpt lat="43.4983" lon="1.45601">
        <ele>192.60000610352</ele>
        <time>2020-06-08T13:47:22.000Z</time>
      </trkpt>
      <trkpt lat="43.49828" lon="1.45605">
        <ele>193</ele>
        <time>2020-06-08T13:47:23.000Z</time>
      </trkpt>
      <trkpt lat="43.49826" lon="1.45608">
        <ele>193.19999694824</ele>
        <time>2020-06-08T13:47:24.000Z</time>
      </trkpt>
      <trkpt lat="43.49821" lon="1.45615">
        <ele>193.80000305176</ele>
        <time>2020-06-08T13:47:26.000Z</time>
      </trkpt>
      <trkpt lat="43.49819" lon="1.45619">
        <ele>194</ele>
        <time>2020-06-08T13:47:27.000Z</time>
      </trkpt>
      <trkpt lat="43.49817" lon="1.45622">
        <ele>194.19999694824</ele>
        <time>2020-06-08T13:47:28.000Z</time>
      </trkpt>
      <trkpt lat="43.49814" lon="1.45629">
        <ele>194.60000610352</ele>
        <time>2020-06-08T13:47:30.000Z</time>
      </trkpt>
      <trkpt lat="43.4981" lon="1.45636">
        <ele>194.80000305176</ele>
        <time>2020-06-08T13:47:32.000Z</time>
      </trkpt>
      <trkpt lat="43.49808" lon="1.4564">
        <ele>195</ele>
        <time>2020-06-08T13:47:33.000Z</time>
      </trkpt>
      <trkpt lat="43.49806" lon="1.45644">
        <ele>195</ele>
        <time>2020-06-08T13:47:34.000Z</time>
      </trkpt>
      <trkpt lat="43.49803" lon="1.45651">
        <ele>195.60000610352</ele>
        <time>2020-06-08T13:47:36.000Z</time>
      </trkpt>
      <trkpt lat="43.49799" lon="1.45658">
        <ele>196</ele>
        <time>2020-06-08T13:47:38.000Z</time>
      </trkpt>
      <trkpt lat="43.49796" lon="1.45664">
        <ele>196.19999694824</ele>
        <time>2020-06-08T13:47:40.000Z</time>
      </trkpt>
      <trkpt lat="43.49793" lon="1.4567">
        <ele>196.80000305176</ele>
        <time>2020-06-08T13:47:42.000Z</time>
      </trkpt>
      <trkpt lat="43.49791" lon="1.45673">
        <ele>197.19999694824</ele>
        <time>2020-06-08T13:47:43.000Z</time>
      </trkpt>
      <trkpt lat="43.4979" lon="1.45677">
        <ele>197.19999694824</ele>
        <time>2020-06-08T13:47:44.000Z</time>
      </trkpt>
      <trkpt lat="43.49786" lon="1.45683">
        <ele>197.60000610352</ele>
        <time>2020-06-08T13:47:46.000Z</time>
      </trkpt>
      <trkpt lat="43.49783" lon="1.4569">
        <ele>197.60000610352</ele>
        <time>2020-06-08T13:47:48.000Z</time>
      </trkpt>
      <trkpt lat="43.4978" lon="1.45696">
        <ele>198.19999694824</ele>
        <time>2020-06-08T13:47:50.000Z</time>
      </trkpt>
      <trkpt lat="43.49777" lon="1.45703">
        <ele>198.80000305176</ele>
        <time>2020-06-08T13:47:52.000Z</time>
      </trkpt>
      <trkpt lat="43.49773" lon="1.45709">
        <ele>199</ele>
        <time>2020-06-08T13:47:54.000Z</time>
      </trkpt>
      <trkpt lat="43.4977" lon="1.45715">
        <ele>199.39999389648</ele>
        <time>2020-06-08T13:47:56.000Z</time>
      </trkpt>
      <trkpt lat="43.49767" lon="1.45721">
        <ele>199.60000610352</ele>
        <time>2020-06-08T13:47:58.000Z</time>
      </trkpt>
      <trkpt lat="43.49764" lon="1.45727">
        <ele>200</ele>
        <time>2020-06-08T13:48:00.000Z</time>
      </trkpt>
      <trkpt lat="43.49762" lon="1.4573">
        <ele>200.39999389648</ele>
        <time>2020-06-08T13:48:01.000Z</time>
      </trkpt>
      <trkpt lat="43.49761" lon="1.45733">
        <ele>200.60000610352</ele>
        <time>2020-06-08T13:48:02.000Z</time>
      </trkpt>
      <trkpt lat="43.49757" lon="1.4574">
        <ele>200.80000305176</ele>
        <time>2020-06-08T13:48:04.000Z</time>
      </trkpt>
      <trkpt lat="43.49754" lon="1.45746">
        <ele>201</ele>
        <time>2020-06-08T13:48:06.000Z</time>
      </trkpt>
      <trkpt lat="43.49751" lon="1.45752">
        <ele>201.19999694824</ele>
        <time>2020-06-08T13:48:08.000Z</time>
      </trkpt>
      <trkpt lat="43.49747" lon="1.45759">
        <ele>201.19999694824</ele>
        <time>2020-06-08T13:48:10.000Z</time>
      </trkpt>
      <trkpt lat="43.49744" lon="1.45765">
        <ele>201.39999389648</ele>
        <time>2020-06-08T13:48:12.000Z</time>
      </trkpt>
      <trkpt lat="43.49741" lon="1.45771">
        <ele>201.39999389648</ele>
        <time>2020-06-08T13:48:14.000Z</time>
      </trkpt>
      <trkpt lat="43.49738" lon="1.45776">
        <ele>201.60000610352</ele>
        <time>2020-06-08T13:48:16.000Z</time>
      </trkpt>
      <trkpt lat="43.49735" lon="1.45782">
        <ele>202.19999694824</ele>
        <time>2020-06-08T13:48:18.000Z</time>
      </trkpt>
      <trkpt lat="43.49732" lon="1.45788">
        <ele>202.39999389648</ele>
        <time>2020-06-08T13:48:20.000Z</time>
      </trkpt>
      <trkpt lat="43.49729" lon="1.45794">
        <ele>202.60000610352</ele>
        <time>2020-06-08T13:48:22.000Z</time>
      </trkpt>
      <trkpt lat="43.49725" lon="1.458">
        <ele>202.80000305176</ele>
        <time>2020-06-08T13:48:24.000Z</time>
      </trkpt>
      <trkpt lat="43.49722" lon="1.45806">
        <ele>203</ele>
        <time>2020-06-08T13:48:26.000Z</time>
      </trkpt>
      <trkpt lat="43.49718" lon="1.45812">
        <ele>203.39999389648</ele>
        <time>2020-06-08T13:48:28.000Z</time>
      </trkpt>
      <trkpt lat="43.49715" lon="1.45819">
        <ele>203.39999389648</ele>
        <time>2020-06-08T13:48:30.000Z</time>
      </trkpt>
      <trkpt lat="43.49712" lon="1.45825">
        <ele>203.80000305176</ele>
        <time>2020-06-08T13:48:32.000Z</time>
      </trkpt>
      <trkpt lat="43.49709" lon="1.45831">
        <ele>204</ele>
        <time>2020-06-08T13:48:34.000Z</time>
      </trkpt>
      <trkpt lat="43.49705" lon="1.45838">
        <ele>204.19999694824</ele>
        <time>2020-06-08T13:48:36.000Z</time>
      </trkpt>
      <trkpt lat="43.49702" lon="1.45844">
        <ele>204.39999389648</ele>
        <time>2020-06-08T13:48:38.000Z</time>
      </trkpt>
      <trkpt lat="43.49701" lon="1.45847">
        <ele>204.80000305176</ele>
        <time>2020-06-08T13:48:39.000Z</time>
      </trkpt>
      <trkpt lat="43.49699" lon="1.4585">
        <ele>205</ele>
        <time>2020-06-08T13:48:40.000Z</time>
      </trkpt>
      <trkpt lat="43.49696" lon="1.45856">
        <ele>205.19999694824</ele>
        <time>2020-06-08T13:48:42.000Z</time>
      </trkpt>
      <trkpt lat="43.49692" lon="1.45862">
        <ele>205.39999389648</ele>
        <time>2020-06-08T13:48:44.000Z</time>
      </trkpt>
      <trkpt lat="43.49689" lon="1.45868">
        <ele>205.60000610352</ele>
        <time>2020-06-08T13:48:46.000Z</time>
      </trkpt>
      <trkpt lat="43.49685" lon="1.45874">
        <ele>205.60000610352</ele>
        <time>2020-06-08T13:48:48.000Z</time>
      </trkpt>
      <trkpt lat="43.49683" lon="1.45877">
        <ele>205.80000305176</ele>
        <time>2020-06-08T13:48:49.000Z</time>
      </trkpt>
      <trkpt lat="43.49682" lon="1.4588">
        <ele>205.80000305176</ele>
        <time>2020-06-08T13:48:50.000Z</time>
      </trkpt>
      <trkpt lat="43.49678" lon="1.45886">
        <ele>206.60000610352</ele>
        <time>2020-06-08T13:48:52.000Z</time>
      </trkpt>
      <trkpt lat="43.49675" lon="1.45892">
        <ele>206.80000305176</ele>
        <time>2020-06-08T13:48:54.000Z</time>
      </trkpt>
      <trkpt lat="43.49673" lon="1.45895">
        <ele>206.80000305176</ele>
        <time>2020-06-08T13:48:55.000Z</time>
      </trkpt>
      <trkpt lat="43.49672" lon="1.45898">
        <ele>206.80000305176</ele>
        <time>2020-06-08T13:48:56.000Z</time>
      </trkpt>
      <trkpt lat="43.49668" lon="1.45903">
        <ele>207</ele>
        <time>2020-06-08T13:48:58.000Z</time>
      </trkpt>
      <trkpt lat="43.49665" lon="1.45909">
        <ele>207</ele>
        <time>2020-06-08T13:49:00.000Z</time>
      </trkpt>
      <trkpt lat="43.49663" lon="1.45915">
        <ele>207.39999389648</ele>
        <time>2020-06-08T13:49:02.000Z</time>
      </trkpt>
      <trkpt lat="43.49659" lon="1.45921">
        <ele>207.60000610352</ele>
        <time>2020-06-08T13:49:04.000Z</time>
      </trkpt>
      <trkpt lat="43.49656" lon="1.45927">
        <ele>207.60000610352</ele>
        <time>2020-06-08T13:49:06.000Z</time>
      </trkpt>
      <trkpt lat="43.49654" lon="1.45935">
        <ele>207.80000305176</ele>
        <time>2020-06-08T13:49:08.000Z</time>
      </trkpt>
      <trkpt lat="43.49651" lon="1.45942">
        <ele>208</ele>
        <time>2020-06-08T13:49:10.000Z</time>
      </trkpt>
      <trkpt lat="43.49649" lon="1.4595">
        <ele>208.39999389648</ele>
        <time>2020-06-08T13:49:12.000Z</time>
      </trkpt>
      <trkpt lat="43.49647" lon="1.45957">
        <ele>208.60000610352</ele>
        <time>2020-06-08T13:49:14.000Z</time>
      </trkpt>
      <trkpt lat="43.49645" lon="1.45965">
        <ele>208.80000305176</ele>
        <time>2020-06-08T13:49:16.000Z</time>
      </trkpt>
      <trkpt lat="43.49644" lon="1.45968">
        <ele>208.80000305176</ele>
        <time>2020-06-08T13:49:17.000Z</time>
      </trkpt>
      <trkpt lat="43.49643" lon="1.45972">
        <ele>208.80000305176</ele>
        <time>2020-06-08T13:49:18.000Z</time>
      </trkpt>
      <trkpt lat="43.49641" lon="1.45979">
        <ele>209</ele>
        <time>2020-06-08T13:49:20.000Z</time>
      </trkpt>
      <trkpt lat="43.49639" lon="1.45986">
        <ele>209.19999694824</ele>
        <time>2020-06-08T13:49:22.000Z</time>
      </trkpt>
      <trkpt lat="43.49637" lon="1.45992">
        <ele>209.60000610352</ele>
        <time>2020-06-08T13:49:24.000Z</time>
      </trkpt>
      <trkpt lat="43.49634" lon="1.45999">
        <ele>209.80000305176</ele>
        <time>2020-06-08T13:49:26.000Z</time>
      </trkpt>
      <trkpt lat="43.49632" lon="1.46007">
        <ele>210.19999694824</ele>
        <time>2020-06-08T13:49:28.000Z</time>
      </trkpt>
      <trkpt lat="43.49629" lon="1.46014">
        <ele>210.39999389648</ele>
        <time>2020-06-08T13:49:30.000Z</time>
      </trkpt>
      <trkpt lat="43.49625" lon="1.4602">
        <ele>210.60000610352</ele>
        <time>2020-06-08T13:49:32.000Z</time>
      </trkpt>
      <trkpt lat="43.49621" lon="1.46025">
        <ele>210.80000305176</ele>
        <time>2020-06-08T13:49:34.000Z</time>
      </trkpt>
      <trkpt lat="43.49616" lon="1.46029">
        <ele>211</ele>
        <time>2020-06-08T13:49:36.000Z</time>
      </trkpt>
      <trkpt lat="43.49612" lon="1.46032">
        <ele>211.19999694824</ele>
        <time>2020-06-08T13:49:38.000Z</time>
      </trkpt>
      <trkpt lat="43.49607" lon="1.46034">
        <ele>211.39999389648</ele>
        <time>2020-06-08T13:49:40.000Z</time>
      </trkpt>
      <trkpt lat="43.49603" lon="1.46036">
        <ele>211.60000610352</ele>
        <time>2020-06-08T13:49:42.000Z</time>
      </trkpt>
      <trkpt lat="43.49599" lon="1.46036">
        <ele>211.80000305176</ele>
        <time>2020-06-08T13:49:44.000Z</time>
      </trkpt>
      <trkpt lat="43.49597" lon="1.46036">
        <ele>212</ele>
        <time>2020-06-08T13:49:45.000Z</time>
      </trkpt>
      <trkpt lat="43.49596" lon="1.46037">
        <ele>212.19999694824</ele>
        <time>2020-06-08T13:49:46.000Z</time>
      </trkpt>
      <trkpt lat="43.49592" lon="1.46036">
        <ele>212.39999389648</ele>
        <time>2020-06-08T13:49:48.000Z</time>
      </trkpt>
      <trkpt lat="43.49588" lon="1.46037">
        <ele>212.80000305176</ele>
        <time>2020-06-08T13:49:50.000Z</time>
      </trkpt>
      <trkpt lat="43.49585" lon="1.46038">
        <ele>213.19999694824</ele>
        <time>2020-06-08T13:49:52.000Z</time>
      </trkpt>
      <trkpt lat="43.4958" lon="1.46039">
        <ele>213.39999389648</ele>
        <time>2020-06-08T13:49:54.000Z</time>
      </trkpt>
      <trkpt lat="43.49576" lon="1.4604">
        <ele>214</ele>
        <time>2020-06-08T13:49:56.000Z</time>
      </trkpt>
      <trkpt lat="43.49574" lon="1.46039">
        <ele>214.19999694824</ele>
        <time>2020-06-08T13:49:57.000Z</time>
      </trkpt>
      <trkpt lat="43.49572" lon="1.46039">
        <ele>214.39999389648</ele>
        <time>2020-06-08T13:49:58.000Z</time>
      </trkpt>
      <trkpt lat="43.49569" lon="1.46039">
        <ele>214.60000610352</ele>
        <time>2020-06-08T13:49:59.000Z</time>
      </trkpt>
      <trkpt lat="43.49567" lon="1.4604">
        <ele>215</ele>
        <time>2020-06-08T13:50:00.000Z</time>
      </trkpt>
      <trkpt lat="43.49563" lon="1.46041">
        <ele>215.19999694824</ele>
        <time>2020-06-08T13:50:02.000Z</time>
      </trkpt>
      <trkpt lat="43.49559" lon="1.46042">
        <ele>215.39999389648</ele>
        <time>2020-06-08T13:50:04.000Z</time>
      </trkpt>
      <trkpt lat="43.49557" lon="1.46043">
        <ele>215.39999389648</ele>
        <time>2020-06-08T13:50:05.000Z</time>
      </trkpt>
      <trkpt lat="43.49555" lon="1.46044">
        <ele>215.60000610352</ele>
        <time>2020-06-08T13:50:06.000Z</time>
      </trkpt>
      <trkpt lat="43.49551" lon="1.46046">
        <ele>215.80000305176</ele>
        <time>2020-06-08T13:50:08.000Z</time>
      </trkpt>
      <trkpt lat="43.49548" lon="1.4605">
        <ele>216.19999694824</ele>
        <time>2020-06-08T13:50:10.000Z</time>
      </trkpt>
      <trkpt lat="43.49544" lon="1.46053">
        <ele>216.60000610352</ele>
        <time>2020-06-08T13:50:12.000Z</time>
      </trkpt>
      <trkpt lat="43.4954" lon="1.46056">
        <ele>217</ele>
        <time>2020-06-08T13:50:14.000Z</time>
      </trkpt>
      <trkpt lat="43.49536" lon="1.4606">
        <ele>217.39999389648</ele>
        <time>2020-06-08T13:50:16.000Z</time>
      </trkpt>
      <trkpt lat="43.49534" lon="1.46062">
        <ele>217.60000610352</ele>
        <time>2020-06-08T13:50:17.000Z</time>
      </trkpt>
      <trkpt lat="43.49532" lon="1.46064">
        <ele>217.80000305176</ele>
        <time>2020-06-08T13:50:18.000Z</time>
      </trkpt>
      <trkpt lat="43.49528" lon="1.46068">
        <ele>218.19999694824</ele>
        <time>2020-06-08T13:50:20.000Z</time>
      </trkpt>
      <trkpt lat="43.49524" lon="1.46071">
        <ele>218.39999389648</ele>
        <time>2020-06-08T13:50:22.000Z</time>
      </trkpt>
      <trkpt lat="43.4952" lon="1.46076">
        <ele>218.80000305176</ele>
        <time>2020-06-08T13:50:24.000Z</time>
      </trkpt>
      <trkpt lat="43.49516" lon="1.46082">
        <ele>219</ele>
        <time>2020-06-08T13:50:26.000Z</time>
      </trkpt>
      <trkpt lat="43.49512" lon="1.46087">
        <ele>219.19999694824</ele>
        <time>2020-06-08T13:50:28.000Z</time>
      </trkpt>
      <trkpt lat="43.49509" lon="1.46092">
        <ele>219.39999389648</ele>
        <time>2020-06-08T13:50:30.000Z</time>
      </trkpt>
      <trkpt lat="43.49505" lon="1.46097">
        <ele>219.60000610352</ele>
        <time>2020-06-08T13:50:32.000Z</time>
      </trkpt>
      <trkpt lat="43.49501" lon="1.46102">
        <ele>219.80000305176</ele>
        <time>2020-06-08T13:50:34.000Z</time>
      </trkpt>
      <trkpt lat="43.495" lon="1.46104">
        <ele>220</ele>
        <time>2020-06-08T13:50:35.000Z</time>
      </trkpt>
      <trkpt lat="43.49498" lon="1.46106">
        <ele>220.19999694824</ele>
        <time>2020-06-08T13:50:36.000Z</time>
      </trkpt>
      <trkpt lat="43.49495" lon="1.46111">
        <ele>217.19999694824</ele>
        <time>2020-06-08T13:50:38.000Z</time>
      </trkpt>
      <trkpt lat="43.49491" lon="1.46117">
        <ele>220.60000610352</ele>
        <time>2020-06-08T13:50:40.000Z</time>
      </trkpt>
      <trkpt lat="43.49488" lon="1.46124">
        <ele>220.80000305176</ele>
        <time>2020-06-08T13:50:42.000Z</time>
      </trkpt>
      <trkpt lat="43.49487" lon="1.46128">
        <ele>221</ele>
        <time>2020-06-08T13:50:43.000Z</time>
      </trkpt>
      <trkpt lat="43.49486" lon="1.46132">
        <ele>221</ele>
        <time>2020-06-08T13:50:44.000Z</time>
      </trkpt>
      <trkpt lat="43.49484" lon="1.46139">
        <ele>221.19999694824</ele>
        <time>2020-06-08T13:50:46.000Z</time>
      </trkpt>
      <trkpt lat="43.49482" lon="1.46146">
        <ele>221.39999389648</ele>
        <time>2020-06-08T13:50:48.000Z</time>
      </trkpt>
      <trkpt lat="43.4948" lon="1.46154">
        <ele>221.60000610352</ele>
        <time>2020-06-08T13:50:50.000Z</time>
      </trkpt>
      <trkpt lat="43.49478" lon="1.46163">
        <ele>221.80000305176</ele>
        <time>2020-06-08T13:50:52.000Z</time>
      </trkpt>
      <trkpt lat="43.49476" lon="1.4617">
        <ele>222</ele>
        <time>2020-06-08T13:50:54.000Z</time>
      </trkpt>
      <trkpt lat="43.49474" lon="1.46178">
        <ele>222</ele>
        <time>2020-06-08T13:50:56.000Z</time>
      </trkpt>
      <trkpt lat="43.49472" lon="1.46187">
        <ele>222.19999694824</ele>
        <time>2020-06-08T13:50:58.000Z</time>
      </trkpt>
      <trkpt lat="43.4947" lon="1.46196">
        <ele>222.19999694824</ele>
        <time>2020-06-08T13:51:00.000Z</time>
      </trkpt>
      <trkpt lat="43.49469" lon="1.46204">
        <ele>222.39999389648</ele>
        <time>2020-06-08T13:51:02.000Z</time>
      </trkpt>
      <trkpt lat="43.49467" lon="1.46213">
        <ele>222.80000305176</ele>
        <time>2020-06-08T13:51:04.000Z</time>
      </trkpt>
      <trkpt lat="43.49466" lon="1.46222">
        <ele>223.19999694824</ele>
        <time>2020-06-08T13:51:06.000Z</time>
      </trkpt>
      <trkpt lat="43.49465" lon="1.46231">
        <ele>223.39999389648</ele>
        <time>2020-06-08T13:51:08.000Z</time>
      </trkpt>
      <trkpt lat="43.49464" lon="1.46235">
        <ele>223.60000610352</ele>
        <time>2020-06-08T13:51:09.000Z</time>
      </trkpt>
      <trkpt lat="43.49463" lon="1.46239">
        <ele>223.60000610352</ele>
        <time>2020-06-08T13:51:10.000Z</time>
      </trkpt>
      <trkpt lat="43.49462" lon="1.46247">
        <ele>223.80000305176</ele>
        <time>2020-06-08T13:51:12.000Z</time>
      </trkpt>
      <trkpt lat="43.49461" lon="1.46255">
        <ele>224</ele>
        <time>2020-06-08T13:51:14.000Z</time>
      </trkpt>
      <trkpt lat="43.49459" lon="1.46262">
        <ele>224.39999389648</ele>
        <time>2020-06-08T13:51:16.000Z</time>
      </trkpt>
      <trkpt lat="43.49458" lon="1.46266">
        <ele>224.60000610352</ele>
        <time>2020-06-08T13:51:17.000Z</time>
      </trkpt>
      <trkpt lat="43.49457" lon="1.4627">
        <ele>224.80000305176</ele>
        <time>2020-06-08T13:51:18.000Z</time>
      </trkpt>
      <trkpt lat="43.49455" lon="1.46277">
        <ele>225.19999694824</ele>
        <time>2020-06-08T13:51:20.000Z</time>
      </trkpt>
      <trkpt lat="43.49454" lon="1.46285">
        <ele>225.39999389648</ele>
        <time>2020-06-08T13:51:22.000Z</time>
      </trkpt>
      <trkpt lat="43.49453" lon="1.46289">
        <ele>225.60000610352</ele>
        <time>2020-06-08T13:51:23.000Z</time>
      </trkpt>
      <trkpt lat="43.49452" lon="1.46292">
        <ele>225.60000610352</ele>
        <time>2020-06-08T13:51:24.000Z</time>
      </trkpt>
      <trkpt lat="43.49451" lon="1.46299">
        <ele>225.80000305176</ele>
        <time>2020-06-08T13:51:26.000Z</time>
      </trkpt>
      <trkpt lat="43.4945" lon="1.46306">
        <ele>226.19999694824</ele>
        <time>2020-06-08T13:51:28.000Z</time>
      </trkpt>
      <trkpt lat="43.49448" lon="1.46315">
        <ele>226.80000305176</ele>
        <time>2020-06-08T13:51:30.000Z</time>
      </trkpt>
      <trkpt lat="43.49447" lon="1.46322">
        <ele>227</ele>
        <time>2020-06-08T13:51:32.000Z</time>
      </trkpt>
      <trkpt lat="43.49444" lon="1.4633">
        <ele>227.19999694824</ele>
        <time>2020-06-08T13:51:34.000Z</time>
      </trkpt>
      <trkpt lat="43.49442" lon="1.46338">
        <ele>227.60000610352</ele>
        <time>2020-06-08T13:51:36.000Z</time>
      </trkpt>
      <trkpt lat="43.49441" lon="1.46342">
        <ele>227.80000305176</ele>
        <time>2020-06-08T13:51:37.000Z</time>
      </trkpt>
      <trkpt lat="43.49439" lon="1.46346">
        <ele>227.80000305176</ele>
        <time>2020-06-08T13:51:38.000Z</time>
      </trkpt>
      <trkpt lat="43.49436" lon="1.46353">
        <ele>228.19999694824</ele>
        <time>2020-06-08T13:51:40.000Z</time>
      </trkpt>
      <trkpt lat="43.49432" lon="1.4636">
        <ele>228.39999389648</ele>
        <time>2020-06-08T13:51:42.000Z</time>
      </trkpt>
      <trkpt lat="43.49427" lon="1.46367">
        <ele>228.60000610352</ele>
        <time>2020-06-08T13:51:44.000Z</time>
      </trkpt>
      <trkpt lat="43.49425" lon="1.4637">
        <ele>228.80000305176</ele>
        <time>2020-06-08T13:51:45.000Z</time>
      </trkpt>
      <trkpt lat="43.49423" lon="1.46373">
        <ele>229.19999694824</ele>
        <time>2020-06-08T13:51:46.000Z</time>
      </trkpt>
      <trkpt lat="43.49418" lon="1.46378">
        <ele>229.39999389648</ele>
        <time>2020-06-08T13:51:48.000Z</time>
      </trkpt>
      <trkpt lat="43.49413" lon="1.46383">
        <ele>229.60000610352</ele>
        <time>2020-06-08T13:51:50.000Z</time>
      </trkpt>
      <trkpt lat="43.49408" lon="1.46388">
        <ele>229.60000610352</ele>
        <time>2020-06-08T13:51:52.000Z</time>
      </trkpt>
      <trkpt lat="43.49403" lon="1.46394">
        <ele>229.80000305176</ele>
        <time>2020-06-08T13:51:54.000Z</time>
      </trkpt>
      <trkpt lat="43.49398" lon="1.464">
        <ele>230</ele>
        <time>2020-06-08T13:51:56.000Z</time>
      </trkpt>
      <trkpt lat="43.49394" lon="1.46406">
        <ele>230.19999694824</ele>
        <time>2020-06-08T13:51:58.000Z</time>
      </trkpt>
      <trkpt lat="43.4939" lon="1.46412">
        <ele>230.19999694824</ele>
        <time>2020-06-08T13:52:00.000Z</time>
      </trkpt>
      <trkpt lat="43.49386" lon="1.46418">
        <ele>230.39999389648</ele>
        <time>2020-06-08T13:52:02.000Z</time>
      </trkpt>
      <trkpt lat="43.49382" lon="1.46425">
        <ele>230.80000305176</ele>
        <time>2020-06-08T13:52:04.000Z</time>
      </trkpt>
      <trkpt lat="43.49381" lon="1.46428">
        <ele>231</ele>
        <time>2020-06-08T13:52:05.000Z</time>
      </trkpt>
      <trkpt lat="43.49379" lon="1.46431">
        <ele>231.19999694824</ele>
        <time>2020-06-08T13:52:06.000Z</time>
      </trkpt>
      <trkpt lat="43.49376" lon="1.46438">
        <ele>231.60000610352</ele>
        <time>2020-06-08T13:52:08.000Z</time>
      </trkpt>
      <trkpt lat="43.49372" lon="1.46444">
        <ele>231.80000305176</ele>
        <time>2020-06-08T13:52:10.000Z</time>
      </trkpt>
      <trkpt lat="43.49369" lon="1.46451">
        <ele>232</ele>
        <time>2020-06-08T13:52:12.000Z</time>
      </trkpt>
      <trkpt lat="43.49366" lon="1.46458">
        <ele>232.19999694824</ele>
        <time>2020-06-08T13:52:14.000Z</time>
      </trkpt>
      <trkpt lat="43.49362" lon="1.46465">
        <ele>232.60000610352</ele>
        <time>2020-06-08T13:52:16.000Z</time>
      </trkpt>
      <trkpt lat="43.49361" lon="1.46468">
        <ele>232.39999389648</ele>
        <time>2020-06-08T13:52:17.000Z</time>
      </trkpt>
      <trkpt lat="43.49359" lon="1.46471">
        <ele>232.60000610352</ele>
        <time>2020-06-08T13:52:18.000Z</time>
      </trkpt>
      <trkpt lat="43.49356" lon="1.46478">
        <ele>233</ele>
        <time>2020-06-08T13:52:20.000Z</time>
      </trkpt>
      <trkpt lat="43.49355" lon="1.46481">
        <ele>233.19999694824</ele>
        <time>2020-06-08T13:52:21.000Z</time>
      </trkpt>
      <trkpt lat="43.49353" lon="1.46484">
        <ele>233.60000610352</ele>
        <time>2020-06-08T13:52:22.000Z</time>
      </trkpt>
      <trkpt lat="43.4935" lon="1.4649">
        <ele>233.80000305176</ele>
        <time>2020-06-08T13:52:24.000Z</time>
      </trkpt>
      <trkpt lat="43.49347" lon="1.46497">
        <ele>234</ele>
        <time>2020-06-08T13:52:26.000Z</time>
      </trkpt>
      <trkpt lat="43.49344" lon="1.46503">
        <ele>234.39999389648</ele>
        <time>2020-06-08T13:52:28.000Z</time>
      </trkpt>
      <trkpt lat="43.49343" lon="1.46506">
        <ele>234.39999389648</ele>
        <time>2020-06-08T13:52:29.000Z</time>
      </trkpt>
      <trkpt lat="43.49341" lon="1.46509">
        <ele>234.80000305176</ele>
        <time>2020-06-08T13:52:30.000Z</time>
      </trkpt>
      <trkpt lat="43.49338" lon="1.46516">
        <ele>235.19999694824</ele>
        <time>2020-06-08T13:52:32.000Z</time>
      </trkpt>
      <trkpt lat="43.49336" lon="1.46521">
        <ele>235.39999389648</ele>
        <time>2020-06-08T13:52:34.000Z</time>
      </trkpt>
      <trkpt lat="43.49334" lon="1.46524">
        <ele>235.60000610352</ele>
        <time>2020-06-08T13:52:35.000Z</time>
      </trkpt>
      <trkpt lat="43.49333" lon="1.46527">
        <ele>235.60000610352</ele>
        <time>2020-06-08T13:52:36.000Z</time>
      </trkpt>
      <trkpt lat="43.4933" lon="1.46534">
        <ele>235.60000610352</ele>
        <time>2020-06-08T13:52:38.000Z</time>
      </trkpt>
      <trkpt lat="43.49327" lon="1.4654">
        <ele>235.80000305176</ele>
        <time>2020-06-08T13:52:40.000Z</time>
      </trkpt>
      <trkpt lat="43.49324" lon="1.46547">
        <ele>236.19999694824</ele>
        <time>2020-06-08T13:52:42.000Z</time>
      </trkpt>
      <trkpt lat="43.49321" lon="1.46553">
        <ele>236.60000610352</ele>
        <time>2020-06-08T13:52:44.000Z</time>
      </trkpt>
      <trkpt lat="43.49318" lon="1.4656">
        <ele>236.80000305176</ele>
        <time>2020-06-08T13:52:46.000Z</time>
      </trkpt>
      <trkpt lat="43.49315" lon="1.46566">
        <ele>237.19999694824</ele>
        <time>2020-06-08T13:52:48.000Z</time>
      </trkpt>
      <trkpt lat="43.49312" lon="1.46572">
        <ele>237.19999694824</ele>
        <time>2020-06-08T13:52:50.000Z</time>
      </trkpt>
      <trkpt lat="43.49309" lon="1.46579">
        <ele>237.39999389648</ele>
        <time>2020-06-08T13:52:52.000Z</time>
      </trkpt>
      <trkpt lat="43.49306" lon="1.46585">
        <ele>238</ele>
        <time>2020-06-08T13:52:54.000Z</time>
      </trkpt>
      <trkpt lat="43.49303" lon="1.46592">
        <ele>238.39999389648</ele>
        <time>2020-06-08T13:52:56.000Z</time>
      </trkpt>
      <trkpt lat="43.493" lon="1.46598">
        <ele>239</ele>
        <time>2020-06-08T13:52:58.000Z</time>
      </trkpt>
      <trkpt lat="43.49298" lon="1.46601">
        <ele>239</ele>
        <time>2020-06-08T13:52:59.000Z</time>
      </trkpt>
      <trkpt lat="43.49297" lon="1.46604">
        <ele>239</ele>
        <time>2020-06-08T13:53:00.000Z</time>
      </trkpt>
      <trkpt lat="43.49294" lon="1.4661">
        <ele>239.39999389648</ele>
        <time>2020-06-08T13:53:02.000Z</time>
      </trkpt>
      <trkpt lat="43.49291" lon="1.46617">
        <ele>239.80000305176</ele>
        <time>2020-06-08T13:53:04.000Z</time>
      </trkpt>
      <trkpt lat="43.49287" lon="1.46623">
        <ele>240</ele>
        <time>2020-06-08T13:53:06.000Z</time>
      </trkpt>
      <trkpt lat="43.49284" lon="1.4663">
        <ele>240</ele>
        <time>2020-06-08T13:53:08.000Z</time>
      </trkpt>
      <trkpt lat="43.49281" lon="1.46636">
        <ele>240.19999694824</ele>
        <time>2020-06-08T13:53:10.000Z</time>
      </trkpt>
      <trkpt lat="43.49278" lon="1.46642">
        <ele>240.60000610352</ele>
        <time>2020-06-08T13:53:12.000Z</time>
      </trkpt>
      <trkpt lat="43.49275" lon="1.46649">
        <ele>240.80000305176</ele>
        <time>2020-06-08T13:53:14.000Z</time>
      </trkpt>
      <trkpt lat="43.49271" lon="1.46656">
        <ele>241</ele>
        <time>2020-06-08T13:53:16.000Z</time>
      </trkpt>
      <trkpt lat="43.49268" lon="1.46663">
        <ele>241.19999694824</ele>
        <time>2020-06-08T13:53:18.000Z</time>
      </trkpt>
      <trkpt lat="43.49265" lon="1.46669">
        <ele>241.39999389648</ele>
        <time>2020-06-08T13:53:20.000Z</time>
      </trkpt>
      <trkpt lat="43.49262" lon="1.46676">
        <ele>241.60000610352</ele>
        <time>2020-06-08T13:53:22.000Z</time>
      </trkpt>
      <trkpt lat="43.49259" lon="1.46683">
        <ele>241.80000305176</ele>
        <time>2020-06-08T13:53:24.000Z</time>
      </trkpt>
      <trkpt lat="43.49255" lon="1.4669">
        <ele>242</ele>
        <time>2020-06-08T13:53:26.000Z</time>
      </trkpt>
      <trkpt lat="43.49252" lon="1.46696">
        <ele>242</ele>
        <time>2020-06-08T13:53:28.000Z</time>
      </trkpt>
      <trkpt lat="43.4925" lon="1.46699">
        <ele>242.19999694824</ele>
        <time>2020-06-08T13:53:29.000Z</time>
      </trkpt>
      <trkpt lat="43.49249" lon="1.46702">
        <ele>242.60000610352</ele>
        <time>2020-06-08T13:53:30.000Z</time>
      </trkpt>
      <trkpt lat="43.49246" lon="1.46709">
        <ele>243</ele>
        <time>2020-06-08T13:53:32.000Z</time>
      </trkpt>
      <trkpt lat="43.49242" lon="1.46716">
        <ele>243.19999694824</ele>
        <time>2020-06-08T13:53:34.000Z</time>
      </trkpt>
      <trkpt lat="43.49239" lon="1.46722">
        <ele>243.39999389648</ele>
        <time>2020-06-08T13:53:36.000Z</time>
      </trkpt>
      <trkpt lat="43.49236" lon="1.46729">
        <ele>243.60000610352</ele>
        <time>2020-06-08T13:53:38.000Z</time>
      </trkpt>
      <trkpt lat="43.49232" lon="1.46736">
        <ele>243.80000305176</ele>
        <time>2020-06-08T13:53:40.000Z</time>
      </trkpt>
      <trkpt lat="43.49229" lon="1.46743">
        <ele>244</ele>
        <time>2020-06-08T13:53:42.000Z</time>
      </trkpt>
      <trkpt lat="43.49226" lon="1.46751">
        <ele>244.60000610352</ele>
        <time>2020-06-08T13:53:44.000Z</time>
      </trkpt>
      <trkpt lat="43.49222" lon="1.46758">
        <ele>245</ele>
        <time>2020-06-08T13:53:46.000Z</time>
      </trkpt>
      <trkpt lat="43.49219" lon="1.46765">
        <ele>245.39999389648</ele>
        <time>2020-06-08T13:53:48.000Z</time>
      </trkpt>
      <trkpt lat="43.49217" lon="1.46768">
        <ele>245.60000610352</ele>
        <time>2020-06-08T13:53:49.000Z</time>
      </trkpt>
      <trkpt lat="43.49215" lon="1.46771">
        <ele>245.60000610352</ele>
        <time>2020-06-08T13:53:50.000Z</time>
      </trkpt>
      <trkpt lat="43.49212" lon="1.46778">
        <ele>245.80000305176</ele>
        <time>2020-06-08T13:53:52.000Z</time>
      </trkpt>
      <trkpt lat="43.49208" lon="1.46785">
        <ele>246.19999694824</ele>
        <time>2020-06-08T13:53:54.000Z</time>
      </trkpt>
      <trkpt lat="43.49204" lon="1.46791">
        <ele>246.39999389648</ele>
        <time>2020-06-08T13:53:56.000Z</time>
      </trkpt>
      <trkpt lat="43.492" lon="1.46797">
        <ele>246.60000610352</ele>
        <time>2020-06-08T13:53:58.000Z</time>
      </trkpt>
      <trkpt lat="43.49197" lon="1.468">
        <ele>246.60000610352</ele>
        <time>2020-06-08T13:53:59.000Z</time>
      </trkpt>
      <trkpt lat="43.49195" lon="1.46804">
        <ele>246.60000610352</ele>
        <time>2020-06-08T13:54:00.000Z</time>
      </trkpt>
      <trkpt lat="43.49191" lon="1.4681">
        <ele>246.80000305176</ele>
        <time>2020-06-08T13:54:02.000Z</time>
      </trkpt>
      <trkpt lat="43.49187" lon="1.46816">
        <ele>247</ele>
        <time>2020-06-08T13:54:04.000Z</time>
      </trkpt>
      <trkpt lat="43.49182" lon="1.46822">
        <ele>247.19999694824</ele>
        <time>2020-06-08T13:54:06.000Z</time>
      </trkpt>
      <trkpt lat="43.49178" lon="1.46829">
        <ele>247.39999389648</ele>
        <time>2020-06-08T13:54:08.000Z</time>
      </trkpt>
      <trkpt lat="43.49173" lon="1.46835">
        <ele>247.39999389648</ele>
        <time>2020-06-08T13:54:10.000Z</time>
      </trkpt>
      <trkpt lat="43.49168" lon="1.46841">
        <ele>247.60000610352</ele>
        <time>2020-06-08T13:54:12.000Z</time>
      </trkpt>
      <trkpt lat="43.49166" lon="1.46844">
        <ele>247.60000610352</ele>
        <time>2020-06-08T13:54:13.000Z</time>
      </trkpt>
      <trkpt lat="43.49164" lon="1.46847">
        <ele>247.60000610352</ele>
        <time>2020-06-08T13:54:14.000Z</time>
      </trkpt>
      <trkpt lat="43.4916" lon="1.46853">
        <ele>247.60000610352</ele>
        <time>2020-06-08T13:54:16.000Z</time>
      </trkpt>
      <trkpt lat="43.49155" lon="1.46859">
        <ele>247.80000305176</ele>
        <time>2020-06-08T13:54:18.000Z</time>
      </trkpt>
      <trkpt lat="43.49151" lon="1.46865">
        <ele>248</ele>
        <time>2020-06-08T13:54:20.000Z</time>
      </trkpt>
      <trkpt lat="43.49147" lon="1.46871">
        <ele>248.19999694824</ele>
        <time>2020-06-08T13:54:22.000Z</time>
      </trkpt>
      <trkpt lat="43.49143" lon="1.46877">
        <ele>248.19999694824</ele>
        <time>2020-06-08T13:54:24.000Z</time>
      </trkpt>
      <trkpt lat="43.49139" lon="1.46882">
        <ele>248.39999389648</ele>
        <time>2020-06-08T13:54:26.000Z</time>
      </trkpt>
      <trkpt lat="43.49135" lon="1.46888">
        <ele>248.39999389648</ele>
        <time>2020-06-08T13:54:28.000Z</time>
      </trkpt>
      <trkpt lat="43.49131" lon="1.46894">
        <ele>248.60000610352</ele>
        <time>2020-06-08T13:54:30.000Z</time>
      </trkpt>
      <trkpt lat="43.49129" lon="1.46896">
        <ele>248.60000610352</ele>
        <time>2020-06-08T13:54:31.000Z</time>
      </trkpt>
      <trkpt lat="43.49127" lon="1.46899">
        <ele>248.80000305176</ele>
        <time>2020-06-08T13:54:32.000Z</time>
      </trkpt>
      <trkpt lat="43.49123" lon="1.46905">
        <ele>249.19999694824</ele>
        <time>2020-06-08T13:54:34.000Z</time>
      </trkpt>
      <trkpt lat="43.49119" lon="1.46911">
        <ele>249.19999694824</ele>
        <time>2020-06-08T13:54:36.000Z</time>
      </trkpt>
      <trkpt lat="43.49115" lon="1.46916">
        <ele>249.39999389648</ele>
        <time>2020-06-08T13:54:38.000Z</time>
      </trkpt>
      <trkpt lat="43.49112" lon="1.46922">
        <ele>249.80000305176</ele>
        <time>2020-06-08T13:54:40.000Z</time>
      </trkpt>
      <trkpt lat="43.4911" lon="1.46925">
        <ele>250</ele>
        <time>2020-06-08T13:54:41.000Z</time>
      </trkpt>
      <trkpt lat="43.49108" lon="1.46928">
        <ele>249.80000305176</ele>
        <time>2020-06-08T13:54:42.000Z</time>
      </trkpt>
      <trkpt lat="43.49105" lon="1.46934">
        <ele>250.39999389648</ele>
        <time>2020-06-08T13:54:44.000Z</time>
      </trkpt>
      <trkpt lat="43.49101" lon="1.4694">
        <ele>250.60000610352</ele>
        <time>2020-06-08T13:54:46.000Z</time>
      </trkpt>
      <trkpt lat="43.49098" lon="1.46946">
        <ele>250.80000305176</ele>
        <time>2020-06-08T13:54:48.000Z</time>
      </trkpt>
      <trkpt lat="43.49094" lon="1.46952">
        <ele>251</ele>
        <time>2020-06-08T13:54:50.000Z</time>
      </trkpt>
      <trkpt lat="43.49091" lon="1.46959">
        <ele>251.60000610352</ele>
        <time>2020-06-08T13:54:52.000Z</time>
      </trkpt>
      <trkpt lat="43.49088" lon="1.46966">
        <ele>252</ele>
        <time>2020-06-08T13:54:54.000Z</time>
      </trkpt>
      <trkpt lat="43.49087" lon="1.46969">
        <ele>252</ele>
        <time>2020-06-08T13:54:55.000Z</time>
      </trkpt>
      <trkpt lat="43.49085" lon="1.46972">
        <ele>252.19999694824</ele>
        <time>2020-06-08T13:54:56.000Z</time>
      </trkpt>
      <trkpt lat="43.49082" lon="1.46978">
        <ele>252.39999389648</ele>
        <time>2020-06-08T13:54:58.000Z</time>
      </trkpt>
      <trkpt lat="43.49079" lon="1.46985">
        <ele>252.60000610352</ele>
        <time>2020-06-08T13:55:00.000Z</time>
      </trkpt>
      <trkpt lat="43.49076" lon="1.46992">
        <ele>252.80000305176</ele>
        <time>2020-06-08T13:55:02.000Z</time>
      </trkpt>
      <trkpt lat="43.49073" lon="1.46999">
        <ele>252.80000305176</ele>
        <time>2020-06-08T13:55:04.000Z</time>
      </trkpt>
      <trkpt lat="43.4907" lon="1.47006">
        <ele>253</ele>
        <time>2020-06-08T13:55:06.000Z</time>
      </trkpt>
      <trkpt lat="43.49069" lon="1.4701">
        <ele>253.19999694824</ele>
        <time>2020-06-08T13:55:07.000Z</time>
      </trkpt>
      <trkpt lat="43.49067" lon="1.47014">
        <ele>253.19999694824</ele>
        <time>2020-06-08T13:55:08.000Z</time>
      </trkpt>
      <trkpt lat="43.49064" lon="1.47021">
        <ele>253.39999389648</ele>
        <time>2020-06-08T13:55:10.000Z</time>
      </trkpt>
      <trkpt lat="43.49061" lon="1.47028">
        <ele>253.80000305176</ele>
        <time>2020-06-08T13:55:12.000Z</time>
      </trkpt>
      <trkpt lat="43.49058" lon="1.47036">
        <ele>254.19999694824</ele>
        <time>2020-06-08T13:55:14.000Z</time>
      </trkpt>
      <trkpt lat="43.49055" lon="1.47043">
        <ele>254.19999694824</ele>
        <time>2020-06-08T13:55:16.000Z</time>
      </trkpt>
      <trkpt lat="43.49052" lon="1.47051">
        <ele>254.39999389648</ele>
        <time>2020-06-08T13:55:18.000Z</time>
      </trkpt>
      <trkpt lat="43.49049" lon="1.4706">
        <ele>254.60000610352</ele>
        <time>2020-06-08T13:55:20.000Z</time>
      </trkpt>
      <trkpt lat="43.49045" lon="1.47068">
        <ele>254.80000305176</ele>
        <time>2020-06-08T13:55:22.000Z</time>
      </trkpt>
      <trkpt lat="43.49042" lon="1.47076">
        <ele>254.80000305176</ele>
        <time>2020-06-08T13:55:24.000Z</time>
      </trkpt>
      <trkpt lat="43.49039" lon="1.47084">
        <ele>255</ele>
        <time>2020-06-08T13:55:26.000Z</time>
      </trkpt>
      <trkpt lat="43.49035" lon="1.47092">
        <ele>255</ele>
        <time>2020-06-08T13:55:28.000Z</time>
      </trkpt>
      <trkpt lat="43.49031" lon="1.471">
        <ele>255</ele>
        <time>2020-06-08T13:55:30.000Z</time>
      </trkpt>
      <trkpt lat="43.49028" lon="1.47108">
        <ele>255</ele>
        <time>2020-06-08T13:55:32.000Z</time>
      </trkpt>
      <trkpt lat="43.49024" lon="1.47117">
        <ele>255</ele>
        <time>2020-06-08T13:55:34.000Z</time>
      </trkpt>
      <trkpt lat="43.4902" lon="1.47125">
        <ele>255</ele>
        <time>2020-06-08T13:55:36.000Z</time>
      </trkpt>
      <trkpt lat="43.49015" lon="1.47133">
        <ele>255.19999694824</ele>
        <time>2020-06-08T13:55:38.000Z</time>
      </trkpt>
      <trkpt lat="43.4901" lon="1.47142">
        <ele>255.19999694824</ele>
        <time>2020-06-08T13:55:40.000Z</time>
      </trkpt>
      <trkpt lat="43.49004" lon="1.47152">
        <ele>255.19999694824</ele>
        <time>2020-06-08T13:55:42.000Z</time>
      </trkpt>
      <trkpt lat="43.48998" lon="1.47162">
        <ele>255.19999694824</ele>
        <time>2020-06-08T13:55:44.000Z</time>
      </trkpt>
      <trkpt lat="43.48991" lon="1.4717">
        <ele>255.19999694824</ele>
        <time>2020-06-08T13:55:46.000Z</time>
      </trkpt>
      <trkpt lat="43.48984" lon="1.47179">
        <ele>254.60000610352</ele>
        <time>2020-06-08T13:55:48.000Z</time>
      </trkpt>
      <trkpt lat="43.48977" lon="1.47187">
        <ele>254.19999694824</ele>
        <time>2020-06-08T13:55:50.000Z</time>
      </trkpt>
      <trkpt lat="43.4897" lon="1.47192">
        <ele>253.80000305176</ele>
        <time>2020-06-08T13:55:52.000Z</time>
      </trkpt>
      <trkpt lat="43.48964" lon="1.47196">
        <ele>253.80000305176</ele>
        <time>2020-06-08T13:55:54.000Z</time>
      </trkpt>
      <trkpt lat="43.48959" lon="1.47199">
        <ele>253.80000305176</ele>
        <time>2020-06-08T13:55:56.000Z</time>
      </trkpt>
      <trkpt lat="43.48954" lon="1.47201">
        <ele>253.80000305176</ele>
        <time>2020-06-08T13:55:58.000Z</time>
      </trkpt>
      <trkpt lat="43.4895" lon="1.47203">
        <ele>253.80000305176</ele>
        <time>2020-06-08T13:56:00.000Z</time>
      </trkpt>
      <trkpt lat="43.48946" lon="1.47206">
        <ele>253.80000305176</ele>
        <time>2020-06-08T13:56:02.000Z</time>
      </trkpt>
      <trkpt lat="43.48943" lon="1.47208">
        <ele>253.80000305176</ele>
        <time>2020-06-08T13:56:04.000Z</time>
      </trkpt>
      <trkpt lat="43.48942" lon="1.47209">
        <ele>253.80000305176</ele>
        <time>2020-06-08T13:56:05.000Z</time>
      </trkpt>
      <trkpt lat="43.48943" lon="1.47214">
        <ele>253.80000305176</ele>
        <time>2020-06-08T13:57:58.000Z</time>
      </trkpt>
      <trkpt lat="43.48944" lon="1.47218">
        <ele>253.60000610352</ele>
        <time>2020-06-08T13:58:00.000Z</time>
      </trkpt>
      <trkpt lat="43.48945" lon="1.47225">
        <ele>253.60000610352</ele>
        <time>2020-06-08T13:58:02.000Z</time>
      </trkpt>
      <trkpt lat="43.48945" lon="1.4723">
        <ele>253.60000610352</ele>
        <time>2020-06-08T13:58:03.000Z</time>
      </trkpt>
      <trkpt lat="43.48945" lon="1.47236">
        <ele>253.39999389648</ele>
        <time>2020-06-08T13:58:04.000Z</time>
      </trkpt>
      <trkpt lat="43.48943" lon="1.4725">
        <ele>253.39999389648</ele>
        <time>2020-06-08T13:58:06.000Z</time>
      </trkpt>
      <trkpt lat="43.48939" lon="1.47265">
        <ele>253.19999694824</ele>
        <time>2020-06-08T13:58:08.000Z</time>
      </trkpt>
      <trkpt lat="43.48935" lon="1.47281">
        <ele>252.80000305176</ele>
        <time>2020-06-08T13:58:10.000Z</time>
      </trkpt>
      <trkpt lat="43.48932" lon="1.47289">
        <ele>252.39999389648</ele>
        <time>2020-06-08T13:58:11.000Z</time>
      </trkpt>
      <trkpt lat="43.4893" lon="1.47297">
        <ele>252</ele>
        <time>2020-06-08T13:58:12.000Z</time>
      </trkpt>
      <trkpt lat="43.48925" lon="1.47313">
        <ele>251.19999694824</ele>
        <time>2020-06-08T13:58:14.000Z</time>
      </trkpt>
      <trkpt lat="43.48921" lon="1.47328">
        <ele>250.39999389648</ele>
        <time>2020-06-08T13:58:16.000Z</time>
      </trkpt>
      <trkpt lat="43.48919" lon="1.47336">
        <ele>250</ele>
        <time>2020-06-08T13:58:17.000Z</time>
      </trkpt>
      <trkpt lat="43.48916" lon="1.47343">
        <ele>249.80000305176</ele>
        <time>2020-06-08T13:58:18.000Z</time>
      </trkpt>
      <trkpt lat="43.4891" lon="1.47355">
        <ele>249.60000610352</ele>
        <time>2020-06-08T13:58:20.000Z</time>
      </trkpt>
      <trkpt lat="43.48906" lon="1.47368">
        <ele>249.60000610352</ele>
        <time>2020-06-08T13:58:22.000Z</time>
      </trkpt>
      <trkpt lat="43.48904" lon="1.47374">
        <ele>249.60000610352</ele>
        <time>2020-06-08T13:58:23.000Z</time>
      </trkpt>
      <trkpt lat="43.48903" lon="1.47381">
        <ele>249.60000610352</ele>
        <time>2020-06-08T13:58:24.000Z</time>
      </trkpt>
      <trkpt lat="43.489" lon="1.47394">
        <ele>249.60000610352</ele>
        <time>2020-06-08T13:58:26.000Z</time>
      </trkpt>
      <trkpt lat="43.48898" lon="1.47407">
        <ele>249.80000305176</ele>
        <time>2020-06-08T13:58:28.000Z</time>
      </trkpt>
      <trkpt lat="43.48895" lon="1.4742">
        <ele>250</ele>
        <time>2020-06-08T13:58:30.000Z</time>
      </trkpt>
      <trkpt lat="43.48893" lon="1.47433">
        <ele>250</ele>
        <time>2020-06-08T13:58:32.000Z</time>
      </trkpt>
      <trkpt lat="43.48891" lon="1.47446">
        <ele>250.19999694824</ele>
        <time>2020-06-08T13:58:34.000Z</time>
      </trkpt>
      <trkpt lat="43.48888" lon="1.47458">
        <ele>250.19999694824</ele>
        <time>2020-06-08T13:58:36.000Z</time>
      </trkpt>
      <trkpt lat="43.48885" lon="1.47471">
        <ele>250.39999389648</ele>
        <time>2020-06-08T13:58:38.000Z</time>
      </trkpt>
      <trkpt lat="43.48882" lon="1.47483">
        <ele>250.60000610352</ele>
        <time>2020-06-08T13:58:40.000Z</time>
      </trkpt>
      <trkpt lat="43.48878" lon="1.47495">
        <ele>250.80000305176</ele>
        <time>2020-06-08T13:58:42.000Z</time>
      </trkpt>
      <trkpt lat="43.48875" lon="1.47507">
        <ele>251</ele>
        <time>2020-06-08T13:58:44.000Z</time>
      </trkpt>
      <trkpt lat="43.48874" lon="1.47513">
        <ele>251.19999694824</ele>
        <time>2020-06-08T13:58:45.000Z</time>
      </trkpt>
      <trkpt lat="43.48872" lon="1.47519">
        <ele>251.39999389648</ele>
        <time>2020-06-08T13:58:46.000Z</time>
      </trkpt>
      <trkpt lat="43.48868" lon="1.47531">
        <ele>251.39999389648</ele>
        <time>2020-06-08T13:58:48.000Z</time>
      </trkpt>
      <trkpt lat="43.48864" lon="1.47542">
        <ele>251.60000610352</ele>
        <time>2020-06-08T13:58:50.000Z</time>
      </trkpt>
      <trkpt lat="43.48859" lon="1.47554">
        <ele>251.60000610352</ele>
        <time>2020-06-08T13:58:52.000Z</time>
      </trkpt>
      <trkpt lat="43.48855" lon="1.47565">
        <ele>251.60000610352</ele>
        <time>2020-06-08T13:58:54.000Z</time>
      </trkpt>
      <trkpt lat="43.48849" lon="1.47576">
        <ele>251.80000305176</ele>
        <time>2020-06-08T13:58:56.000Z</time>
      </trkpt>
      <trkpt lat="43.48844" lon="1.47586">
        <ele>252</ele>
        <time>2020-06-08T13:58:58.000Z</time>
      </trkpt>
      <trkpt lat="43.48838" lon="1.47596">
        <ele>252.19999694824</ele>
        <time>2020-06-08T13:59:00.000Z</time>
      </trkpt>
      <trkpt lat="43.48833" lon="1.47604">
        <ele>252.19999694824</ele>
        <time>2020-06-08T13:59:02.000Z</time>
      </trkpt>
      <trkpt lat="43.48828" lon="1.47612">
        <ele>252.39999389648</ele>
        <time>2020-06-08T13:59:04.000Z</time>
      </trkpt>
      <trkpt lat="43.48824" lon="1.47621">
        <ele>252.39999389648</ele>
        <time>2020-06-08T13:59:06.000Z</time>
      </trkpt>
      <trkpt lat="43.4882" lon="1.47629">
        <ele>252.80000305176</ele>
        <time>2020-06-08T13:59:08.000Z</time>
      </trkpt>
      <trkpt lat="43.48816" lon="1.47637">
        <ele>253.19999694824</ele>
        <time>2020-06-08T13:59:10.000Z</time>
      </trkpt>
      <trkpt lat="43.48815" lon="1.47641">
        <ele>253.60000610352</ele>
        <time>2020-06-08T13:59:11.000Z</time>
      </trkpt>
      <trkpt lat="43.48813" lon="1.47646">
        <ele>254.19999694824</ele>
        <time>2020-06-08T13:59:12.000Z</time>
      </trkpt>
      <trkpt lat="43.48811" lon="1.47655">
        <ele>254.80000305176</ele>
        <time>2020-06-08T13:59:14.000Z</time>
      </trkpt>
      <trkpt lat="43.48808" lon="1.47665">
        <ele>255.19999694824</ele>
        <time>2020-06-08T13:59:16.000Z</time>
      </trkpt>
      <trkpt lat="43.48806" lon="1.47675">
        <ele>255.80000305176</ele>
        <time>2020-06-08T13:59:18.000Z</time>
      </trkpt>
      <trkpt lat="43.48805" lon="1.4768">
        <ele>255.80000305176</ele>
        <time>2020-06-08T13:59:19.000Z</time>
      </trkpt>
      <trkpt lat="43.48804" lon="1.47685">
        <ele>256.20001220703</ele>
        <time>2020-06-08T13:59:20.000Z</time>
      </trkpt>
      <trkpt lat="43.48803" lon="1.47696">
        <ele>256.60000610352</ele>
        <time>2020-06-08T13:59:22.000Z</time>
      </trkpt>
      <trkpt lat="43.48801" lon="1.47706">
        <ele>256.79998779297</ele>
        <time>2020-06-08T13:59:24.000Z</time>
      </trkpt>
      <trkpt lat="43.488" lon="1.47717">
        <ele>257</ele>
        <time>2020-06-08T13:59:26.000Z</time>
      </trkpt>
      <trkpt lat="43.488" lon="1.47728">
        <ele>257.20001220703</ele>
        <time>2020-06-08T13:59:28.000Z</time>
      </trkpt>
      <trkpt lat="43.48801" lon="1.47738">
        <ele>257.39999389648</ele>
        <time>2020-06-08T13:59:30.000Z</time>
      </trkpt>
      <trkpt lat="43.48802" lon="1.47748">
        <ele>257.79998779297</ele>
        <time>2020-06-08T13:59:32.000Z</time>
      </trkpt>
      <trkpt lat="43.48803" lon="1.47758">
        <ele>257.79998779297</ele>
        <time>2020-06-08T13:59:34.000Z</time>
      </trkpt>
      <trkpt lat="43.48803" lon="1.47763">
        <ele>258</ele>
        <time>2020-06-08T13:59:35.000Z</time>
      </trkpt>
      <trkpt lat="43.48804" lon="1.47768">
        <ele>258</ele>
        <time>2020-06-08T13:59:36.000Z</time>
      </trkpt>
      <trkpt lat="43.48805" lon="1.47778">
        <ele>258</ele>
        <time>2020-06-08T13:59:38.000Z</time>
      </trkpt>
      <trkpt lat="43.48807" lon="1.47789">
        <ele>258.20001220703</ele>
        <time>2020-06-08T13:59:40.000Z</time>
      </trkpt>
      <trkpt lat="43.48808" lon="1.47799">
        <ele>258.20001220703</ele>
        <time>2020-06-08T13:59:42.000Z</time>
      </trkpt>
      <trkpt lat="43.4881" lon="1.4781">
        <ele>258.60000610352</ele>
        <time>2020-06-08T13:59:44.000Z</time>
      </trkpt>
      <trkpt lat="43.48811" lon="1.47821">
        <ele>258.79998779297</ele>
        <time>2020-06-08T13:59:46.000Z</time>
      </trkpt>
      <trkpt lat="43.48812" lon="1.47826">
        <ele>259</ele>
        <time>2020-06-08T13:59:47.000Z</time>
      </trkpt>
      <trkpt lat="43.48813" lon="1.47831">
        <ele>259</ele>
        <time>2020-06-08T13:59:48.000Z</time>
      </trkpt>
      <trkpt lat="43.48814" lon="1.47842">
        <ele>259.20001220703</ele>
        <time>2020-06-08T13:59:50.000Z</time>
      </trkpt>
      <trkpt lat="43.48815" lon="1.47852">
        <ele>259.39999389648</ele>
        <time>2020-06-08T13:59:52.000Z</time>
      </trkpt>
      <trkpt lat="43.48817" lon="1.47863">
        <ele>259.60000610352</ele>
        <time>2020-06-08T13:59:54.000Z</time>
      </trkpt>
      <trkpt lat="43.48818" lon="1.47873">
        <ele>259.79998779297</ele>
        <time>2020-06-08T13:59:56.000Z</time>
      </trkpt>
      <trkpt lat="43.4882" lon="1.47883">
        <ele>260</ele>
        <time>2020-06-08T13:59:58.000Z</time>
      </trkpt>
      <trkpt lat="43.48821" lon="1.47888">
        <ele>260.20001220703</ele>
        <time>2020-06-08T13:59:59.000Z</time>
      </trkpt>
      <trkpt lat="43.48822" lon="1.47893">
        <ele>260.39999389648</ele>
        <time>2020-06-08T14:00:00.000Z</time>
      </trkpt>
      <trkpt lat="43.48823" lon="1.47903">
        <ele>260.39999389648</ele>
        <time>2020-06-08T14:00:02.000Z</time>
      </trkpt>
      <trkpt lat="43.48824" lon="1.47913">
        <ele>260.60000610352</ele>
        <time>2020-06-08T14:00:04.000Z</time>
      </trkpt>
      <trkpt lat="43.48825" lon="1.47923">
        <ele>260.79998779297</ele>
        <time>2020-06-08T14:00:06.000Z</time>
      </trkpt>
      <trkpt lat="43.48825" lon="1.47932">
        <ele>261</ele>
        <time>2020-06-08T14:00:08.000Z</time>
      </trkpt>
      <trkpt lat="43.48825" lon="1.47937">
        <ele>261.20001220703</ele>
        <time>2020-06-08T14:00:09.000Z</time>
      </trkpt>
      <trkpt lat="43.48825" lon="1.47941">
        <ele>261.39999389648</ele>
        <time>2020-06-08T14:00:10.000Z</time>
      </trkpt>
      <trkpt lat="43.48824" lon="1.47951">
        <ele>261.79998779297</ele>
        <time>2020-06-08T14:00:12.000Z</time>
      </trkpt>
      <trkpt lat="43.48822" lon="1.4796">
        <ele>262</ele>
        <time>2020-06-08T14:00:14.000Z</time>
      </trkpt>
      <trkpt lat="43.48819" lon="1.47968">
        <ele>262.39999389648</ele>
        <time>2020-06-08T14:00:16.000Z</time>
      </trkpt>
      <trkpt lat="43.48816" lon="1.47976">
        <ele>262.79998779297</ele>
        <time>2020-06-08T14:00:18.000Z</time>
      </trkpt>
      <trkpt lat="43.48812" lon="1.47984">
        <ele>263.20001220703</ele>
        <time>2020-06-08T14:00:20.000Z</time>
      </trkpt>
      <trkpt lat="43.48808" lon="1.47991">
        <ele>263.39999389648</ele>
        <time>2020-06-08T14:00:22.000Z</time>
      </trkpt>
      <trkpt lat="43.48804" lon="1.47998">
        <ele>263.60000610352</ele>
        <time>2020-06-08T14:00:24.000Z</time>
      </trkpt>
      <trkpt lat="43.488" lon="1.48005">
        <ele>264</ele>
        <time>2020-06-08T14:00:26.000Z</time>
      </trkpt>
      <trkpt lat="43.48797" lon="1.48013">
        <ele>264.60000610352</ele>
        <time>2020-06-08T14:00:28.000Z</time>
      </trkpt>
      <trkpt lat="43.48795" lon="1.48017">
        <ele>264.79998779297</ele>
        <time>2020-06-08T14:00:29.000Z</time>
      </trkpt>
      <trkpt lat="43.48793" lon="1.4802">
        <ele>265</ele>
        <time>2020-06-08T14:00:30.000Z</time>
      </trkpt>
      <trkpt lat="43.48788" lon="1.48029">
        <ele>265.39999389648</ele>
        <time>2020-06-08T14:00:32.000Z</time>
      </trkpt>
      <trkpt lat="43.48783" lon="1.48038">
        <ele>265.39999389648</ele>
        <time>2020-06-08T14:00:34.000Z</time>
      </trkpt>
      <trkpt lat="43.48778" lon="1.48048">
        <ele>265.39999389648</ele>
        <time>2020-06-08T14:00:36.000Z</time>
      </trkpt>
      <trkpt lat="43.48773" lon="1.48058">
        <ele>265.39999389648</ele>
        <time>2020-06-08T14:00:38.000Z</time>
      </trkpt>
      <trkpt lat="43.48768" lon="1.48069">
        <ele>265.39999389648</ele>
        <time>2020-06-08T14:00:40.000Z</time>
      </trkpt>
      <trkpt lat="43.48763" lon="1.48079">
        <ele>265.20001220703</ele>
        <time>2020-06-08T14:00:42.000Z</time>
      </trkpt>
      <trkpt lat="43.48758" lon="1.4809">
        <ele>265.20001220703</ele>
        <time>2020-06-08T14:00:44.000Z</time>
      </trkpt>
      <trkpt lat="43.48753" lon="1.481">
        <ele>265</ele>
        <time>2020-06-08T14:00:46.000Z</time>
      </trkpt>
      <trkpt lat="43.48747" lon="1.48112">
        <ele>265</ele>
        <time>2020-06-08T14:00:48.000Z</time>
      </trkpt>
      <trkpt lat="43.48742" lon="1.48124">
        <ele>265</ele>
        <time>2020-06-08T14:00:50.000Z</time>
      </trkpt>
      <trkpt lat="43.48737" lon="1.48136">
        <ele>264.79998779297</ele>
        <time>2020-06-08T14:00:52.000Z</time>
      </trkpt>
      <trkpt lat="43.48732" lon="1.4815">
        <ele>264.39999389648</ele>
        <time>2020-06-08T14:00:54.000Z</time>
      </trkpt>
      <trkpt lat="43.48727" lon="1.48164">
        <ele>264</ele>
        <time>2020-06-08T14:00:56.000Z</time>
      </trkpt>
      <trkpt lat="43.48722" lon="1.48179">
        <ele>263.60000610352</ele>
        <time>2020-06-08T14:00:58.000Z</time>
      </trkpt>
      <trkpt lat="43.48717" lon="1.48193">
        <ele>263.39999389648</ele>
        <time>2020-06-08T14:01:00.000Z</time>
      </trkpt>
      <trkpt lat="43.48712" lon="1.48205">
        <ele>263.39999389648</ele>
        <time>2020-06-08T14:01:02.000Z</time>
      </trkpt>
      <trkpt lat="43.48708" lon="1.48217">
        <ele>263.39999389648</ele>
        <time>2020-06-08T14:01:04.000Z</time>
      </trkpt>
      <trkpt lat="43.48704" lon="1.4823">
        <ele>263.20001220703</ele>
        <time>2020-06-08T14:01:06.000Z</time>
      </trkpt>
      <trkpt lat="43.48701" lon="1.48242">
        <ele>263.20001220703</ele>
        <time>2020-06-08T14:01:08.000Z</time>
      </trkpt>
      <trkpt lat="43.48698" lon="1.48256">
        <ele>263.20001220703</ele>
        <time>2020-06-08T14:01:10.000Z</time>
      </trkpt>
      <trkpt lat="43.48694" lon="1.48269">
        <ele>263.39999389648</ele>
        <time>2020-06-08T14:01:12.000Z</time>
      </trkpt>
      <trkpt lat="43.48692" lon="1.48283">
        <ele>263.60000610352</ele>
        <time>2020-06-08T14:01:14.000Z</time>
      </trkpt>
      <trkpt lat="43.48688" lon="1.48297">
        <ele>263.79998779297</ele>
        <time>2020-06-08T14:01:16.000Z</time>
      </trkpt>
      <trkpt lat="43.48685" lon="1.4831">
        <ele>263.79998779297</ele>
        <time>2020-06-08T14:01:18.000Z</time>
      </trkpt>
      <trkpt lat="43.48683" lon="1.48324">
        <ele>264</ele>
        <time>2020-06-08T14:01:20.000Z</time>
      </trkpt>
      <trkpt lat="43.4868" lon="1.48337">
        <ele>264.20001220703</ele>
        <time>2020-06-08T14:01:22.000Z</time>
      </trkpt>
      <trkpt lat="43.48678" lon="1.48351">
        <ele>264.20001220703</ele>
        <time>2020-06-08T14:01:24.000Z</time>
      </trkpt>
      <trkpt lat="43.48676" lon="1.48365">
        <ele>264.20001220703</ele>
        <time>2020-06-08T14:01:26.000Z</time>
      </trkpt>
      <trkpt lat="43.48675" lon="1.48378">
        <ele>264.20001220703</ele>
        <time>2020-06-08T14:01:28.000Z</time>
      </trkpt>
      <trkpt lat="43.48674" lon="1.48392">
        <ele>264.60000610352</ele>
        <time>2020-06-08T14:01:30.000Z</time>
      </trkpt>
      <trkpt lat="43.48673" lon="1.48405">
        <ele>264.79998779297</ele>
        <time>2020-06-08T14:01:32.000Z</time>
      </trkpt>
      <trkpt lat="43.48672" lon="1.48418">
        <ele>264.79998779297</ele>
        <time>2020-06-08T14:01:34.000Z</time>
      </trkpt>
      <trkpt lat="43.48672" lon="1.48429">
        <ele>265</ele>
        <time>2020-06-08T14:01:36.000Z</time>
      </trkpt>
      <trkpt lat="43.48672" lon="1.48441">
        <ele>265.39999389648</ele>
        <time>2020-06-08T14:01:38.000Z</time>
      </trkpt>
      <trkpt lat="43.48673" lon="1.48452">
        <ele>265.79998779297</ele>
        <time>2020-06-08T14:01:40.000Z</time>
      </trkpt>
      <trkpt lat="43.48673" lon="1.48458">
        <ele>266</ele>
        <time>2020-06-08T14:01:41.000Z</time>
      </trkpt>
      <trkpt lat="43.48673" lon="1.48463">
        <ele>266.20001220703</ele>
        <time>2020-06-08T14:01:42.000Z</time>
      </trkpt>
      <trkpt lat="43.48675" lon="1.48475">
        <ele>266.79998779297</ele>
        <time>2020-06-08T14:01:44.000Z</time>
      </trkpt>
      <trkpt lat="43.48676" lon="1.4848">
        <ele>267</ele>
        <time>2020-06-08T14:01:45.000Z</time>
      </trkpt>
      <trkpt lat="43.48677" lon="1.48486">
        <ele>267.20001220703</ele>
        <time>2020-06-08T14:01:46.000Z</time>
      </trkpt>
      <trkpt lat="43.48679" lon="1.48497">
        <ele>267.39999389648</ele>
        <time>2020-06-08T14:01:48.000Z</time>
      </trkpt>
      <trkpt lat="43.48681" lon="1.48508">
        <ele>267.60000610352</ele>
        <time>2020-06-08T14:01:50.000Z</time>
      </trkpt>
      <trkpt lat="43.48684" lon="1.48519">
        <ele>267.79998779297</ele>
        <time>2020-06-08T14:01:52.000Z</time>
      </trkpt>
      <trkpt lat="43.48687" lon="1.48529">
        <ele>268.20001220703</ele>
        <time>2020-06-08T14:01:54.000Z</time>
      </trkpt>
      <trkpt lat="43.48692" lon="1.4854">
        <ele>268.39999389648</ele>
        <time>2020-06-08T14:01:56.000Z</time>
      </trkpt>
      <trkpt lat="43.48696" lon="1.48552">
        <ele>268.60000610352</ele>
        <time>2020-06-08T14:01:58.000Z</time>
      </trkpt>
      <trkpt lat="43.48702" lon="1.48564">
        <ele>268.60000610352</ele>
        <time>2020-06-08T14:02:00.000Z</time>
      </trkpt>
      <trkpt lat="43.48709" lon="1.48577">
        <ele>268.60000610352</ele>
        <time>2020-06-08T14:02:02.000Z</time>
      </trkpt>
      <trkpt lat="43.48716" lon="1.48592">
        <ele>268.60000610352</ele>
        <time>2020-06-08T14:02:04.000Z</time>
      </trkpt>
      <trkpt lat="43.48723" lon="1.48607">
        <ele>268.39999389648</ele>
        <time>2020-06-08T14:02:06.000Z</time>
      </trkpt>
      <trkpt lat="43.48727" lon="1.48615">
        <ele>268</ele>
        <time>2020-06-08T14:02:07.000Z</time>
      </trkpt>
      <trkpt lat="43.48729" lon="1.48624">
        <ele>267.60000610352</ele>
        <time>2020-06-08T14:02:08.000Z</time>
      </trkpt>
      <trkpt lat="43.48733" lon="1.48642">
        <ele>267.20001220703</ele>
        <time>2020-06-08T14:02:10.000Z</time>
      </trkpt>
      <trkpt lat="43.48735" lon="1.48651">
        <ele>266.79998779297</ele>
        <time>2020-06-08T14:02:11.000Z</time>
      </trkpt>
      <trkpt lat="43.48736" lon="1.48661">
        <ele>266.39999389648</ele>
        <time>2020-06-08T14:02:12.000Z</time>
      </trkpt>
      <trkpt lat="43.48736" lon="1.4867">
        <ele>265.79998779297</ele>
        <time>2020-06-08T14:02:13.000Z</time>
      </trkpt>
      <trkpt lat="43.48736" lon="1.4868">
        <ele>265.39999389648</ele>
        <time>2020-06-08T14:02:14.000Z</time>
      </trkpt>
      <trkpt lat="43.48736" lon="1.48699">
        <ele>264.79998779297</ele>
        <time>2020-06-08T14:02:16.000Z</time>
      </trkpt>
      <trkpt lat="43.48735" lon="1.48719">
        <ele>264</ele>
        <time>2020-06-08T14:02:18.000Z</time>
      </trkpt>
      <trkpt lat="43.48735" lon="1.4874">
        <ele>263.79998779297</ele>
        <time>2020-06-08T14:02:20.000Z</time>
      </trkpt>
      <trkpt lat="43.48734" lon="1.48751">
        <ele>263.60000610352</ele>
        <time>2020-06-08T14:02:21.000Z</time>
      </trkpt>
      <trkpt lat="43.48734" lon="1.48763">
        <ele>263.60000610352</ele>
        <time>2020-06-08T14:02:22.000Z</time>
      </trkpt>
      <trkpt lat="43.48733" lon="1.48786">
        <ele>263.20001220703</ele>
        <time>2020-06-08T14:02:24.000Z</time>
      </trkpt>
      <trkpt lat="43.48733" lon="1.4881">
        <ele>263</ele>
        <time>2020-06-08T14:02:26.000Z</time>
      </trkpt>
      <trkpt lat="43.48734" lon="1.48822">
        <ele>262.79998779297</ele>
        <time>2020-06-08T14:02:27.000Z</time>
      </trkpt>
      <trkpt lat="43.48736" lon="1.48835">
        <ele>262.20001220703</ele>
        <time>2020-06-08T14:02:28.000Z</time>
      </trkpt>
      <trkpt lat="43.48741" lon="1.48859">
        <ele>260.79998779297</ele>
        <time>2020-06-08T14:02:30.000Z</time>
      </trkpt>
      <trkpt lat="43.48748" lon="1.48882">
        <ele>259.79998779297</ele>
        <time>2020-06-08T14:02:32.000Z</time>
      </trkpt>
      <trkpt lat="43.48752" lon="1.48893">
        <ele>259.60000610352</ele>
        <time>2020-06-08T14:02:33.000Z</time>
      </trkpt>
      <trkpt lat="43.48755" lon="1.48904">
        <ele>259.39999389648</ele>
        <time>2020-06-08T14:02:34.000Z</time>
      </trkpt>
      <trkpt lat="43.48761" lon="1.48926">
        <ele>258.79998779297</ele>
        <time>2020-06-08T14:02:36.000Z</time>
      </trkpt>
      <trkpt lat="43.48764" lon="1.48946">
        <ele>257.79998779297</ele>
        <time>2020-06-08T14:02:38.000Z</time>
      </trkpt>
      <trkpt lat="43.48765" lon="1.48956">
        <ele>256.60000610352</ele>
        <time>2020-06-08T14:02:39.000Z</time>
      </trkpt>
      <trkpt lat="43.48765" lon="1.48965">
        <ele>256.39999389648</ele>
        <time>2020-06-08T14:02:40.000Z</time>
      </trkpt>
      <trkpt lat="43.48766" lon="1.48981">
        <ele>256.20001220703</ele>
        <time>2020-06-08T14:02:42.000Z</time>
      </trkpt>
      <trkpt lat="43.48766" lon="1.48996">
        <ele>256.20001220703</ele>
        <time>2020-06-08T14:02:44.000Z</time>
      </trkpt>
      <trkpt lat="43.48765" lon="1.49008">
        <ele>256.20001220703</ele>
        <time>2020-06-08T14:02:46.000Z</time>
      </trkpt>
      <trkpt lat="43.48765" lon="1.49019">
        <ele>256.39999389648</ele>
        <time>2020-06-08T14:02:48.000Z</time>
      </trkpt>
      <trkpt lat="43.48764" lon="1.49029">
        <ele>256.79998779297</ele>
        <time>2020-06-08T14:02:50.000Z</time>
      </trkpt>
      <trkpt lat="43.48763" lon="1.4904">
        <ele>257.79998779297</ele>
        <time>2020-06-08T14:02:52.000Z</time>
      </trkpt>
      <trkpt lat="43.48764" lon="1.4905">
        <ele>258.79998779297</ele>
        <time>2020-06-08T14:02:54.000Z</time>
      </trkpt>
      <trkpt lat="43.48763" lon="1.49055">
        <ele>259.39999389648</ele>
        <time>2020-06-08T14:02:55.000Z</time>
      </trkpt>
      <trkpt lat="43.48763" lon="1.49059">
        <ele>259.60000610352</ele>
        <time>2020-06-08T14:02:56.000Z</time>
      </trkpt>
      <trkpt lat="43.48763" lon="1.49067">
        <ele>260</ele>
        <time>2020-06-08T14:02:58.000Z</time>
      </trkpt>
      <trkpt lat="43.48762" lon="1.49074">
        <ele>260.20001220703</ele>
        <time>2020-06-08T14:03:00.000Z</time>
      </trkpt>
      <trkpt lat="43.48762" lon="1.49081">
        <ele>260.39999389648</ele>
        <time>2020-06-08T14:03:02.000Z</time>
      </trkpt>
      <trkpt lat="43.48761" lon="1.49085">
        <ele>260.39999389648</ele>
        <time>2020-06-08T14:03:03.000Z</time>
      </trkpt>
      <trkpt lat="43.48761" lon="1.49088">
        <ele>260.39999389648</ele>
        <time>2020-06-08T14:03:04.000Z</time>
      </trkpt>
      <trkpt lat="43.48761" lon="1.49094">
        <ele>261</ele>
        <time>2020-06-08T14:03:06.000Z</time>
      </trkpt>
      <trkpt lat="43.4876" lon="1.49099">
        <ele>261.39999389648</ele>
        <time>2020-06-08T14:03:08.000Z</time>
      </trkpt>
      <trkpt lat="43.4876" lon="1.49102">
        <ele>261.60000610352</ele>
        <time>2020-06-08T14:03:09.000Z</time>
      </trkpt>
      <trkpt lat="43.48759" lon="1.49105">
        <ele>261.60000610352</ele>
        <time>2020-06-08T14:03:10.000Z</time>
      </trkpt>
      <trkpt lat="43.48759" lon="1.49111">
        <ele>262</ele>
        <time>2020-06-08T14:03:12.000Z</time>
      </trkpt>
      <trkpt lat="43.48758" lon="1.49118">
        <ele>262.20001220703</ele>
        <time>2020-06-08T14:03:14.000Z</time>
      </trkpt>
      <trkpt lat="43.48757" lon="1.49124">
        <ele>262.60000610352</ele>
        <time>2020-06-08T14:03:16.000Z</time>
      </trkpt>
      <trkpt lat="43.48756" lon="1.49131">
        <ele>262.79998779297</ele>
        <time>2020-06-08T14:03:18.000Z</time>
      </trkpt>
      <trkpt lat="43.48755" lon="1.49139">
        <ele>263</ele>
        <time>2020-06-08T14:03:20.000Z</time>
      </trkpt>
      <trkpt lat="43.48754" lon="1.49147">
        <ele>263.20001220703</ele>
        <time>2020-06-08T14:03:22.000Z</time>
      </trkpt>
      <trkpt lat="43.48753" lon="1.49154">
        <ele>263.39999389648</ele>
        <time>2020-06-08T14:03:24.000Z</time>
      </trkpt>
      <trkpt lat="43.48752" lon="1.49162">
        <ele>263.79998779297</ele>
        <time>2020-06-08T14:03:26.000Z</time>
      </trkpt>
      <trkpt lat="43.48751" lon="1.49166">
        <ele>263.79998779297</ele>
        <time>2020-06-08T14:03:27.000Z</time>
      </trkpt>
      <trkpt lat="43.48751" lon="1.4917">
        <ele>264</ele>
        <time>2020-06-08T14:03:28.000Z</time>
      </trkpt>
      <trkpt lat="43.48749" lon="1.49178">
        <ele>264</ele>
        <time>2020-06-08T14:03:30.000Z</time>
      </trkpt>
      <trkpt lat="43.48748" lon="1.49186">
        <ele>264.60000610352</ele>
        <time>2020-06-08T14:03:32.000Z</time>
      </trkpt>
      <trkpt lat="43.48747" lon="1.49194">
        <ele>264.60000610352</ele>
        <time>2020-06-08T14:03:34.000Z</time>
      </trkpt>
      <trkpt lat="43.48746" lon="1.49203">
        <ele>264.79998779297</ele>
        <time>2020-06-08T14:03:36.000Z</time>
      </trkpt>
      <trkpt lat="43.48746" lon="1.49207">
        <ele>264.79998779297</ele>
        <time>2020-06-08T14:03:37.000Z</time>
      </trkpt>
      <trkpt lat="43.48745" lon="1.49211">
        <ele>265</ele>
        <time>2020-06-08T14:03:38.000Z</time>
      </trkpt>
      <trkpt lat="43.48744" lon="1.4922">
        <ele>265</ele>
        <time>2020-06-08T14:03:40.000Z</time>
      </trkpt>
      <trkpt lat="43.48744" lon="1.49229">
        <ele>265.20001220703</ele>
        <time>2020-06-08T14:03:42.000Z</time>
      </trkpt>
      <trkpt lat="43.48744" lon="1.49238">
        <ele>265.60000610352</ele>
        <time>2020-06-08T14:03:44.000Z</time>
      </trkpt>
      <trkpt lat="43.48743" lon="1.49246">
        <ele>265.79998779297</ele>
        <time>2020-06-08T14:03:46.000Z</time>
      </trkpt>
      <trkpt lat="43.48743" lon="1.4925">
        <ele>266</ele>
        <time>2020-06-08T14:03:47.000Z</time>
      </trkpt>
      <trkpt lat="43.48743" lon="1.49254">
        <ele>266.20001220703</ele>
        <time>2020-06-08T14:03:48.000Z</time>
      </trkpt>
      <trkpt lat="43.48743" lon="1.49263">
        <ele>266.39999389648</ele>
        <time>2020-06-08T14:03:50.000Z</time>
      </trkpt>
      <trkpt lat="43.48744" lon="1.4927">
        <ele>266.79998779297</ele>
        <time>2020-06-08T14:03:52.000Z</time>
      </trkpt>
      <trkpt lat="43.48744" lon="1.49274">
        <ele>267</ele>
        <time>2020-06-08T14:03:53.000Z</time>
      </trkpt>
      <trkpt lat="43.48744" lon="1.49279">
        <ele>267.20001220703</ele>
        <time>2020-06-08T14:03:54.000Z</time>
      </trkpt>
      <trkpt lat="43.48745" lon="1.49288">
        <ele>267.39999389648</ele>
        <time>2020-06-08T14:03:56.000Z</time>
      </trkpt>
      <trkpt lat="43.48745" lon="1.49298">
        <ele>267.60000610352</ele>
        <time>2020-06-08T14:03:58.000Z</time>
      </trkpt>
      <trkpt lat="43.48745" lon="1.49304">
        <ele>267.60000610352</ele>
        <time>2020-06-08T14:03:59.000Z</time>
      </trkpt>
      <trkpt lat="43.48746" lon="1.4931">
        <ele>267.79998779297</ele>
        <time>2020-06-08T14:04:00.000Z</time>
      </trkpt>
      <trkpt lat="43.48747" lon="1.49322">
        <ele>268.20001220703</ele>
        <time>2020-06-08T14:04:02.000Z</time>
      </trkpt>
      <trkpt lat="43.48748" lon="1.49334">
        <ele>268.79998779297</ele>
        <time>2020-06-08T14:04:04.000Z</time>
      </trkpt>
      <trkpt lat="43.48749" lon="1.49346">
        <ele>269.20001220703</ele>
        <time>2020-06-08T14:04:06.000Z</time>
      </trkpt>
      <trkpt lat="43.4875" lon="1.49357">
        <ele>269.79998779297</ele>
        <time>2020-06-08T14:04:08.000Z</time>
      </trkpt>
      <trkpt lat="43.4875" lon="1.49367">
        <ele>270.20001220703</ele>
        <time>2020-06-08T14:04:10.000Z</time>
      </trkpt>
      <trkpt lat="43.48751" lon="1.49372">
        <ele>270.39999389648</ele>
        <time>2020-06-08T14:04:11.000Z</time>
      </trkpt>
      <trkpt lat="43.48752" lon="1.49377">
        <ele>270.79998779297</ele>
        <time>2020-06-08T14:04:12.000Z</time>
      </trkpt>
      <trkpt lat="43.48752" lon="1.49387">
        <ele>271.39999389648</ele>
        <time>2020-06-08T14:04:14.000Z</time>
      </trkpt>
      <trkpt lat="43.48753" lon="1.49393">
        <ele>271.79998779297</ele>
        <time>2020-06-08T14:04:15.000Z</time>
      </trkpt>
      <trkpt lat="43.48754" lon="1.49398">
        <ele>271.79998779297</ele>
        <time>2020-06-08T14:04:16.000Z</time>
      </trkpt>
      <trkpt lat="43.48756" lon="1.49408">
        <ele>272.20001220703</ele>
        <time>2020-06-08T14:04:18.000Z</time>
      </trkpt>
      <trkpt lat="43.48758" lon="1.49418">
        <ele>273.20001220703</ele>
        <time>2020-06-08T14:04:20.000Z</time>
      </trkpt>
      <trkpt lat="43.4876" lon="1.49428">
        <ele>273.60000610352</ele>
        <time>2020-06-08T14:04:22.000Z</time>
      </trkpt>
      <trkpt lat="43.48763" lon="1.49436">
        <ele>274</ele>
        <time>2020-06-08T14:04:24.000Z</time>
      </trkpt>
      <trkpt lat="43.48765" lon="1.49445">
        <ele>274</ele>
        <time>2020-06-08T14:04:26.000Z</time>
      </trkpt>
      <trkpt lat="43.48767" lon="1.4945">
        <ele>274.20001220703</ele>
        <time>2020-06-08T14:04:27.000Z</time>
      </trkpt>
      <trkpt lat="43.48768" lon="1.49453">
        <ele>274.39999389648</ele>
        <time>2020-06-08T14:04:28.000Z</time>
      </trkpt>
      <trkpt lat="43.4877" lon="1.49461">
        <ele>274.60000610352</ele>
        <time>2020-06-08T14:04:30.000Z</time>
      </trkpt>
      <trkpt lat="43.48772" lon="1.49468">
        <ele>274.79998779297</ele>
        <time>2020-06-08T14:04:32.000Z</time>
      </trkpt>
      <trkpt lat="43.48774" lon="1.49476">
        <ele>274.79998779297</ele>
        <time>2020-06-08T14:04:34.000Z</time>
      </trkpt>
      <trkpt lat="43.48776" lon="1.49484">
        <ele>274.79998779297</ele>
        <time>2020-06-08T14:04:36.000Z</time>
      </trkpt>
      <trkpt lat="43.48779" lon="1.49493">
        <ele>275</ele>
        <time>2020-06-08T14:04:38.000Z</time>
      </trkpt>
      <trkpt lat="43.48782" lon="1.49503">
        <ele>275</ele>
        <time>2020-06-08T14:04:40.000Z</time>
      </trkpt>
      <trkpt lat="43.48786" lon="1.49515">
        <ele>274.79998779297</ele>
        <time>2020-06-08T14:04:42.000Z</time>
      </trkpt>
      <trkpt lat="43.48789" lon="1.49521">
        <ele>274.79998779297</ele>
        <time>2020-06-08T14:04:43.000Z</time>
      </trkpt>
      <trkpt lat="43.48791" lon="1.49528">
        <ele>274.79998779297</ele>
        <time>2020-06-08T14:04:44.000Z</time>
      </trkpt>
      <trkpt lat="43.48796" lon="1.49542">
        <ele>274.60000610352</ele>
        <time>2020-06-08T14:04:46.000Z</time>
      </trkpt>
      <trkpt lat="43.48801" lon="1.49557">
        <ele>274.39999389648</ele>
        <time>2020-06-08T14:04:48.000Z</time>
      </trkpt>
      <trkpt lat="43.48806" lon="1.49572">
        <ele>274</ele>
        <time>2020-06-08T14:04:50.000Z</time>
      </trkpt>
      <trkpt lat="43.48812" lon="1.49589">
        <ele>273.60000610352</ele>
        <time>2020-06-08T14:04:52.000Z</time>
      </trkpt>
      <trkpt lat="43.48815" lon="1.49597">
        <ele>273.20001220703</ele>
        <time>2020-06-08T14:04:53.000Z</time>
      </trkpt>
      <trkpt lat="43.48818" lon="1.49606">
        <ele>272.79998779297</ele>
        <time>2020-06-08T14:04:54.000Z</time>
      </trkpt>
      <trkpt lat="43.48821" lon="1.49614">
        <ele>272.20001220703</ele>
        <time>2020-06-08T14:04:55.000Z</time>
      </trkpt>
      <trkpt lat="43.48824" lon="1.49623">
        <ele>271.79998779297</ele>
        <time>2020-06-08T14:04:56.000Z</time>
      </trkpt>
      <trkpt lat="43.4883" lon="1.49641">
        <ele>271.20001220703</ele>
        <time>2020-06-08T14:04:58.000Z</time>
      </trkpt>
      <trkpt lat="43.48834" lon="1.4965">
        <ele>271</ele>
        <time>2020-06-08T14:04:59.000Z</time>
      </trkpt>
      <trkpt lat="43.48837" lon="1.49659">
        <ele>270.79998779297</ele>
        <time>2020-06-08T14:05:00.000Z</time>
      </trkpt>
      <trkpt lat="43.48844" lon="1.49676">
        <ele>270.60000610352</ele>
        <time>2020-06-08T14:05:02.000Z</time>
      </trkpt>
      <trkpt lat="43.4885" lon="1.49694">
        <ele>270.60000610352</ele>
        <time>2020-06-08T14:05:04.000Z</time>
      </trkpt>
      <trkpt lat="43.48856" lon="1.49711">
        <ele>270</ele>
        <time>2020-06-08T14:05:06.000Z</time>
      </trkpt>
      <trkpt lat="43.48859" lon="1.4972">
        <ele>270</ele>
        <time>2020-06-08T14:05:07.000Z</time>
      </trkpt>
      <trkpt lat="43.48863" lon="1.49728">
        <ele>269.79998779297</ele>
        <time>2020-06-08T14:05:08.000Z</time>
      </trkpt>
      <trkpt lat="43.48868" lon="1.49744">
        <ele>269.60000610352</ele>
        <time>2020-06-08T14:05:10.000Z</time>
      </trkpt>
      <trkpt lat="43.48874" lon="1.4976">
        <ele>269.60000610352</ele>
        <time>2020-06-08T14:05:12.000Z</time>
      </trkpt>
      <trkpt lat="43.4888" lon="1.49775">
        <ele>269.60000610352</ele>
        <time>2020-06-08T14:05:14.000Z</time>
      </trkpt>
      <trkpt lat="43.48885" lon="1.4979">
        <ele>269.60000610352</ele>
        <time>2020-06-08T14:05:16.000Z</time>
      </trkpt>
      <trkpt lat="43.48891" lon="1.49805">
        <ele>269.60000610352</ele>
        <time>2020-06-08T14:05:18.000Z</time>
      </trkpt>
      <trkpt lat="43.48896" lon="1.49818">
        <ele>269.60000610352</ele>
        <time>2020-06-08T14:05:20.000Z</time>
      </trkpt>
      <trkpt lat="43.48901" lon="1.49832">
        <ele>269.60000610352</ele>
        <time>2020-06-08T14:05:22.000Z</time>
      </trkpt>
      <trkpt lat="43.48905" lon="1.49844">
        <ele>269.79998779297</ele>
        <time>2020-06-08T14:05:24.000Z</time>
      </trkpt>
      <trkpt lat="43.4891" lon="1.49855">
        <ele>270.20001220703</ele>
        <time>2020-06-08T14:05:26.000Z</time>
      </trkpt>
      <trkpt lat="43.48913" lon="1.49865">
        <ele>270.60000610352</ele>
        <time>2020-06-08T14:05:28.000Z</time>
      </trkpt>
      <trkpt lat="43.48916" lon="1.49876">
        <ele>271</ele>
        <time>2020-06-08T14:05:30.000Z</time>
      </trkpt>
      <trkpt lat="43.4892" lon="1.49885">
        <ele>271.20001220703</ele>
        <time>2020-06-08T14:05:32.000Z</time>
      </trkpt>
      <trkpt lat="43.48922" lon="1.49894">
        <ele>271.79998779297</ele>
        <time>2020-06-08T14:05:34.000Z</time>
      </trkpt>
      <trkpt lat="43.48923" lon="1.49898">
        <ele>272</ele>
        <time>2020-06-08T14:05:35.000Z</time>
      </trkpt>
      <trkpt lat="43.48925" lon="1.49902">
        <ele>272.39999389648</ele>
        <time>2020-06-08T14:05:36.000Z</time>
      </trkpt>
      <trkpt lat="43.48926" lon="1.49909">
        <ele>272.60000610352</ele>
        <time>2020-06-08T14:05:38.000Z</time>
      </trkpt>
      <trkpt lat="43.48927" lon="1.49915">
        <ele>273</ele>
        <time>2020-06-08T14:05:40.000Z</time>
      </trkpt>
      <trkpt lat="43.48928" lon="1.49918">
        <ele>273.20001220703</ele>
        <time>2020-06-08T14:05:41.000Z</time>
      </trkpt>
      <trkpt lat="43.48928" lon="1.4992">
        <ele>273.60000610352</ele>
        <time>2020-06-08T14:05:42.000Z</time>
      </trkpt>
      <trkpt lat="43.48928" lon="1.49924">
        <ele>274</ele>
        <time>2020-06-08T14:05:44.000Z</time>
      </trkpt>
      <trkpt lat="43.48929" lon="1.49926">
        <ele>274.20001220703</ele>
        <time>2020-06-08T14:05:45.000Z</time>
      </trkpt>
      <trkpt lat="43.48929" lon="1.49928">
        <ele>275.20001220703</ele>
        <time>2020-06-08T14:07:35.000Z</time>
      </trkpt>
      <trkpt lat="43.4893" lon="1.49929">
        <ele>275.20001220703</ele>
        <time>2020-06-08T14:07:36.000Z</time>
      </trkpt>
      <trkpt lat="43.48931" lon="1.49931">
        <ele>275.20001220703</ele>
        <time>2020-06-08T14:07:38.000Z</time>
      </trkpt>
      <trkpt lat="43.48931" lon="1.49935">
        <ele>275.20001220703</ele>
        <time>2020-06-08T14:07:40.000Z</time>
      </trkpt>
      <trkpt lat="43.48931" lon="1.4994">
        <ele>275.20001220703</ele>
        <time>2020-06-08T14:07:42.000Z</time>
      </trkpt>
      <trkpt lat="43.48928" lon="1.49946">
        <ele>275.20001220703</ele>
        <time>2020-06-08T14:07:44.000Z</time>
      </trkpt>
      <trkpt lat="43.48923" lon="1.49951">
        <ele>275.20001220703</ele>
        <time>2020-06-08T14:07:46.000Z</time>
      </trkpt>
      <trkpt lat="43.48921" lon="1.49954">
        <ele>275.20001220703</ele>
        <time>2020-06-08T14:07:47.000Z</time>
      </trkpt>
      <trkpt lat="43.48918" lon="1.49956">
        <ele>275.20001220703</ele>
        <time>2020-06-08T14:07:48.000Z</time>
      </trkpt>
      <trkpt lat="43.48911" lon="1.49962">
        <ele>275</ele>
        <time>2020-06-08T14:07:50.000Z</time>
      </trkpt>
      <trkpt lat="43.48903" lon="1.49967">
        <ele>274.79998779297</ele>
        <time>2020-06-08T14:07:52.000Z</time>
      </trkpt>
      <trkpt lat="43.48895" lon="1.49972">
        <ele>274.60000610352</ele>
        <time>2020-06-08T14:07:54.000Z</time>
      </trkpt>
      <trkpt lat="43.48885" lon="1.49976">
        <ele>274.20001220703</ele>
        <time>2020-06-08T14:07:56.000Z</time>
      </trkpt>
      <trkpt lat="43.48875" lon="1.4998">
        <ele>273.60000610352</ele>
        <time>2020-06-08T14:07:58.000Z</time>
      </trkpt>
      <trkpt lat="43.48865" lon="1.49985">
        <ele>273</ele>
        <time>2020-06-08T14:08:00.000Z</time>
      </trkpt>
      <trkpt lat="43.48854" lon="1.49989">
        <ele>272.79998779297</ele>
        <time>2020-06-08T14:08:02.000Z</time>
      </trkpt>
      <trkpt lat="43.48843" lon="1.49994">
        <ele>272.39999389648</ele>
        <time>2020-06-08T14:08:04.000Z</time>
      </trkpt>
      <trkpt lat="43.48832" lon="1.49998">
        <ele>271.39999389648</ele>
        <time>2020-06-08T14:08:06.000Z</time>
      </trkpt>
      <trkpt lat="43.48821" lon="1.50004">
        <ele>270.79998779297</ele>
        <time>2020-06-08T14:08:08.000Z</time>
      </trkpt>
      <trkpt lat="43.4881" lon="1.5001">
        <ele>270.39999389648</ele>
        <time>2020-06-08T14:08:10.000Z</time>
      </trkpt>
      <trkpt lat="43.488" lon="1.50016">
        <ele>270</ele>
        <time>2020-06-08T14:08:12.000Z</time>
      </trkpt>
      <trkpt lat="43.48789" lon="1.50023">
        <ele>269.60000610352</ele>
        <time>2020-06-08T14:08:14.000Z</time>
      </trkpt>
      <trkpt lat="43.48779" lon="1.5003">
        <ele>269.39999389648</ele>
        <time>2020-06-08T14:08:16.000Z</time>
      </trkpt>
      <trkpt lat="43.48769" lon="1.50038">
        <ele>269</ele>
        <time>2020-06-08T14:08:18.000Z</time>
      </trkpt>
      <trkpt lat="43.48758" lon="1.50046">
        <ele>268.79998779297</ele>
        <time>2020-06-08T14:08:20.000Z</time>
      </trkpt>
      <trkpt lat="43.48747" lon="1.50054">
        <ele>268.79998779297</ele>
        <time>2020-06-08T14:08:22.000Z</time>
      </trkpt>
      <trkpt lat="43.48736" lon="1.50062">
        <ele>268.60000610352</ele>
        <time>2020-06-08T14:08:24.000Z</time>
      </trkpt>
      <trkpt lat="43.48726" lon="1.5007">
        <ele>268.20001220703</ele>
        <time>2020-06-08T14:08:26.000Z</time>
      </trkpt>
      <trkpt lat="43.48715" lon="1.50078">
        <ele>268.20001220703</ele>
        <time>2020-06-08T14:08:28.000Z</time>
      </trkpt>
      <trkpt lat="43.4871" lon="1.50082">
        <ele>268.20001220703</ele>
        <time>2020-06-08T14:08:29.000Z</time>
      </trkpt>
      <trkpt lat="43.48705" lon="1.50086">
        <ele>268</ele>
        <time>2020-06-08T14:08:30.000Z</time>
      </trkpt>
      <trkpt lat="43.48695" lon="1.50093">
        <ele>267.79998779297</ele>
        <time>2020-06-08T14:08:32.000Z</time>
      </trkpt>
      <trkpt lat="43.48685" lon="1.501">
        <ele>268</ele>
        <time>2020-06-08T14:08:34.000Z</time>
      </trkpt>
      <trkpt lat="43.48675" lon="1.50107">
        <ele>267.79998779297</ele>
        <time>2020-06-08T14:08:36.000Z</time>
      </trkpt>
      <trkpt lat="43.48666" lon="1.50114">
        <ele>267.79998779297</ele>
        <time>2020-06-08T14:08:38.000Z</time>
      </trkpt>
      <trkpt lat="43.48656" lon="1.50121">
        <ele>267.79998779297</ele>
        <time>2020-06-08T14:08:40.000Z</time>
      </trkpt>
      <trkpt lat="43.48647" lon="1.50127">
        <ele>267.60000610352</ele>
        <time>2020-06-08T14:08:42.000Z</time>
      </trkpt>
      <trkpt lat="43.48638" lon="1.50133">
        <ele>267.60000610352</ele>
        <time>2020-06-08T14:08:44.000Z</time>
      </trkpt>
      <trkpt lat="43.4863" lon="1.50139">
        <ele>267.39999389648</ele>
        <time>2020-06-08T14:08:46.000Z</time>
      </trkpt>
      <trkpt lat="43.48622" lon="1.50145">
        <ele>267.39999389648</ele>
        <time>2020-06-08T14:08:48.000Z</time>
      </trkpt>
      <trkpt lat="43.48614" lon="1.5015">
        <ele>267.20001220703</ele>
        <time>2020-06-08T14:08:50.000Z</time>
      </trkpt>
      <trkpt lat="43.48606" lon="1.50155">
        <ele>267.20001220703</ele>
        <time>2020-06-08T14:08:52.000Z</time>
      </trkpt>
      <trkpt lat="43.48598" lon="1.50161">
        <ele>267.20001220703</ele>
        <time>2020-06-08T14:08:54.000Z</time>
      </trkpt>
      <trkpt lat="43.48591" lon="1.50167">
        <ele>267.20001220703</ele>
        <time>2020-06-08T14:08:56.000Z</time>
      </trkpt>
      <trkpt lat="43.48584" lon="1.50171">
        <ele>267.20001220703</ele>
        <time>2020-06-08T14:08:58.000Z</time>
      </trkpt>
      <trkpt lat="43.48578" lon="1.50176">
        <ele>267.20001220703</ele>
        <time>2020-06-08T14:09:00.000Z</time>
      </trkpt>
      <trkpt lat="43.48571" lon="1.5018">
        <ele>267.39999389648</ele>
        <time>2020-06-08T14:09:02.000Z</time>
      </trkpt>
      <trkpt lat="43.48564" lon="1.50185">
        <ele>267.60000610352</ele>
        <time>2020-06-08T14:09:04.000Z</time>
      </trkpt>
      <trkpt lat="43.48557" lon="1.50189">
        <ele>267.60000610352</ele>
        <time>2020-06-08T14:09:06.000Z</time>
      </trkpt>
      <trkpt lat="43.4855" lon="1.50194">
        <ele>268</ele>
        <time>2020-06-08T14:09:08.000Z</time>
      </trkpt>
      <trkpt lat="43.48541" lon="1.50199">
        <ele>268</ele>
        <time>2020-06-08T14:09:10.000Z</time>
      </trkpt>
      <trkpt lat="43.48531" lon="1.50205">
        <ele>268</ele>
        <time>2020-06-08T14:09:12.000Z</time>
      </trkpt>
      <trkpt lat="43.4852" lon="1.5021">
        <ele>268</ele>
        <time>2020-06-08T14:09:14.000Z</time>
      </trkpt>
      <trkpt lat="43.48507" lon="1.50216">
        <ele>268</ele>
        <time>2020-06-08T14:09:16.000Z</time>
      </trkpt>
      <trkpt lat="43.48492" lon="1.50224">
        <ele>267.60000610352</ele>
        <time>2020-06-08T14:09:18.000Z</time>
      </trkpt>
      <trkpt lat="43.48476" lon="1.50232">
        <ele>267.20001220703</ele>
        <time>2020-06-08T14:09:20.000Z</time>
      </trkpt>
      <trkpt lat="43.48459" lon="1.50241">
        <ele>266.39999389648</ele>
        <time>2020-06-08T14:09:22.000Z</time>
      </trkpt>
      <trkpt lat="43.48451" lon="1.50245">
        <ele>266</ele>
        <time>2020-06-08T14:09:23.000Z</time>
      </trkpt>
      <trkpt lat="43.48442" lon="1.5025">
        <ele>265.20001220703</ele>
        <time>2020-06-08T14:09:24.000Z</time>
      </trkpt>
      <trkpt lat="43.48433" lon="1.50255">
        <ele>264.60000610352</ele>
        <time>2020-06-08T14:09:25.000Z</time>
      </trkpt>
      <trkpt lat="43.48425" lon="1.50261">
        <ele>263.79998779297</ele>
        <time>2020-06-08T14:09:26.000Z</time>
      </trkpt>
      <trkpt lat="43.48416" lon="1.50267">
        <ele>263</ele>
        <time>2020-06-08T14:09:27.000Z</time>
      </trkpt>
      <trkpt lat="43.48408" lon="1.50272">
        <ele>262.60000610352</ele>
        <time>2020-06-08T14:09:28.000Z</time>
      </trkpt>
      <trkpt lat="43.48393" lon="1.50283">
        <ele>261.20001220703</ele>
        <time>2020-06-08T14:09:30.000Z</time>
      </trkpt>
      <trkpt lat="43.48378" lon="1.50294">
        <ele>260.39999389648</ele>
        <time>2020-06-08T14:09:32.000Z</time>
      </trkpt>
      <trkpt lat="43.48371" lon="1.50299">
        <ele>260</ele>
        <time>2020-06-08T14:09:33.000Z</time>
      </trkpt>
      <trkpt lat="43.48363" lon="1.50305">
        <ele>260</ele>
        <time>2020-06-08T14:09:34.000Z</time>
      </trkpt>
      <trkpt lat="43.48349" lon="1.50316">
        <ele>259.79998779297</ele>
        <time>2020-06-08T14:09:36.000Z</time>
      </trkpt>
      <trkpt lat="43.48335" lon="1.50329">
        <ele>259.60000610352</ele>
        <time>2020-06-08T14:09:38.000Z</time>
      </trkpt>
      <trkpt lat="43.48328" lon="1.50335">
        <ele>259.60000610352</ele>
        <time>2020-06-08T14:09:39.000Z</time>
      </trkpt>
      <trkpt lat="43.48321" lon="1.50341">
        <ele>259.60000610352</ele>
        <time>2020-06-08T14:09:40.000Z</time>
      </trkpt>
      <trkpt lat="43.48307" lon="1.50351">
        <ele>259.39999389648</ele>
        <time>2020-06-08T14:09:42.000Z</time>
      </trkpt>
      <trkpt lat="43.48293" lon="1.50361">
        <ele>259.39999389648</ele>
        <time>2020-06-08T14:09:44.000Z</time>
      </trkpt>
      <trkpt lat="43.48282" lon="1.50369">
        <ele>259.39999389648</ele>
        <time>2020-06-08T14:09:46.000Z</time>
      </trkpt>
      <trkpt lat="43.48273" lon="1.50377">
        <ele>259.20001220703</ele>
        <time>2020-06-08T14:09:48.000Z</time>
      </trkpt>
      <trkpt lat="43.48267" lon="1.50383">
        <ele>259.20001220703</ele>
        <time>2020-06-08T14:09:50.000Z</time>
      </trkpt>
      <trkpt lat="43.48264" lon="1.50391">
        <ele>259.20001220703</ele>
        <time>2020-06-08T14:09:52.000Z</time>
      </trkpt>
      <trkpt lat="43.48267" lon="1.50399">
        <ele>259</ele>
        <time>2020-06-08T14:09:54.000Z</time>
      </trkpt>
      <trkpt lat="43.48273" lon="1.50405">
        <ele>259</ele>
        <time>2020-06-08T14:09:56.000Z</time>
      </trkpt>
      <trkpt lat="43.48279" lon="1.50412">
        <ele>258.79998779297</ele>
        <time>2020-06-08T14:09:58.000Z</time>
      </trkpt>
      <trkpt lat="43.48285" lon="1.50419">
        <ele>258.60000610352</ele>
        <time>2020-06-08T14:10:00.000Z</time>
      </trkpt>
      <trkpt lat="43.48292" lon="1.50428">
        <ele>258.39999389648</ele>
        <time>2020-06-08T14:10:02.000Z</time>
      </trkpt>
      <trkpt lat="43.48299" lon="1.50438">
        <ele>258.39999389648</ele>
        <time>2020-06-08T14:10:04.000Z</time>
      </trkpt>
      <trkpt lat="43.48306" lon="1.50449">
        <ele>258.20001220703</ele>
        <time>2020-06-08T14:10:06.000Z</time>
      </trkpt>
      <trkpt lat="43.48308" lon="1.50455">
        <ele>258.20001220703</ele>
        <time>2020-06-08T14:10:07.000Z</time>
      </trkpt>
      <trkpt lat="43.48311" lon="1.50461">
        <ele>258.20001220703</ele>
        <time>2020-06-08T14:10:08.000Z</time>
      </trkpt>
      <trkpt lat="43.48317" lon="1.50474">
        <ele>258</ele>
        <time>2020-06-08T14:10:10.000Z</time>
      </trkpt>
      <trkpt lat="43.48322" lon="1.50488">
        <ele>258</ele>
        <time>2020-06-08T14:10:12.000Z</time>
      </trkpt>
      <trkpt lat="43.48328" lon="1.50502">
        <ele>258</ele>
        <time>2020-06-08T14:10:14.000Z</time>
      </trkpt>
      <trkpt lat="43.48333" lon="1.50517">
        <ele>257.79998779297</ele>
        <time>2020-06-08T14:10:16.000Z</time>
      </trkpt>
      <trkpt lat="43.48339" lon="1.50531">
        <ele>257.60000610352</ele>
        <time>2020-06-08T14:10:18.000Z</time>
      </trkpt>
      <trkpt lat="43.48344" lon="1.50546">
        <ele>257.39999389648</ele>
        <time>2020-06-08T14:10:20.000Z</time>
      </trkpt>
      <trkpt lat="43.48349" lon="1.5056">
        <ele>257.20001220703</ele>
        <time>2020-06-08T14:10:22.000Z</time>
      </trkpt>
      <trkpt lat="43.48354" lon="1.50574">
        <ele>257</ele>
        <time>2020-06-08T14:10:24.000Z</time>
      </trkpt>
      <trkpt lat="43.48359" lon="1.50587">
        <ele>256.79998779297</ele>
        <time>2020-06-08T14:10:26.000Z</time>
      </trkpt>
      <trkpt lat="43.48363" lon="1.506">
        <ele>256.79998779297</ele>
        <time>2020-06-08T14:10:28.000Z</time>
      </trkpt>
      <trkpt lat="43.48368" lon="1.50613">
        <ele>256.79998779297</ele>
        <time>2020-06-08T14:10:30.000Z</time>
      </trkpt>
      <trkpt lat="43.48372" lon="1.50625">
        <ele>256.79998779297</ele>
        <time>2020-06-08T14:10:32.000Z</time>
      </trkpt>
      <trkpt lat="43.48377" lon="1.50638">
        <ele>256.79998779297</ele>
        <time>2020-06-08T14:10:34.000Z</time>
      </trkpt>
      <trkpt lat="43.48381" lon="1.5065">
        <ele>256.79998779297</ele>
        <time>2020-06-08T14:10:36.000Z</time>
      </trkpt>
      <trkpt lat="43.48386" lon="1.50662">
        <ele>256.60000610352</ele>
        <time>2020-06-08T14:10:38.000Z</time>
      </trkpt>
      <trkpt lat="43.4839" lon="1.50675">
        <ele>256.60000610352</ele>
        <time>2020-06-08T14:10:40.000Z</time>
      </trkpt>
      <trkpt lat="43.48395" lon="1.50687">
        <ele>256.79998779297</ele>
        <time>2020-06-08T14:10:42.000Z</time>
      </trkpt>
      <trkpt lat="43.48399" lon="1.50699">
        <ele>256.79998779297</ele>
        <time>2020-06-08T14:10:44.000Z</time>
      </trkpt>
      <trkpt lat="43.48403" lon="1.50712">
        <ele>257</ele>
        <time>2020-06-08T14:10:46.000Z</time>
      </trkpt>
      <trkpt lat="43.48406" lon="1.50725">
        <ele>257</ele>
        <time>2020-06-08T14:10:48.000Z</time>
      </trkpt>
      <trkpt lat="43.48409" lon="1.50739">
        <ele>257</ele>
        <time>2020-06-08T14:10:50.000Z</time>
      </trkpt>
      <trkpt lat="43.48412" lon="1.50752">
        <ele>257</ele>
        <time>2020-06-08T14:10:52.000Z</time>
      </trkpt>
      <trkpt lat="43.48415" lon="1.50766">
        <ele>257</ele>
        <time>2020-06-08T14:10:54.000Z</time>
      </trkpt>
      <trkpt lat="43.48418" lon="1.5078">
        <ele>257</ele>
        <time>2020-06-08T14:10:56.000Z</time>
      </trkpt>
      <trkpt lat="43.4842" lon="1.50795">
        <ele>257</ele>
        <time>2020-06-08T14:10:58.000Z</time>
      </trkpt>
      <trkpt lat="43.48423" lon="1.5081">
        <ele>256.79998779297</ele>
        <time>2020-06-08T14:11:00.000Z</time>
      </trkpt>
      <trkpt lat="43.48426" lon="1.50826">
        <ele>256.60000610352</ele>
        <time>2020-06-08T14:11:02.000Z</time>
      </trkpt>
      <trkpt lat="43.48429" lon="1.50841">
        <ele>256.20001220703</ele>
        <time>2020-06-08T14:11:04.000Z</time>
      </trkpt>
      <trkpt lat="43.4843" lon="1.50848">
        <ele>256</ele>
        <time>2020-06-08T14:11:05.000Z</time>
      </trkpt>
      <trkpt lat="43.48432" lon="1.50856">
        <ele>255.80000305176</ele>
        <time>2020-06-08T14:11:06.000Z</time>
      </trkpt>
      <trkpt lat="43.48434" lon="1.50873">
        <ele>255</ele>
        <time>2020-06-08T14:11:08.000Z</time>
      </trkpt>
      <trkpt lat="43.48437" lon="1.50892">
        <ele>254.39999389648</ele>
        <time>2020-06-08T14:11:10.000Z</time>
      </trkpt>
      <trkpt lat="43.4844" lon="1.50912">
        <ele>254</ele>
        <time>2020-06-08T14:11:12.000Z</time>
      </trkpt>
      <trkpt lat="43.48442" lon="1.50934">
        <ele>253</ele>
        <time>2020-06-08T14:11:14.000Z</time>
      </trkpt>
      <trkpt lat="43.48443" lon="1.50945">
        <ele>252.80000305176</ele>
        <time>2020-06-08T14:11:15.000Z</time>
      </trkpt>
      <trkpt lat="43.48444" lon="1.50955">
        <ele>252</ele>
        <time>2020-06-08T14:11:16.000Z</time>
      </trkpt>
      <trkpt lat="43.48445" lon="1.50966">
        <ele>251.60000610352</ele>
        <time>2020-06-08T14:11:17.000Z</time>
      </trkpt>
      <trkpt lat="43.48446" lon="1.50977">
        <ele>251.19999694824</ele>
        <time>2020-06-08T14:11:18.000Z</time>
      </trkpt>
      <trkpt lat="43.48448" lon="1.50999">
        <ele>249.80000305176</ele>
        <time>2020-06-08T14:11:20.000Z</time>
      </trkpt>
      <trkpt lat="43.4845" lon="1.51021">
        <ele>249.19999694824</ele>
        <time>2020-06-08T14:11:22.000Z</time>
      </trkpt>
      <trkpt lat="43.48452" lon="1.51043">
        <ele>248.39999389648</ele>
        <time>2020-06-08T14:11:24.000Z</time>
      </trkpt>
      <trkpt lat="43.48454" lon="1.51062">
        <ele>247</ele>
        <time>2020-06-08T14:11:26.000Z</time>
      </trkpt>
      <trkpt lat="43.48456" lon="1.51072">
        <ele>246.39999389648</ele>
        <time>2020-06-08T14:11:27.000Z</time>
      </trkpt>
      <trkpt lat="43.48458" lon="1.51081">
        <ele>246</ele>
        <time>2020-06-08T14:11:28.000Z</time>
      </trkpt>
      <trkpt lat="43.48462" lon="1.5109">
        <ele>245.80000305176</ele>
        <time>2020-06-08T14:11:29.000Z</time>
      </trkpt>
      <trkpt lat="43.48466" lon="1.51098">
        <ele>245.39999389648</ele>
        <time>2020-06-08T14:11:30.000Z</time>
      </trkpt>
      <trkpt lat="43.48471" lon="1.51106">
        <ele>244.60000610352</ele>
        <time>2020-06-08T14:11:31.000Z</time>
      </trkpt>
      <trkpt lat="43.48478" lon="1.51113">
        <ele>244</ele>
        <time>2020-06-08T14:11:32.000Z</time>
      </trkpt>
      <trkpt lat="43.48485" lon="1.5112">
        <ele>243.39999389648</ele>
        <time>2020-06-08T14:11:33.000Z</time>
      </trkpt>
      <trkpt lat="43.48493" lon="1.51127">
        <ele>243</ele>
        <time>2020-06-08T14:11:34.000Z</time>
      </trkpt>
      <trkpt lat="43.48501" lon="1.51134">
        <ele>242.19999694824</ele>
        <time>2020-06-08T14:11:35.000Z</time>
      </trkpt>
      <trkpt lat="43.4851" lon="1.5114">
        <ele>241.19999694824</ele>
        <time>2020-06-08T14:11:36.000Z</time>
      </trkpt>
      <trkpt lat="43.48519" lon="1.51147">
        <ele>240.19999694824</ele>
        <time>2020-06-08T14:11:37.000Z</time>
      </trkpt>
      <trkpt lat="43.48529" lon="1.51153">
        <ele>239.60000610352</ele>
        <time>2020-06-08T14:11:38.000Z</time>
      </trkpt>
      <trkpt lat="43.48547" lon="1.51166">
        <ele>238.80000305176</ele>
        <time>2020-06-08T14:11:40.000Z</time>
      </trkpt>
      <trkpt lat="43.48565" lon="1.51178">
        <ele>236.60000610352</ele>
        <time>2020-06-08T14:11:42.000Z</time>
      </trkpt>
      <trkpt lat="43.48574" lon="1.51185">
        <ele>235.19999694824</ele>
        <time>2020-06-08T14:11:43.000Z</time>
      </trkpt>
      <trkpt lat="43.48584" lon="1.51191">
        <ele>234.39999389648</ele>
        <time>2020-06-08T14:11:44.000Z</time>
      </trkpt>
      <trkpt lat="43.48593" lon="1.51197">
        <ele>234</ele>
        <time>2020-06-08T14:11:45.000Z</time>
      </trkpt>
      <trkpt lat="43.48602" lon="1.51203">
        <ele>232.60000610352</ele>
        <time>2020-06-08T14:11:46.000Z</time>
      </trkpt>
      <trkpt lat="43.4861" lon="1.51209">
        <ele>231.60000610352</ele>
        <time>2020-06-08T14:11:47.000Z</time>
      </trkpt>
      <trkpt lat="43.48619" lon="1.51215">
        <ele>230.60000610352</ele>
        <time>2020-06-08T14:11:48.000Z</time>
      </trkpt>
      <trkpt lat="43.48628" lon="1.5122">
        <ele>230</ele>
        <time>2020-06-08T14:11:49.000Z</time>
      </trkpt>
      <trkpt lat="43.48637" lon="1.51226">
        <ele>229.19999694824</ele>
        <time>2020-06-08T14:11:50.000Z</time>
      </trkpt>
      <trkpt lat="43.48645" lon="1.51232">
        <ele>228.19999694824</ele>
        <time>2020-06-08T14:11:51.000Z</time>
      </trkpt>
      <trkpt lat="43.48654" lon="1.51237">
        <ele>227.39999389648</ele>
        <time>2020-06-08T14:11:52.000Z</time>
      </trkpt>
      <trkpt lat="43.48662" lon="1.51243">
        <ele>226.80000305176</ele>
        <time>2020-06-08T14:11:53.000Z</time>
      </trkpt>
      <trkpt lat="43.48669" lon="1.51248">
        <ele>226.39999389648</ele>
        <time>2020-06-08T14:11:54.000Z</time>
      </trkpt>
      <trkpt lat="43.48677" lon="1.51253">
        <ele>225.80000305176</ele>
        <time>2020-06-08T14:11:55.000Z</time>
      </trkpt>
      <trkpt lat="43.48685" lon="1.51259">
        <ele>225.60000610352</ele>
        <time>2020-06-08T14:11:56.000Z</time>
      </trkpt>
      <trkpt lat="43.487" lon="1.51269">
        <ele>225.39999389648</ele>
        <time>2020-06-08T14:11:58.000Z</time>
      </trkpt>
      <trkpt lat="43.48715" lon="1.51278">
        <ele>225.19999694824</ele>
        <time>2020-06-08T14:12:00.000Z</time>
      </trkpt>
      <trkpt lat="43.48728" lon="1.51287">
        <ele>224.80000305176</ele>
        <time>2020-06-08T14:12:02.000Z</time>
      </trkpt>
      <trkpt lat="43.48734" lon="1.51291">
        <ele>224.60000610352</ele>
        <time>2020-06-08T14:12:03.000Z</time>
      </trkpt>
      <trkpt lat="43.48739" lon="1.51295">
        <ele>224.39999389648</ele>
        <time>2020-06-08T14:12:04.000Z</time>
      </trkpt>
      <trkpt lat="43.4875" lon="1.513">
        <ele>224.19999694824</ele>
        <time>2020-06-08T14:12:06.000Z</time>
      </trkpt>
      <trkpt lat="43.48761" lon="1.51301">
        <ele>224</ele>
        <time>2020-06-08T14:12:08.000Z</time>
      </trkpt>
      <trkpt lat="43.48772" lon="1.51297">
        <ele>223.80000305176</ele>
        <time>2020-06-08T14:12:10.000Z</time>
      </trkpt>
      <trkpt lat="43.48784" lon="1.51291">
        <ele>223.60000610352</ele>
        <time>2020-06-08T14:12:12.000Z</time>
      </trkpt>
      <trkpt lat="43.48789" lon="1.51289">
        <ele>223.39999389648</ele>
        <time>2020-06-08T14:12:13.000Z</time>
      </trkpt>
      <trkpt lat="43.48795" lon="1.51287">
        <ele>223.19999694824</ele>
        <time>2020-06-08T14:12:14.000Z</time>
      </trkpt>
      <trkpt lat="43.48806" lon="1.51288">
        <ele>223</ele>
        <time>2020-06-08T14:12:16.000Z</time>
      </trkpt>
      <trkpt lat="43.48817" lon="1.51294">
        <ele>221.80000305176</ele>
        <time>2020-06-08T14:12:18.000Z</time>
      </trkpt>
      <trkpt lat="43.48829" lon="1.51307">
        <ele>220.19999694824</ele>
        <time>2020-06-08T14:12:20.000Z</time>
      </trkpt>
      <trkpt lat="43.48835" lon="1.51315">
        <ele>219.80000305176</ele>
        <time>2020-06-08T14:12:21.000Z</time>
      </trkpt>
      <trkpt lat="43.4884" lon="1.51323">
        <ele>219.39999389648</ele>
        <time>2020-06-08T14:12:22.000Z</time>
      </trkpt>
      <trkpt lat="43.48846" lon="1.51332">
        <ele>219</ele>
        <time>2020-06-08T14:12:23.000Z</time>
      </trkpt>
      <trkpt lat="43.48852" lon="1.5134">
        <ele>218.19999694824</ele>
        <time>2020-06-08T14:12:24.000Z</time>
      </trkpt>
      <trkpt lat="43.48858" lon="1.51348">
        <ele>217.80000305176</ele>
        <time>2020-06-08T14:12:25.000Z</time>
      </trkpt>
      <trkpt lat="43.48864" lon="1.51357">
        <ele>217.39999389648</ele>
        <time>2020-06-08T14:12:26.000Z</time>
      </trkpt>
      <trkpt lat="43.48876" lon="1.51374">
        <ele>217</ele>
        <time>2020-06-08T14:12:28.000Z</time>
      </trkpt>
      <trkpt lat="43.48882" lon="1.51383">
        <ele>215.39999389648</ele>
        <time>2020-06-08T14:12:29.000Z</time>
      </trkpt>
      <trkpt lat="43.48888" lon="1.51392">
        <ele>214.39999389648</ele>
        <time>2020-06-08T14:12:30.000Z</time>
      </trkpt>
      <trkpt lat="43.48894" lon="1.514">
        <ele>213.60000610352</ele>
        <time>2020-06-08T14:12:31.000Z</time>
      </trkpt>
      <trkpt lat="43.489" lon="1.51408">
        <ele>212.80000305176</ele>
        <time>2020-06-08T14:12:32.000Z</time>
      </trkpt>
      <trkpt lat="43.48904" lon="1.51415">
        <ele>211.60000610352</ele>
        <time>2020-06-08T14:12:33.000Z</time>
      </trkpt>
      <trkpt lat="43.48909" lon="1.51422">
        <ele>211</ele>
        <time>2020-06-08T14:12:34.000Z</time>
      </trkpt>
      <trkpt lat="43.48914" lon="1.51428">
        <ele>210.60000610352</ele>
        <time>2020-06-08T14:12:35.000Z</time>
      </trkpt>
      <trkpt lat="43.4892" lon="1.51434">
        <ele>209.80000305176</ele>
        <time>2020-06-08T14:12:36.000Z</time>
      </trkpt>
      <trkpt lat="43.48926" lon="1.5144">
        <ele>209</ele>
        <time>2020-06-08T14:12:37.000Z</time>
      </trkpt>
      <trkpt lat="43.48932" lon="1.51447">
        <ele>208.19999694824</ele>
        <time>2020-06-08T14:12:38.000Z</time>
      </trkpt>
      <trkpt lat="43.48938" lon="1.51455">
        <ele>207.60000610352</ele>
        <time>2020-06-08T14:12:39.000Z</time>
      </trkpt>
      <trkpt lat="43.48942" lon="1.51463">
        <ele>207.19999694824</ele>
        <time>2020-06-08T14:12:40.000Z</time>
      </trkpt>
      <trkpt lat="43.48951" lon="1.51478">
        <ele>206.60000610352</ele>
        <time>2020-06-08T14:12:42.000Z</time>
      </trkpt>
      <trkpt lat="43.48955" lon="1.51486">
        <ele>206.19999694824</ele>
        <time>2020-06-08T14:12:43.000Z</time>
      </trkpt>
      <trkpt lat="43.4896" lon="1.51494">
        <ele>205.80000305176</ele>
        <time>2020-06-08T14:12:44.000Z</time>
      </trkpt>
      <trkpt lat="43.48969" lon="1.51509">
        <ele>205.39999389648</ele>
        <time>2020-06-08T14:12:46.000Z</time>
      </trkpt>
      <trkpt lat="43.48974" lon="1.51515">
        <ele>205</ele>
        <time>2020-06-08T14:12:47.000Z</time>
      </trkpt>
      <trkpt lat="43.48979" lon="1.51522">
        <ele>204.39999389648</ele>
        <time>2020-06-08T14:12:48.000Z</time>
      </trkpt>
      <trkpt lat="43.48988" lon="1.51534">
        <ele>203.60000610352</ele>
        <time>2020-06-08T14:12:50.000Z</time>
      </trkpt>
      <trkpt lat="43.48997" lon="1.51548">
        <ele>202.80000305176</ele>
        <time>2020-06-08T14:12:52.000Z</time>
      </trkpt>
      <trkpt lat="43.49001" lon="1.51554">
        <ele>202.60000610352</ele>
        <time>2020-06-08T14:12:53.000Z</time>
      </trkpt>
      <trkpt lat="43.49005" lon="1.5156">
        <ele>202.39999389648</ele>
        <time>2020-06-08T14:12:54.000Z</time>
      </trkpt>
      <trkpt lat="43.49012" lon="1.5157">
        <ele>202</ele>
        <time>2020-06-08T14:12:56.000Z</time>
      </trkpt>
      <trkpt lat="43.49017" lon="1.51578">
        <ele>201.19999694824</ele>
        <time>2020-06-08T14:12:58.000Z</time>
      </trkpt>
      <trkpt lat="43.49022" lon="1.51586">
        <ele>200.19999694824</ele>
        <time>2020-06-08T14:13:00.000Z</time>
      </trkpt>
      <trkpt lat="43.49025" lon="1.51591">
        <ele>200</ele>
        <time>2020-06-08T14:13:01.000Z</time>
      </trkpt>
      <trkpt lat="43.49028" lon="1.51596">
        <ele>199.80000305176</ele>
        <time>2020-06-08T14:13:02.000Z</time>
      </trkpt>
      <trkpt lat="43.49036" lon="1.51607">
        <ele>199.19999694824</ele>
        <time>2020-06-08T14:13:04.000Z</time>
      </trkpt>
      <trkpt lat="43.4904" lon="1.51613">
        <ele>199</ele>
        <time>2020-06-08T14:13:05.000Z</time>
      </trkpt>
      <trkpt lat="43.49044" lon="1.51619">
        <ele>198.80000305176</ele>
        <time>2020-06-08T14:13:06.000Z</time>
      </trkpt>
      <trkpt lat="43.49052" lon="1.51631">
        <ele>198.60000610352</ele>
        <time>2020-06-08T14:13:08.000Z</time>
      </trkpt>
      <trkpt lat="43.49061" lon="1.51644">
        <ele>198.19999694824</ele>
        <time>2020-06-08T14:13:10.000Z</time>
      </trkpt>
      <trkpt lat="43.4907" lon="1.51657">
        <ele>197.80000305176</ele>
        <time>2020-06-08T14:13:12.000Z</time>
      </trkpt>
      <trkpt lat="43.49078" lon="1.5167">
        <ele>197.39999389648</ele>
        <time>2020-06-08T14:13:14.000Z</time>
      </trkpt>
      <trkpt lat="43.49088" lon="1.51682">
        <ele>196.60000610352</ele>
        <time>2020-06-08T14:13:16.000Z</time>
      </trkpt>
      <trkpt lat="43.49097" lon="1.51694">
        <ele>195.39999389648</ele>
        <time>2020-06-08T14:13:18.000Z</time>
      </trkpt>
      <trkpt lat="43.49106" lon="1.51705">
        <ele>194.60000610352</ele>
        <time>2020-06-08T14:13:20.000Z</time>
      </trkpt>
      <trkpt lat="43.49113" lon="1.51715">
        <ele>194.39999389648</ele>
        <time>2020-06-08T14:13:22.000Z</time>
      </trkpt>
      <trkpt lat="43.49121" lon="1.51725">
        <ele>194.19999694824</ele>
        <time>2020-06-08T14:13:24.000Z</time>
      </trkpt>
      <trkpt lat="43.49128" lon="1.51736">
        <ele>194</ele>
        <time>2020-06-08T14:13:26.000Z</time>
      </trkpt>
      <trkpt lat="43.49134" lon="1.51747">
        <ele>193.80000305176</ele>
        <time>2020-06-08T14:13:28.000Z</time>
      </trkpt>
      <trkpt lat="43.4914" lon="1.51758">
        <ele>193.60000610352</ele>
        <time>2020-06-08T14:13:30.000Z</time>
      </trkpt>
      <trkpt lat="43.49143" lon="1.51763">
        <ele>193.39999389648</ele>
        <time>2020-06-08T14:13:31.000Z</time>
      </trkpt>
      <trkpt lat="43.49147" lon="1.51768">
        <ele>193</ele>
        <time>2020-06-08T14:13:32.000Z</time>
      </trkpt>
      <trkpt lat="43.49153" lon="1.51778">
        <ele>192.60000610352</ele>
        <time>2020-06-08T14:13:34.000Z</time>
      </trkpt>
      <trkpt lat="43.49158" lon="1.51786">
        <ele>192.39999389648</ele>
        <time>2020-06-08T14:13:36.000Z</time>
      </trkpt>
      <trkpt lat="43.49163" lon="1.51794">
        <ele>192</ele>
        <time>2020-06-08T14:13:38.000Z</time>
      </trkpt>
      <trkpt lat="43.4917" lon="1.51801">
        <ele>191.80000305176</ele>
        <time>2020-06-08T14:13:40.000Z</time>
      </trkpt>
      <trkpt lat="43.49178" lon="1.51808">
        <ele>191.39999389648</ele>
        <time>2020-06-08T14:13:42.000Z</time>
      </trkpt>
      <trkpt lat="43.49182" lon="1.51813">
        <ele>191.39999389648</ele>
        <time>2020-06-08T14:13:43.000Z</time>
      </trkpt>
      <trkpt lat="43.49186" lon="1.51817">
        <ele>191.19999694824</ele>
        <time>2020-06-08T14:13:44.000Z</time>
      </trkpt>
      <trkpt lat="43.49195" lon="1.51825">
        <ele>190.60000610352</ele>
        <time>2020-06-08T14:13:46.000Z</time>
      </trkpt>
      <trkpt lat="43.49199" lon="1.51829">
        <ele>190.19999694824</ele>
        <time>2020-06-08T14:13:47.000Z</time>
      </trkpt>
      <trkpt lat="43.49204" lon="1.51833">
        <ele>189.60000610352</ele>
        <time>2020-06-08T14:13:48.000Z</time>
      </trkpt>
      <trkpt lat="43.49209" lon="1.51836">
        <ele>189.39999389648</ele>
        <time>2020-06-08T14:13:49.000Z</time>
      </trkpt>
      <trkpt lat="43.49214" lon="1.5184">
        <ele>189.39999389648</ele>
        <time>2020-06-08T14:13:50.000Z</time>
      </trkpt>
      <trkpt lat="43.49219" lon="1.51843">
        <ele>189.19999694824</ele>
        <time>2020-06-08T14:13:51.000Z</time>
      </trkpt>
      <trkpt lat="43.49224" lon="1.51847">
        <ele>188.80000305176</ele>
        <time>2020-06-08T14:13:52.000Z</time>
      </trkpt>
      <trkpt lat="43.49233" lon="1.51855">
        <ele>188</ele>
        <time>2020-06-08T14:13:54.000Z</time>
      </trkpt>
      <trkpt lat="43.49241" lon="1.51866">
        <ele>187.19999694824</ele>
        <time>2020-06-08T14:13:56.000Z</time>
      </trkpt>
      <trkpt lat="43.49245" lon="1.51873">
        <ele>186.80000305176</ele>
        <time>2020-06-08T14:13:57.000Z</time>
      </trkpt>
      <trkpt lat="43.49249" lon="1.5188">
        <ele>186</ele>
        <time>2020-06-08T14:13:58.000Z</time>
      </trkpt>
      <trkpt lat="43.49253" lon="1.51886">
        <ele>185.39999389648</ele>
        <time>2020-06-08T14:13:59.000Z</time>
      </trkpt>
      <trkpt lat="43.49257" lon="1.51893">
        <ele>185</ele>
        <time>2020-06-08T14:14:00.000Z</time>
      </trkpt>
      <trkpt lat="43.49265" lon="1.51908">
        <ele>184</ele>
        <time>2020-06-08T14:14:02.000Z</time>
      </trkpt>
      <trkpt lat="43.49274" lon="1.51921">
        <ele>182.60000610352</ele>
        <time>2020-06-08T14:14:04.000Z</time>
      </trkpt>
      <trkpt lat="43.49285" lon="1.51934">
        <ele>181.39999389648</ele>
        <time>2020-06-08T14:14:06.000Z</time>
      </trkpt>
      <trkpt lat="43.49296" lon="1.51945">
        <ele>180.19999694824</ele>
        <time>2020-06-08T14:14:08.000Z</time>
      </trkpt>
      <trkpt lat="43.49308" lon="1.51955">
        <ele>179.39999389648</ele>
        <time>2020-06-08T14:14:10.000Z</time>
      </trkpt>
      <trkpt lat="43.49313" lon="1.51959">
        <ele>179</ele>
        <time>2020-06-08T14:14:11.000Z</time>
      </trkpt>
      <trkpt lat="43.49318" lon="1.51962">
        <ele>178.60000610352</ele>
        <time>2020-06-08T14:14:12.000Z</time>
      </trkpt>
      <trkpt lat="43.49324" lon="1.51965">
        <ele>177.19999694824</ele>
        <time>2020-06-08T14:14:13.000Z</time>
      </trkpt>
      <trkpt lat="43.49329" lon="1.51969">
        <ele>176.39999389648</ele>
        <time>2020-06-08T14:14:14.000Z</time>
      </trkpt>
      <trkpt lat="43.49335" lon="1.51973">
        <ele>175.80000305176</ele>
        <time>2020-06-08T14:14:15.000Z</time>
      </trkpt>
      <trkpt lat="43.4934" lon="1.51977">
        <ele>175.19999694824</ele>
        <time>2020-06-08T14:14:16.000Z</time>
      </trkpt>
      <trkpt lat="43.4935" lon="1.51984">
        <ele>174.19999694824</ele>
        <time>2020-06-08T14:14:18.000Z</time>
      </trkpt>
      <trkpt lat="43.49359" lon="1.51993">
        <ele>173.19999694824</ele>
        <time>2020-06-08T14:14:20.000Z</time>
      </trkpt>
      <trkpt lat="43.49369" lon="1.52002">
        <ele>172</ele>
        <time>2020-06-08T14:14:22.000Z</time>
      </trkpt>
      <trkpt lat="43.49373" lon="1.52007">
        <ele>171.39999389648</ele>
        <time>2020-06-08T14:14:23.000Z</time>
      </trkpt>
      <trkpt lat="43.49377" lon="1.52012">
        <ele>170.80000305176</ele>
        <time>2020-06-08T14:14:24.000Z</time>
      </trkpt>
      <trkpt lat="43.49385" lon="1.52023">
        <ele>169.60000610352</ele>
        <time>2020-06-08T14:14:26.000Z</time>
      </trkpt>
      <trkpt lat="43.49392" lon="1.52035">
        <ele>168.80000305176</ele>
        <time>2020-06-08T14:14:28.000Z</time>
      </trkpt>
      <trkpt lat="43.49395" lon="1.5204">
        <ele>168.39999389648</ele>
        <time>2020-06-08T14:14:29.000Z</time>
      </trkpt>
      <trkpt lat="43.49398" lon="1.52045">
        <ele>168.19999694824</ele>
        <time>2020-06-08T14:14:30.000Z</time>
      </trkpt>
      <trkpt lat="43.49406" lon="1.52056">
        <ele>167.60000610352</ele>
        <time>2020-06-08T14:14:32.000Z</time>
      </trkpt>
      <trkpt lat="43.49409" lon="1.52061">
        <ele>167.19999694824</ele>
        <time>2020-06-08T14:14:33.000Z</time>
      </trkpt>
      <trkpt lat="43.49412" lon="1.52066">
        <ele>166.80000305176</ele>
        <time>2020-06-08T14:14:34.000Z</time>
      </trkpt>
      <trkpt lat="43.49418" lon="1.52075">
        <ele>166.39999389648</ele>
        <time>2020-06-08T14:14:36.000Z</time>
      </trkpt>
      <trkpt lat="43.49421" lon="1.52079">
        <ele>166.19999694824</ele>
        <time>2020-06-08T14:14:37.000Z</time>
      </trkpt>
      <trkpt lat="43.49423" lon="1.52083">
        <ele>165.80000305176</ele>
        <time>2020-06-08T14:14:38.000Z</time>
      </trkpt>
      <trkpt lat="43.49427" lon="1.52089">
        <ele>165.19999694824</ele>
        <time>2020-06-08T14:14:40.000Z</time>
      </trkpt>
      <trkpt lat="43.49429" lon="1.52091">
        <ele>165.19999694824</ele>
        <time>2020-06-08T14:14:41.000Z</time>
      </trkpt>
      <trkpt lat="43.4943" lon="1.52094">
        <ele>165</ele>
        <time>2020-06-08T14:14:42.000Z</time>
      </trkpt>
      <trkpt lat="43.49432" lon="1.52099">
        <ele>165</ele>
        <time>2020-06-08T14:14:44.000Z</time>
      </trkpt>
      <trkpt lat="43.49433" lon="1.52103">
        <ele>165</ele>
        <time>2020-06-08T14:14:46.000Z</time>
      </trkpt>
      <trkpt lat="43.49433" lon="1.52105">
        <ele>165</ele>
        <time>2020-06-08T14:14:48.000Z</time>
      </trkpt>
      <trkpt lat="43.49433" lon="1.52107">
        <ele>165</ele>
        <time>2020-06-08T14:16:01.000Z</time>
      </trkpt>
      <trkpt lat="43.49434" lon="1.52109">
        <ele>165</ele>
        <time>2020-06-08T14:16:02.000Z</time>
      </trkpt>
      <trkpt lat="43.49433" lon="1.52115">
        <ele>165</ele>
        <time>2020-06-08T14:16:04.000Z</time>
      </trkpt>
      <trkpt lat="43.49431" lon="1.52121">
        <ele>165.19999694824</ele>
        <time>2020-06-08T14:16:06.000Z</time>
      </trkpt>
      <trkpt lat="43.49427" lon="1.52128">
        <ele>165.19999694824</ele>
        <time>2020-06-08T14:16:08.000Z</time>
      </trkpt>
      <trkpt lat="43.49422" lon="1.52136">
        <ele>165.19999694824</ele>
        <time>2020-06-08T14:16:10.000Z</time>
      </trkpt>
      <trkpt lat="43.49418" lon="1.52144">
        <ele>165.19999694824</ele>
        <time>2020-06-08T14:16:12.000Z</time>
      </trkpt>
      <trkpt lat="43.49415" lon="1.52151">
        <ele>165</ele>
        <time>2020-06-08T14:16:14.000Z</time>
      </trkpt>
      <trkpt lat="43.49415" lon="1.52155">
        <ele>165</ele>
        <time>2020-06-08T14:16:15.000Z</time>
      </trkpt>
      <trkpt lat="43.49416" lon="1.5216">
        <ele>165</ele>
        <time>2020-06-08T14:16:16.000Z</time>
      </trkpt>
      <trkpt lat="43.4942" lon="1.52168">
        <ele>164.80000305176</ele>
        <time>2020-06-08T14:16:18.000Z</time>
      </trkpt>
      <trkpt lat="43.49424" lon="1.52179">
        <ele>164.80000305176</ele>
        <time>2020-06-08T14:16:20.000Z</time>
      </trkpt>
      <trkpt lat="43.49427" lon="1.52192">
        <ele>164.60000610352</ele>
        <time>2020-06-08T14:16:22.000Z</time>
      </trkpt>
      <trkpt lat="43.49428" lon="1.52207">
        <ele>164.60000610352</ele>
        <time>2020-06-08T14:16:24.000Z</time>
      </trkpt>
      <trkpt lat="43.49429" lon="1.52221">
        <ele>164.39999389648</ele>
        <time>2020-06-08T14:16:26.000Z</time>
      </trkpt>
      <trkpt lat="43.4943" lon="1.52236">
        <ele>163.39999389648</ele>
        <time>2020-06-08T14:16:28.000Z</time>
      </trkpt>
      <trkpt lat="43.49431" lon="1.52243">
        <ele>163</ele>
        <time>2020-06-08T14:16:29.000Z</time>
      </trkpt>
      <trkpt lat="43.49431" lon="1.52251">
        <ele>162.60000610352</ele>
        <time>2020-06-08T14:16:30.000Z</time>
      </trkpt>
      <trkpt lat="43.49429" lon="1.52264">
        <ele>162.19999694824</ele>
        <time>2020-06-08T14:16:32.000Z</time>
      </trkpt>
      <trkpt lat="43.49427" lon="1.52277">
        <ele>162.19999694824</ele>
        <time>2020-06-08T14:16:34.000Z</time>
      </trkpt>
      <trkpt lat="43.49426" lon="1.5229">
        <ele>162</ele>
        <time>2020-06-08T14:16:36.000Z</time>
      </trkpt>
      <trkpt lat="43.49424" lon="1.52303">
        <ele>162</ele>
        <time>2020-06-08T14:16:38.000Z</time>
      </trkpt>
      <trkpt lat="43.49422" lon="1.52317">
        <ele>162</ele>
        <time>2020-06-08T14:16:40.000Z</time>
      </trkpt>
      <trkpt lat="43.4942" lon="1.52331">
        <ele>161.80000305176</ele>
        <time>2020-06-08T14:16:42.000Z</time>
      </trkpt>
      <trkpt lat="43.49417" lon="1.52345">
        <ele>161.80000305176</ele>
        <time>2020-06-08T14:16:44.000Z</time>
      </trkpt>
      <trkpt lat="43.49415" lon="1.52358">
        <ele>161.60000610352</ele>
        <time>2020-06-08T14:16:46.000Z</time>
      </trkpt>
      <trkpt lat="43.49413" lon="1.52372">
        <ele>161.60000610352</ele>
        <time>2020-06-08T14:16:48.000Z</time>
      </trkpt>
      <trkpt lat="43.49411" lon="1.52385">
        <ele>161.39999389648</ele>
        <time>2020-06-08T14:16:50.000Z</time>
      </trkpt>
      <trkpt lat="43.4941" lon="1.52399">
        <ele>161.39999389648</ele>
        <time>2020-06-08T14:16:52.000Z</time>
      </trkpt>
      <trkpt lat="43.49408" lon="1.52413">
        <ele>161.39999389648</ele>
        <time>2020-06-08T14:16:54.000Z</time>
      </trkpt>
      <trkpt lat="43.49406" lon="1.52427">
        <ele>161.19999694824</ele>
        <time>2020-06-08T14:16:56.000Z</time>
      </trkpt>
      <trkpt lat="43.49403" lon="1.52441">
        <ele>161</ele>
        <time>2020-06-08T14:16:58.000Z</time>
      </trkpt>
      <trkpt lat="43.49401" lon="1.52455">
        <ele>161</ele>
        <time>2020-06-08T14:17:00.000Z</time>
      </trkpt>
      <trkpt lat="43.49397" lon="1.52467">
        <ele>161</ele>
        <time>2020-06-08T14:17:02.000Z</time>
      </trkpt>
      <trkpt lat="43.49394" lon="1.5248">
        <ele>161</ele>
        <time>2020-06-08T14:17:04.000Z</time>
      </trkpt>
      <trkpt lat="43.49391" lon="1.52492">
        <ele>161</ele>
        <time>2020-06-08T14:17:06.000Z</time>
      </trkpt>
      <trkpt lat="43.49387" lon="1.52505">
        <ele>161</ele>
        <time>2020-06-08T14:17:08.000Z</time>
      </trkpt>
      <trkpt lat="43.49386" lon="1.52512">
        <ele>160.80000305176</ele>
        <time>2020-06-08T14:17:09.000Z</time>
      </trkpt>
      <trkpt lat="43.49384" lon="1.52518">
        <ele>160.80000305176</ele>
        <time>2020-06-08T14:17:10.000Z</time>
      </trkpt>
      <trkpt lat="43.4938" lon="1.52532">
        <ele>160.80000305176</ele>
        <time>2020-06-08T14:17:12.000Z</time>
      </trkpt>
      <trkpt lat="43.49376" lon="1.52545">
        <ele>160.80000305176</ele>
        <time>2020-06-08T14:17:14.000Z</time>
      </trkpt>
      <trkpt lat="43.49373" lon="1.52559">
        <ele>160.80000305176</ele>
        <time>2020-06-08T14:17:16.000Z</time>
      </trkpt>
      <trkpt lat="43.4937" lon="1.52572">
        <ele>160.60000610352</ele>
        <time>2020-06-08T14:17:18.000Z</time>
      </trkpt>
      <trkpt lat="43.49369" lon="1.52579">
        <ele>160.39999389648</ele>
        <time>2020-06-08T14:17:19.000Z</time>
      </trkpt>
      <trkpt lat="43.49368" lon="1.52593">
        <ele>160.39999389648</ele>
        <time>2020-06-08T14:17:21.000Z</time>
      </trkpt>
      <trkpt lat="43.49367" lon="1.52607">
        <ele>160.19999694824</ele>
        <time>2020-06-08T14:17:23.000Z</time>
      </trkpt>
      <trkpt lat="43.49365" lon="1.52687">
        <ele>160</ele>
        <time>2020-06-08T14:17:35.000Z</time>
      </trkpt>
      <trkpt lat="43.49367" lon="1.527">
        <ele>160</ele>
        <time>2020-06-08T14:17:37.000Z</time>
      </trkpt>
      <trkpt lat="43.49372" lon="1.52725">
        <ele>160</ele>
        <time>2020-06-08T14:17:41.000Z</time>
      </trkpt>
      <trkpt lat="43.49386" lon="1.52766">
        <ele>159.80000305176</ele>
        <time>2020-06-08T14:17:48.000Z</time>
      </trkpt>
      <trkpt lat="43.49409" lon="1.52833">
        <ele>159.80000305176</ele>
        <time>2020-06-08T14:17:59.000Z</time>
      </trkpt>
      <trkpt lat="43.49428" lon="1.52909">
        <ele>159.60000610352</ele>
        <time>2020-06-08T14:18:11.000Z</time>
      </trkpt>
      <trkpt lat="43.4943" lon="1.52929">
        <ele>159.60000610352</ele>
        <time>2020-06-08T14:18:14.000Z</time>
      </trkpt>
      <trkpt lat="43.49416" lon="1.53003">
        <ele>159.39999389648</ele>
        <time>2020-06-08T14:18:26.000Z</time>
      </trkpt>
      <trkpt lat="43.49408" lon="1.53027">
        <ele>159</ele>
        <time>2020-06-08T14:18:30.000Z</time>
      </trkpt>
      <trkpt lat="43.49391" lon="1.53104">
        <ele>158.39999389648</ele>
        <time>2020-06-08T14:18:42.000Z</time>
      </trkpt>
      <trkpt lat="43.49387" lon="1.53123">
        <ele>158.39999389648</ele>
        <time>2020-06-08T14:18:45.000Z</time>
      </trkpt>
      <trkpt lat="43.49386" lon="1.53136">
        <ele>158.39999389648</ele>
        <time>2020-06-08T14:18:47.000Z</time>
      </trkpt>
      <trkpt lat="43.49397" lon="1.53177">
        <ele>158.60000610352</ele>
        <time>2020-06-08T14:18:54.000Z</time>
      </trkpt>
      <trkpt lat="43.49432" lon="1.53239">
        <ele>158.39999389648</ele>
        <time>2020-06-08T14:19:06.000Z</time>
      </trkpt>
      <trkpt lat="43.49472" lon="1.53292">
        <ele>158.39999389648</ele>
        <time>2020-06-08T14:19:18.000Z</time>
      </trkpt>
      <trkpt lat="43.49511" lon="1.53352">
        <ele>158</ele>
        <time>2020-06-08T14:19:29.000Z</time>
      </trkpt>
      <trkpt lat="43.4954" lon="1.53419">
        <ele>158.19999694824</ele>
        <time>2020-06-08T14:19:39.000Z</time>
      </trkpt>
      <trkpt lat="43.49561" lon="1.5347">
        <ele>158</ele>
        <time>2020-06-08T14:19:47.000Z</time>
      </trkpt>
      <trkpt lat="43.49587" lon="1.53535">
        <ele>158.19999694824</ele>
        <time>2020-06-08T14:20:01.000Z</time>
      </trkpt>
      <trkpt lat="43.49596" lon="1.53555">
        <ele>159.19999694824</ele>
        <time>2020-06-08T14:20:07.000Z</time>
      </trkpt>
      <trkpt lat="43.49607" lon="1.53573">
        <ele>159.60000610352</ele>
        <time>2020-06-08T14:20:14.000Z</time>
      </trkpt>
      <trkpt lat="43.4962" lon="1.53558">
        <ele>159.60000610352</ele>
        <time>2020-06-08T14:20:20.000Z</time>
      </trkpt>
      <trkpt lat="43.49639" lon="1.53539">
        <ele>158.19999694824</ele>
        <time>2020-06-08T14:20:25.000Z</time>
      </trkpt>
      <trkpt lat="43.49656" lon="1.5352">
        <ele>157</ele>
        <time>2020-06-08T14:20:30.000Z</time>
      </trkpt>
      <trkpt lat="43.49662" lon="1.53512">
        <ele>156.80000305176</ele>
        <time>2020-06-08T14:20:32.000Z</time>
      </trkpt>
      <trkpt lat="43.497" lon="1.53456">
        <ele>156.39999389648</ele>
        <time>2020-06-08T14:20:45.000Z</time>
      </trkpt>
      <trkpt lat="43.49716" lon="1.53429">
        <ele>156.19999694824</ele>
        <time>2020-06-08T14:20:51.000Z</time>
      </trkpt>
      <trkpt lat="43.49748" lon="1.53363">
        <ele>156.39999389648</ele>
        <time>2020-06-08T14:21:03.000Z</time>
      </trkpt>
      <trkpt lat="43.49784" lon="1.53303">
        <ele>156.39999389648</ele>
        <time>2020-06-08T14:21:14.000Z</time>
      </trkpt>
      <trkpt lat="43.49794" lon="1.53287">
        <ele>156</ele>
        <time>2020-06-08T14:21:17.000Z</time>
      </trkpt>
      <trkpt lat="43.49826" lon="1.53246">
        <ele>155.80000305176</ele>
        <time>2020-06-08T14:21:26.000Z</time>
      </trkpt>
      <trkpt lat="43.49846" lon="1.53222">
        <ele>155.80000305176</ele>
        <time>2020-06-08T14:21:32.000Z</time>
      </trkpt>
      <trkpt lat="43.49893" lon="1.53175">
        <ele>156</ele>
        <time>2020-06-08T14:21:44.000Z</time>
      </trkpt>
      <trkpt lat="43.49921" lon="1.53153">
        <ele>156.19999694824</ele>
        <time>2020-06-08T14:21:52.000Z</time>
      </trkpt>
      <trkpt lat="43.49954" lon="1.53125">
        <ele>157</ele>
        <time>2020-06-08T14:22:01.000Z</time>
      </trkpt>
      <trkpt lat="43.49965" lon="1.53114">
        <ele>157</ele>
        <time>2020-06-08T14:22:04.000Z</time>
      </trkpt>
      <trkpt lat="43.49984" lon="1.53096">
        <ele>157</ele>
        <time>2020-06-08T14:22:09.000Z</time>
      </trkpt>
      <trkpt lat="43.5001" lon="1.53071">
        <ele>156.80000305176</ele>
        <time>2020-06-08T14:22:15.000Z</time>
      </trkpt>
      <trkpt lat="43.50032" lon="1.53042">
        <ele>156</ele>
        <time>2020-06-08T14:22:21.000Z</time>
      </trkpt>
      <trkpt lat="43.50055" lon="1.53012">
        <ele>155.60000610352</ele>
        <time>2020-06-08T14:22:27.000Z</time>
      </trkpt>
      <trkpt lat="43.501" lon="1.52956">
        <ele>155.60000610352</ele>
        <time>2020-06-08T14:22:38.000Z</time>
      </trkpt>
      <trkpt lat="43.50109" lon="1.52948">
        <ele>155.60000610352</ele>
        <time>2020-06-08T14:22:43.000Z</time>
      </trkpt>
      <trkpt lat="43.5011" lon="1.52947">
        <ele>157</ele>
        <time>2020-06-08T14:23:00.000Z</time>
      </trkpt>
      <trkpt lat="43.5011" lon="1.52948">
        <ele>157</ele>
        <time>2020-06-08T14:23:03.000Z</time>
      </trkpt>
      <trkpt lat="43.5011" lon="1.52947">
        <ele>157</ele>
        <time>2020-06-08T14:27:51.000Z</time>
      </trkpt>
      <trkpt lat="43.50111" lon="1.52946">
        <ele>157</ele>
        <time>2020-06-08T14:27:56.000Z</time>
      </trkpt>
      <trkpt lat="43.50112" lon="1.52944">
        <ele>157.19999694824</ele>
        <time>2020-06-08T14:28:13.000Z</time>
      </trkpt>
      <trkpt lat="43.50113" lon="1.52941">
        <ele>157.19999694824</ele>
        <time>2020-06-08T14:28:17.000Z</time>
      </trkpt>
      <trkpt lat="43.50113" lon="1.52941">
        <ele>157.19999694824</ele>
        <time>2020-06-08T14:28:18.000Z</time>
      </trkpt>
      <trkpt lat="43.50114" lon="1.5294">
        <ele>157.19999694824</ele>
        <time>2020-06-08T14:28:19.000Z</time>
      </trkpt>
      <trkpt lat="43.50139" lon="1.52912">
        <ele>157.60000610352</ele>
        <time>2020-06-08T14:28:37.000Z</time>
      </trkpt>
      <trkpt lat="43.50184" lon="1.52878">
        <ele>157.60000610352</ele>
        <time>2020-06-08T14:28:54.000Z</time>
      </trkpt>
      <trkpt lat="43.50194" lon="1.52866">
        <ele>157.39999389648</ele>
        <time>2020-06-08T14:28:58.000Z</time>
      </trkpt>
      <trkpt lat="43.50207" lon="1.52856">
        <ele>157.19999694824</ele>
        <time>2020-06-08T14:29:02.000Z</time>
      </trkpt>
      <trkpt lat="43.50219" lon="1.52846">
        <ele>157.19999694824</ele>
        <time>2020-06-08T14:29:05.000Z</time>
      </trkpt>
      <trkpt lat="43.50259" lon="1.52811">
        <ele>156.80000305176</ele>
        <time>2020-06-08T14:29:16.000Z</time>
      </trkpt>
      <trkpt lat="43.50287" lon="1.52784">
        <ele>156.80000305176</ele>
        <time>2020-06-08T14:29:25.000Z</time>
      </trkpt>
      <trkpt lat="43.50308" lon="1.52761">
        <ele>157</ele>
        <time>2020-06-08T14:29:31.000Z</time>
      </trkpt>
      <trkpt lat="43.50318" lon="1.5275">
        <ele>156.80000305176</ele>
        <time>2020-06-08T14:29:34.000Z</time>
      </trkpt>
      <trkpt lat="43.50332" lon="1.52735">
        <ele>156.60000610352</ele>
        <time>2020-06-08T14:29:38.000Z</time>
      </trkpt>
      <trkpt lat="43.5034" lon="1.52723">
        <ele>156.39999389648</ele>
        <time>2020-06-08T14:29:41.000Z</time>
      </trkpt>
      <trkpt lat="43.50368" lon="1.52676">
        <ele>155.80000305176</ele>
        <time>2020-06-08T14:29:51.000Z</time>
      </trkpt>
      <trkpt lat="43.50387" lon="1.52622">
        <ele>156</ele>
        <time>2020-06-08T14:30:02.000Z</time>
      </trkpt>
      <trkpt lat="43.50395" lon="1.52593">
        <ele>155.80000305176</ele>
        <time>2020-06-08T14:30:07.000Z</time>
      </trkpt>
      <trkpt lat="43.50406" lon="1.52551">
        <ele>156</ele>
        <time>2020-06-08T14:30:14.000Z</time>
      </trkpt>
      <trkpt lat="43.50424" lon="1.52479">
        <ele>155.80000305176</ele>
        <time>2020-06-08T14:30:26.000Z</time>
      </trkpt>
      <trkpt lat="43.50428" lon="1.5246">
        <ele>155.60000610352</ele>
        <time>2020-06-08T14:30:29.000Z</time>
      </trkpt>
      <trkpt lat="43.50435" lon="1.52429">
        <ele>155.60000610352</ele>
        <time>2020-06-08T14:30:34.000Z</time>
      </trkpt>
      <trkpt lat="43.50436" lon="1.52402">
        <ele>155.60000610352</ele>
        <time>2020-06-08T14:30:38.000Z</time>
      </trkpt>
      <trkpt lat="43.50435" lon="1.52309">
        <ele>155.80000305176</ele>
        <time>2020-06-08T14:30:55.000Z</time>
      </trkpt>
      <trkpt lat="43.50434" lon="1.52287">
        <ele>156.19999694824</ele>
        <time>2020-06-08T14:30:59.000Z</time>
      </trkpt>
      <trkpt lat="43.50441" lon="1.52209">
        <ele>156.39999389648</ele>
        <time>2020-06-08T14:31:14.000Z</time>
      </trkpt>
      <trkpt lat="43.50448" lon="1.52187">
        <ele>156.60000610352</ele>
        <time>2020-06-08T14:31:18.000Z</time>
      </trkpt>
      <trkpt lat="43.50459" lon="1.52166">
        <ele>156.60000610352</ele>
        <time>2020-06-08T14:31:22.000Z</time>
      </trkpt>
      <trkpt lat="43.50499" lon="1.52116">
        <ele>156.39999389648</ele>
        <time>2020-06-08T14:31:34.000Z</time>
      </trkpt>
      <trkpt lat="43.50547" lon="1.52088">
        <ele>156.19999694824</ele>
        <time>2020-06-08T14:31:46.000Z</time>
      </trkpt>
      <trkpt lat="43.5058" lon="1.52082">
        <ele>156.19999694824</ele>
        <time>2020-06-08T14:31:53.000Z</time>
      </trkpt>
      <trkpt lat="43.50637" lon="1.52074">
        <ele>156</ele>
        <time>2020-06-08T14:32:05.000Z</time>
      </trkpt>
      <trkpt lat="43.50669" lon="1.52069">
        <ele>156</ele>
        <time>2020-06-08T14:32:12.000Z</time>
      </trkpt>
      <trkpt lat="43.50711" lon="1.52049">
        <ele>155.80000305176</ele>
        <time>2020-06-08T14:32:21.000Z</time>
      </trkpt>
      <trkpt lat="43.50726" lon="1.52038">
        <ele>155.60000610352</ele>
        <time>2020-06-08T14:32:25.000Z</time>
      </trkpt>
      <trkpt lat="43.50748" lon="1.52017">
        <ele>155.39999389648</ele>
        <time>2020-06-08T14:32:31.000Z</time>
      </trkpt>
      <trkpt lat="43.50765" lon="1.52002">
        <ele>155.39999389648</ele>
        <time>2020-06-08T14:32:35.000Z</time>
      </trkpt>
      <trkpt lat="43.50785" lon="1.51982">
        <ele>155.39999389648</ele>
        <time>2020-06-08T14:32:40.000Z</time>
      </trkpt>
      <trkpt lat="43.50828" lon="1.5193">
        <ele>155.60000610352</ele>
        <time>2020-06-08T14:32:52.000Z</time>
      </trkpt>
      <trkpt lat="43.50868" lon="1.51885">
        <ele>156.80000305176</ele>
        <time>2020-06-08T14:33:03.000Z</time>
      </trkpt>
      <trkpt lat="43.50912" lon="1.5184">
        <ele>157.19999694824</ele>
        <time>2020-06-08T14:33:14.000Z</time>
      </trkpt>
      <trkpt lat="43.5096" lon="1.51799">
        <ele>156.60000610352</ele>
        <time>2020-06-08T14:33:25.000Z</time>
      </trkpt>
      <trkpt lat="43.51014" lon="1.51778">
        <ele>156.60000610352</ele>
        <time>2020-06-08T14:33:37.000Z</time>
      </trkpt>
      <trkpt lat="43.5107" lon="1.51759">
        <ele>156.60000610352</ele>
        <time>2020-06-08T14:33:48.000Z</time>
      </trkpt>
      <trkpt lat="43.51117" lon="1.51743">
        <ele>156.60000610352</ele>
        <time>2020-06-08T14:34:03.000Z</time>
      </trkpt>
      <trkpt lat="43.51122" lon="1.51741">
        <ele>159.19999694824</ele>
        <time>2020-06-08T14:34:22.000Z</time>
      </trkpt>
      <trkpt lat="43.51167" lon="1.5173">
        <ele>158</ele>
        <time>2020-06-08T14:34:36.000Z</time>
      </trkpt>
      <trkpt lat="43.51176" lon="1.51727">
        <ele>157.19999694824</ele>
        <time>2020-06-08T14:34:38.000Z</time>
      </trkpt>
      <trkpt lat="43.5118" lon="1.51725">
        <ele>156.60000610352</ele>
        <time>2020-06-08T14:34:39.000Z</time>
      </trkpt>
      <trkpt lat="43.51187" lon="1.51723">
        <ele>156</ele>
        <time>2020-06-08T14:34:41.000Z</time>
      </trkpt>
      <trkpt lat="43.51196" lon="1.5172">
        <ele>155.60000610352</ele>
        <time>2020-06-08T14:34:44.000Z</time>
      </trkpt>
      <trkpt lat="43.51205" lon="1.51718">
        <ele>155.39999389648</ele>
        <time>2020-06-08T14:34:47.000Z</time>
      </trkpt>
      <trkpt lat="43.51219" lon="1.51713">
        <ele>155.19999694824</ele>
        <time>2020-06-08T14:34:51.000Z</time>
      </trkpt>
      <trkpt lat="43.51236" lon="1.51708">
        <ele>155</ele>
        <time>2020-06-08T14:34:55.000Z</time>
      </trkpt>
      <trkpt lat="43.51253" lon="1.51704">
        <ele>154.80000305176</ele>
        <time>2020-06-08T14:34:59.000Z</time>
      </trkpt>
      <trkpt lat="43.51263" lon="1.51701">
        <ele>154.60000610352</ele>
        <time>2020-06-08T14:35:01.000Z</time>
      </trkpt>
      <trkpt lat="43.51272" lon="1.51699">
        <ele>154.60000610352</ele>
        <time>2020-06-08T14:35:03.000Z</time>
      </trkpt>
      <trkpt lat="43.5129" lon="1.51694">
        <ele>154.60000610352</ele>
        <time>2020-06-08T14:35:07.000Z</time>
      </trkpt>
      <trkpt lat="43.51307" lon="1.5169">
        <ele>154.60000610352</ele>
        <time>2020-06-08T14:35:11.000Z</time>
      </trkpt>
      <trkpt lat="43.51368" lon="1.51668">
        <ele>154.80000305176</ele>
        <time>2020-06-08T14:35:24.000Z</time>
      </trkpt>
      <trkpt lat="43.51409" lon="1.51658">
        <ele>155</ele>
        <time>2020-06-08T14:35:32.000Z</time>
      </trkpt>
      <trkpt lat="43.5144" lon="1.51664">
        <ele>155.19999694824</ele>
        <time>2020-06-08T14:35:38.000Z</time>
      </trkpt>
      <trkpt lat="43.51472" lon="1.51706">
        <ele>155</ele>
        <time>2020-06-08T14:35:46.000Z</time>
      </trkpt>
      <trkpt lat="43.51478" lon="1.51719">
        <ele>155</ele>
        <time>2020-06-08T14:35:48.000Z</time>
      </trkpt>
      <trkpt lat="43.51482" lon="1.51737">
        <ele>154.80000305176</ele>
        <time>2020-06-08T14:35:51.000Z</time>
      </trkpt>
      <trkpt lat="43.51476" lon="1.51805">
        <ele>154.80000305176</ele>
        <time>2020-06-08T14:36:02.000Z</time>
      </trkpt>
      <trkpt lat="43.51478" lon="1.51837">
        <ele>154.80000305176</ele>
        <time>2020-06-08T14:36:07.000Z</time>
      </trkpt>
      <trkpt lat="43.5148" lon="1.51872">
        <ele>154.60000610352</ele>
        <time>2020-06-08T14:36:12.000Z</time>
      </trkpt>
      <trkpt lat="43.51483" lon="1.51891">
        <ele>154.60000610352</ele>
        <time>2020-06-08T14:36:15.000Z</time>
      </trkpt>
      <trkpt lat="43.51494" lon="1.51924">
        <ele>154.39999389648</ele>
        <time>2020-06-08T14:36:20.000Z</time>
      </trkpt>
      <trkpt lat="43.51509" lon="1.51953">
        <ele>154.19999694824</ele>
        <time>2020-06-08T14:36:25.000Z</time>
      </trkpt>
      <trkpt lat="43.51551" lon="1.52004">
        <ele>153.80000305176</ele>
        <time>2020-06-08T14:36:36.000Z</time>
      </trkpt>
      <trkpt lat="43.51593" lon="1.52052">
        <ele>153.80000305176</ele>
        <time>2020-06-08T14:36:47.000Z</time>
      </trkpt>
      <trkpt lat="43.51597" lon="1.52054">
        <ele>153.80000305176</ele>
        <time>2020-06-08T14:36:48.000Z</time>
      </trkpt>
      <trkpt lat="43.5161" lon="1.52059">
        <ele>153.80000305176</ele>
        <time>2020-06-08T14:36:51.000Z</time>
      </trkpt>
      <trkpt lat="43.51646" lon="1.5206">
        <ele>153.60000610352</ele>
        <time>2020-06-08T14:36:58.000Z</time>
      </trkpt>
      <trkpt lat="43.517" lon="1.52041">
        <ele>153.60000610352</ele>
        <time>2020-06-08T14:37:10.000Z</time>
      </trkpt>
      <trkpt lat="43.51725" lon="1.52022">
        <ele>153.60000610352</ele>
        <time>2020-06-08T14:37:17.000Z</time>
      </trkpt>
      <trkpt lat="43.51744" lon="1.52008">
        <ele>153.39999389648</ele>
        <time>2020-06-08T14:37:22.000Z</time>
      </trkpt>
      <trkpt lat="43.51756" lon="1.51999">
        <ele>153.19999694824</ele>
        <time>2020-06-08T14:37:25.000Z</time>
      </trkpt>
      <trkpt lat="43.51785" lon="1.51982">
        <ele>153.19999694824</ele>
        <time>2020-06-08T14:37:32.000Z</time>
      </trkpt>
      <trkpt lat="43.51795" lon="1.5198">
        <ele>153.19999694824</ele>
        <time>2020-06-08T14:37:34.000Z</time>
      </trkpt>
      <trkpt lat="43.51814" lon="1.51982">
        <ele>153</ele>
        <time>2020-06-08T14:37:38.000Z</time>
      </trkpt>
      <trkpt lat="43.51866" lon="1.51999">
        <ele>153.39999389648</ele>
        <time>2020-06-08T14:37:50.000Z</time>
      </trkpt>
      <trkpt lat="43.51905" lon="1.52014">
        <ele>153.39999389648</ele>
        <time>2020-06-08T14:37:59.000Z</time>
      </trkpt>
      <trkpt lat="43.5192" lon="1.5202">
        <ele>153.19999694824</ele>
        <time>2020-06-08T14:38:03.000Z</time>
      </trkpt>
      <trkpt lat="43.51949" lon="1.52026">
        <ele>153.39999389648</ele>
        <time>2020-06-08T14:38:10.000Z</time>
      </trkpt>
      <trkpt lat="43.52003" lon="1.52018">
        <ele>153.80000305176</ele>
        <time>2020-06-08T14:38:22.000Z</time>
      </trkpt>
      <trkpt lat="43.52015" lon="1.52013">
        <ele>154</ele>
        <time>2020-06-08T14:38:25.000Z</time>
      </trkpt>
      <trkpt lat="43.5203" lon="1.52005">
        <ele>154</ele>
        <time>2020-06-08T14:38:29.000Z</time>
      </trkpt>
      <trkpt lat="43.5205" lon="1.5199">
        <ele>153.80000305176</ele>
        <time>2020-06-08T14:38:34.000Z</time>
      </trkpt>
      <trkpt lat="43.52094" lon="1.51964">
        <ele>153.19999694824</ele>
        <time>2020-06-08T14:38:43.000Z</time>
      </trkpt>
      <trkpt lat="43.52103" lon="1.51962">
        <ele>153</ele>
        <time>2020-06-08T14:38:45.000Z</time>
      </trkpt>
      <trkpt lat="43.52134" lon="1.5196">
        <ele>152.60000610352</ele>
        <time>2020-06-08T14:38:51.000Z</time>
      </trkpt>
      <trkpt lat="43.52172" lon="1.51956">
        <ele>152.80000305176</ele>
        <time>2020-06-08T14:39:00.000Z</time>
      </trkpt>
      <trkpt lat="43.52238" lon="1.51939">
        <ele>153.60000610352</ele>
        <time>2020-06-08T14:39:14.000Z</time>
      </trkpt>
      <trkpt lat="43.52293" lon="1.51915">
        <ele>154.19999694824</ele>
        <time>2020-06-08T14:39:30.000Z</time>
      </trkpt>
      <trkpt lat="43.52324" lon="1.51902">
        <ele>154</ele>
        <time>2020-06-08T14:39:38.000Z</time>
      </trkpt>
      <trkpt lat="43.52377" lon="1.51882">
        <ele>153</ele>
        <time>2020-06-08T14:39:52.000Z</time>
      </trkpt>
      <trkpt lat="43.52406" lon="1.51865">
        <ele>153.39999389648</ele>
        <time>2020-06-08T14:40:04.000Z</time>
      </trkpt>
      <trkpt lat="43.52405" lon="1.51859">
        <ele>153.60000610352</ele>
        <time>2020-06-08T14:40:07.000Z</time>
      </trkpt>
      <trkpt lat="43.52405" lon="1.51857">
        <ele>155</ele>
        <time>2020-06-08T14:41:02.000Z</time>
      </trkpt>
      <trkpt lat="43.52406" lon="1.51856">
        <ele>155</ele>
        <time>2020-06-08T14:41:05.000Z</time>
      </trkpt>
      <trkpt lat="43.52407" lon="1.51857">
        <ele>155.60000610352</ele>
        <time>2020-06-08T14:41:42.000Z</time>
      </trkpt>
      <trkpt lat="43.52407" lon="1.51858">
        <ele>155.60000610352</ele>
        <time>2020-06-08T14:41:43.000Z</time>
      </trkpt>
      <trkpt lat="43.52407" lon="1.5186">
        <ele>155.60000610352</ele>
        <time>2020-06-08T14:41:44.000Z</time>
      </trkpt>
      <trkpt lat="43.52407" lon="1.51871">
        <ele>155.39999389648</ele>
        <time>2020-06-08T14:41:50.000Z</time>
      </trkpt>
      <trkpt lat="43.52408" lon="1.51872">
        <ele>155.19999694824</ele>
        <time>2020-06-08T14:41:53.000Z</time>
      </trkpt>
      <trkpt lat="43.52409" lon="1.51874">
        <ele>155.19999694824</ele>
        <time>2020-06-08T14:41:54.000Z</time>
      </trkpt>
      <trkpt lat="43.52437" lon="1.51865">
        <ele>154.80000305176</ele>
        <time>2020-06-08T14:42:01.000Z</time>
      </trkpt>
      <trkpt lat="43.52462" lon="1.5185">
        <ele>153.80000305176</ele>
        <time>2020-06-08T14:42:05.000Z</time>
      </trkpt>
      <trkpt lat="43.52474" lon="1.51842">
        <ele>152.19999694824</ele>
        <time>2020-06-08T14:42:07.000Z</time>
      </trkpt>
      <trkpt lat="43.52486" lon="1.51834">
        <ele>150.60000610352</ele>
        <time>2020-06-08T14:42:09.000Z</time>
      </trkpt>
      <trkpt lat="43.52496" lon="1.51825">
        <ele>149.19999694824</ele>
        <time>2020-06-08T14:42:11.000Z</time>
      </trkpt>
      <trkpt lat="43.5252" lon="1.51803">
        <ele>148.19999694824</ele>
        <time>2020-06-08T14:42:16.000Z</time>
      </trkpt>
      <trkpt lat="43.52552" lon="1.51766">
        <ele>148.19999694824</ele>
        <time>2020-06-08T14:42:25.000Z</time>
      </trkpt>
      <trkpt lat="43.52559" lon="1.51756">
        <ele>148.19999694824</ele>
        <time>2020-06-08T14:42:27.000Z</time>
      </trkpt>
      <trkpt lat="43.52578" lon="1.51724">
        <ele>148.39999389648</ele>
        <time>2020-06-08T14:42:33.000Z</time>
      </trkpt>
      <trkpt lat="43.52594" lon="1.51681">
        <ele>148.39999389648</ele>
        <time>2020-06-08T14:42:40.000Z</time>
      </trkpt>
      <trkpt lat="43.52612" lon="1.51598">
        <ele>148.39999389648</ele>
        <time>2020-06-08T14:42:52.000Z</time>
      </trkpt>
      <trkpt lat="43.52616" lon="1.5158">
        <ele>148.19999694824</ele>
        <time>2020-06-08T14:42:55.000Z</time>
      </trkpt>
      <trkpt lat="43.52627" lon="1.51547">
        <ele>148.19999694824</ele>
        <time>2020-06-08T14:43:01.000Z</time>
      </trkpt>
      <trkpt lat="43.52635" lon="1.51468">
        <ele>147.80000305176</ele>
        <time>2020-06-08T14:43:14.000Z</time>
      </trkpt>
      <trkpt lat="43.52642" lon="1.51392">
        <ele>148.19999694824</ele>
        <time>2020-06-08T14:43:28.000Z</time>
      </trkpt>
      <trkpt lat="43.52647" lon="1.51313">
        <ele>149</ele>
        <time>2020-06-08T14:43:43.000Z</time>
      </trkpt>
      <trkpt lat="43.52649" lon="1.51235">
        <ele>148.39999389648</ele>
        <time>2020-06-08T14:43:55.000Z</time>
      </trkpt>
      <trkpt lat="43.52657" lon="1.5116">
        <ele>148.39999389648</ele>
        <time>2020-06-08T14:44:07.000Z</time>
      </trkpt>
      <trkpt lat="43.5266" lon="1.51149">
        <ele>148.80000305176</ele>
        <time>2020-06-08T14:44:09.000Z</time>
      </trkpt>
      <trkpt lat="43.52678" lon="1.51105">
        <ele>149.19999694824</ele>
        <time>2020-06-08T14:44:20.000Z</time>
      </trkpt>
      <trkpt lat="43.52682" lon="1.51092">
        <ele>149.39999389648</ele>
        <time>2020-06-08T14:44:23.000Z</time>
      </trkpt>
      <trkpt lat="43.52684" lon="1.51088">
        <ele>149.60000610352</ele>
        <time>2020-06-08T14:44:24.000Z</time>
      </trkpt>
      <trkpt lat="43.52691" lon="1.5107">
        <ele>149.80000305176</ele>
        <time>2020-06-08T14:44:28.000Z</time>
      </trkpt>
      <trkpt lat="43.52699" lon="1.51048">
        <ele>150.19999694824</ele>
        <time>2020-06-08T14:44:32.000Z</time>
      </trkpt>
      <trkpt lat="43.52701" lon="1.51042">
        <ele>150.39999389648</ele>
        <time>2020-06-08T14:44:33.000Z</time>
      </trkpt>
      <trkpt lat="43.52706" lon="1.51031">
        <ele>150.39999389648</ele>
        <time>2020-06-08T14:44:35.000Z</time>
      </trkpt>
      <trkpt lat="43.52736" lon="1.5096">
        <ele>150.39999389648</ele>
        <time>2020-06-08T14:44:47.000Z</time>
      </trkpt>
      <trkpt lat="43.52758" lon="1.50924">
        <ele>150.19999694824</ele>
        <time>2020-06-08T14:44:54.000Z</time>
      </trkpt>
      <trkpt lat="43.52777" lon="1.509">
        <ele>149.60000610352</ele>
        <time>2020-06-08T14:44:59.000Z</time>
      </trkpt>
      <trkpt lat="43.52792" lon="1.50885">
        <ele>148.80000305176</ele>
        <time>2020-06-08T14:45:03.000Z</time>
      </trkpt>
      <trkpt lat="43.52814" lon="1.5087">
        <ele>148.60000610352</ele>
        <time>2020-06-08T14:45:09.000Z</time>
      </trkpt>
      <trkpt lat="43.5286" lon="1.50834">
        <ele>149</ele>
        <time>2020-06-08T14:45:21.000Z</time>
      </trkpt>
      <trkpt lat="43.5289" lon="1.50807">
        <ele>149.39999389648</ele>
        <time>2020-06-08T14:45:29.000Z</time>
      </trkpt>
      <trkpt lat="43.52942" lon="1.5076">
        <ele>150.39999389648</ele>
        <time>2020-06-08T14:45:44.000Z</time>
      </trkpt>
      <trkpt lat="43.52966" lon="1.50734">
        <ele>150.19999694824</ele>
        <time>2020-06-08T14:45:52.000Z</time>
      </trkpt>
      <trkpt lat="43.53006" lon="1.50687">
        <ele>150.39999389648</ele>
        <time>2020-06-08T14:46:04.000Z</time>
      </trkpt>
      <trkpt lat="43.53042" lon="1.50651">
        <ele>150.60000610352</ele>
        <time>2020-06-08T14:46:14.000Z</time>
      </trkpt>
      <trkpt lat="43.53058" lon="1.5064">
        <ele>150.60000610352</ele>
        <time>2020-06-08T14:46:18.000Z</time>
      </trkpt>
      <trkpt lat="43.53101" lon="1.50612">
        <ele>149.19999694824</ele>
        <time>2020-06-08T14:46:32.000Z</time>
      </trkpt>
      <trkpt lat="43.5313" lon="1.50592">
        <ele>149.19999694824</ele>
        <time>2020-06-08T14:46:40.000Z</time>
      </trkpt>
      <trkpt lat="43.53183" lon="1.50571">
        <ele>148.80000305176</ele>
        <time>2020-06-08T14:46:54.000Z</time>
      </trkpt>
      <trkpt lat="43.53196" lon="1.50566">
        <ele>148.80000305176</ele>
        <time>2020-06-08T14:46:57.000Z</time>
      </trkpt>
      <trkpt lat="43.53249" lon="1.50554">
        <ele>149</ele>
        <time>2020-06-08T14:47:10.000Z</time>
      </trkpt>
      <trkpt lat="43.53294" lon="1.50548">
        <ele>149.19999694824</ele>
        <time>2020-06-08T14:47:21.000Z</time>
      </trkpt>
      <trkpt lat="43.53324" lon="1.50545">
        <ele>149.39999389648</ele>
        <time>2020-06-08T14:47:28.000Z</time>
      </trkpt>
      <trkpt lat="43.53352" lon="1.5054">
        <ele>149.39999389648</ele>
        <time>2020-06-08T14:47:35.000Z</time>
      </trkpt>
      <trkpt lat="43.53381" lon="1.50531">
        <ele>149.60000610352</ele>
        <time>2020-06-08T14:47:43.000Z</time>
      </trkpt>
      <trkpt lat="43.53431" lon="1.50506">
        <ele>149.60000610352</ele>
        <time>2020-06-08T14:47:58.000Z</time>
      </trkpt>
      <trkpt lat="43.53472" lon="1.50484">
        <ele>149.39999389648</ele>
        <time>2020-06-08T14:48:08.000Z</time>
      </trkpt>
      <trkpt lat="43.53508" lon="1.50455">
        <ele>149.60000610352</ele>
        <time>2020-06-08T14:48:18.000Z</time>
      </trkpt>
      <trkpt lat="43.53518" lon="1.50445">
        <ele>149.60000610352</ele>
        <time>2020-06-08T14:48:22.000Z</time>
      </trkpt>
      <trkpt lat="43.53567" lon="1.50404">
        <ele>149.80000305176</ele>
        <time>2020-06-08T14:48:37.000Z</time>
      </trkpt>
      <trkpt lat="43.53581" lon="1.50393">
        <ele>149.80000305176</ele>
        <time>2020-06-08T14:48:41.000Z</time>
      </trkpt>
      <trkpt lat="43.53628" lon="1.50342">
        <ele>149</ele>
        <time>2020-06-08T14:48:55.000Z</time>
      </trkpt>
      <trkpt lat="43.53671" lon="1.50286">
        <ele>149</ele>
        <time>2020-06-08T14:49:10.000Z</time>
      </trkpt>
      <trkpt lat="43.53702" lon="1.50245">
        <ele>149</ele>
        <time>2020-06-08T14:49:21.000Z</time>
      </trkpt>
      <trkpt lat="43.53728" lon="1.5021">
        <ele>149.19999694824</ele>
        <time>2020-06-08T14:49:30.000Z</time>
      </trkpt>
      <trkpt lat="43.5374" lon="1.50191">
        <ele>149.19999694824</ele>
        <time>2020-06-08T14:49:34.000Z</time>
      </trkpt>
      <trkpt lat="43.53743" lon="1.50186">
        <ele>149.19999694824</ele>
        <time>2020-06-08T14:49:35.000Z</time>
      </trkpt>
      <trkpt lat="43.53771" lon="1.50123">
        <ele>149.19999694824</ele>
        <time>2020-06-08T14:49:49.000Z</time>
      </trkpt>
      <trkpt lat="43.53792" lon="1.50081">
        <ele>149.60000610352</ele>
        <time>2020-06-08T14:49:58.000Z</time>
      </trkpt>
      <trkpt lat="43.53809" lon="1.50057">
        <ele>149.39999389648</ele>
        <time>2020-06-08T14:50:04.000Z</time>
      </trkpt>
      <trkpt lat="43.53818" lon="1.50039">
        <ele>149.19999694824</ele>
        <time>2020-06-08T14:50:08.000Z</time>
      </trkpt>
      <trkpt lat="43.53827" lon="1.50026">
        <ele>149.39999389648</ele>
        <time>2020-06-08T14:50:11.000Z</time>
      </trkpt>
      <trkpt lat="43.53862" lon="1.49968">
        <ele>150</ele>
        <time>2020-06-08T14:50:24.000Z</time>
      </trkpt>
      <trkpt lat="43.53866" lon="1.4996">
        <ele>150.19999694824</ele>
        <time>2020-06-08T14:50:26.000Z</time>
      </trkpt>
      <trkpt lat="43.53868" lon="1.49956">
        <ele>150.19999694824</ele>
        <time>2020-06-08T14:50:27.000Z</time>
      </trkpt>
      <trkpt lat="43.53874" lon="1.49943">
        <ele>150.19999694824</ele>
        <time>2020-06-08T14:50:30.000Z</time>
      </trkpt>
      <trkpt lat="43.5388" lon="1.49928">
        <ele>150.39999389648</ele>
        <time>2020-06-08T14:50:33.000Z</time>
      </trkpt>
      <trkpt lat="43.53888" lon="1.499">
        <ele>151.19999694824</ele>
        <time>2020-06-08T14:50:38.000Z</time>
      </trkpt>
      <trkpt lat="43.53903" lon="1.49838">
        <ele>151.39999389648</ele>
        <time>2020-06-08T14:50:47.000Z</time>
      </trkpt>
      <trkpt lat="43.5391" lon="1.49796">
        <ele>150.19999694824</ele>
        <time>2020-06-08T14:50:53.000Z</time>
      </trkpt>
      <trkpt lat="43.53916" lon="1.49741">
        <ele>149.19999694824</ele>
        <time>2020-06-08T14:51:01.000Z</time>
      </trkpt>
      <trkpt lat="43.53916" lon="1.49716">
        <ele>149.19999694824</ele>
        <time>2020-06-08T14:51:05.000Z</time>
      </trkpt>
      <trkpt lat="43.5391" lon="1.49668">
        <ele>149.39999389648</ele>
        <time>2020-06-08T14:51:12.000Z</time>
      </trkpt>
      <trkpt lat="43.53896" lon="1.49592">
        <ele>149.60000610352</ele>
        <time>2020-06-08T14:51:22.000Z</time>
      </trkpt>
      <trkpt lat="43.53886" lon="1.49535">
        <ele>150.19999694824</ele>
        <time>2020-06-08T14:51:31.000Z</time>
      </trkpt>
      <trkpt lat="43.53881" lon="1.49491">
        <ele>150.39999389648</ele>
        <time>2020-06-08T14:51:39.000Z</time>
      </trkpt>
      <trkpt lat="43.53878" lon="1.4946">
        <ele>150.60000610352</ele>
        <time>2020-06-08T14:51:44.000Z</time>
      </trkpt>
      <trkpt lat="43.53875" lon="1.49423">
        <ele>150.39999389648</ele>
        <time>2020-06-08T14:51:50.000Z</time>
      </trkpt>
      <trkpt lat="43.53873" lon="1.49349">
        <ele>150</ele>
        <time>2020-06-08T14:52:01.000Z</time>
      </trkpt>
      <trkpt lat="43.53876" lon="1.49334">
        <ele>149.80000305176</ele>
        <time>2020-06-08T14:52:03.000Z</time>
      </trkpt>
      <trkpt lat="43.5388" lon="1.49321">
        <ele>149.80000305176</ele>
        <time>2020-06-08T14:52:05.000Z</time>
      </trkpt>
      <trkpt lat="43.53897" lon="1.4929">
        <ele>149.60000610352</ele>
        <time>2020-06-08T14:52:11.000Z</time>
      </trkpt>
      <trkpt lat="43.539" lon="1.49286">
        <ele>149.60000610352</ele>
        <time>2020-06-08T14:52:12.000Z</time>
      </trkpt>
      <trkpt lat="43.53907" lon="1.49279">
        <ele>149.39999389648</ele>
        <time>2020-06-08T14:52:14.000Z</time>
      </trkpt>
      <trkpt lat="43.53956" lon="1.49255">
        <ele>149.39999389648</ele>
        <time>2020-06-08T14:52:27.000Z</time>
      </trkpt>
      <trkpt lat="43.53975" lon="1.4925">
        <ele>149.80000305176</ele>
        <time>2020-06-08T14:52:33.000Z</time>
      </trkpt>
      <trkpt lat="43.5403" lon="1.49232">
        <ele>150.80000305176</ele>
        <time>2020-06-08T14:52:46.000Z</time>
      </trkpt>
      <trkpt lat="43.5408" lon="1.49208">
        <ele>150.39999389648</ele>
        <time>2020-06-08T14:53:01.000Z</time>
      </trkpt>
      <trkpt lat="43.54087" lon="1.49203">
        <ele>150.39999389648</ele>
        <time>2020-06-08T14:53:03.000Z</time>
      </trkpt>
      <trkpt lat="43.54135" lon="1.49168">
        <ele>150</ele>
        <time>2020-06-08T14:53:16.000Z</time>
      </trkpt>
      <trkpt lat="43.54145" lon="1.49162">
        <ele>150.19999694824</ele>
        <time>2020-06-08T14:53:19.000Z</time>
      </trkpt>
      <trkpt lat="43.54185" lon="1.49139">
        <ele>150.39999389648</ele>
        <time>2020-06-08T14:53:29.000Z</time>
      </trkpt>
      <trkpt lat="43.54234" lon="1.49112">
        <ele>150.60000610352</ele>
        <time>2020-06-08T14:53:41.000Z</time>
      </trkpt>
      <trkpt lat="43.54238" lon="1.4911">
        <ele>150.60000610352</ele>
        <time>2020-06-08T14:53:42.000Z</time>
      </trkpt>
      <trkpt lat="43.54277" lon="1.4909">
        <ele>150</ele>
        <time>2020-06-08T14:53:51.000Z</time>
      </trkpt>
      <trkpt lat="43.5431" lon="1.49073">
        <ele>149.60000610352</ele>
        <time>2020-06-08T14:54:00.000Z</time>
      </trkpt>
      <trkpt lat="43.54328" lon="1.49064">
        <ele>149.60000610352</ele>
        <time>2020-06-08T14:54:05.000Z</time>
      </trkpt>
      <trkpt lat="43.54331" lon="1.49062">
        <ele>149.60000610352</ele>
        <time>2020-06-08T14:54:06.000Z</time>
      </trkpt>
      <trkpt lat="43.54349" lon="1.49052">
        <ele>149.60000610352</ele>
        <time>2020-06-08T14:54:10.000Z</time>
      </trkpt>
      <trkpt lat="43.54413" lon="1.49029">
        <ele>150</ele>
        <time>2020-06-08T14:54:23.000Z</time>
      </trkpt>
      <trkpt lat="43.54462" lon="1.48997">
        <ele>151</ele>
        <time>2020-06-08T14:54:40.000Z</time>
      </trkpt>
      <trkpt lat="43.5448" lon="1.4897">
        <ele>151.19999694824</ele>
        <time>2020-06-08T14:54:47.000Z</time>
      </trkpt>
      <trkpt lat="43.54487" lon="1.48956">
        <ele>151.19999694824</ele>
        <time>2020-06-08T14:54:50.000Z</time>
      </trkpt>
      <trkpt lat="43.54516" lon="1.48906">
        <ele>150</ele>
        <time>2020-06-08T14:55:02.000Z</time>
      </trkpt>
      <trkpt lat="43.54539" lon="1.4885">
        <ele>150.39999389648</ele>
        <time>2020-06-08T14:55:12.000Z</time>
      </trkpt>
      <trkpt lat="43.54546" lon="1.48831">
        <ele>150.39999389648</ele>
        <time>2020-06-08T14:55:15.000Z</time>
      </trkpt>
      <trkpt lat="43.5457" lon="1.48768">
        <ele>150</ele>
        <time>2020-06-08T14:55:26.000Z</time>
      </trkpt>
      <trkpt lat="43.54582" lon="1.48744">
        <ele>149.80000305176</ele>
        <time>2020-06-08T14:55:30.000Z</time>
      </trkpt>
      <trkpt lat="43.54587" lon="1.48732">
        <ele>149.80000305176</ele>
        <time>2020-06-08T14:55:32.000Z</time>
      </trkpt>
      <trkpt lat="43.54595" lon="1.48713">
        <ele>149.80000305176</ele>
        <time>2020-06-08T14:55:35.000Z</time>
      </trkpt>
      <trkpt lat="43.54625" lon="1.48645">
        <ele>149.80000305176</ele>
        <time>2020-06-08T14:55:46.000Z</time>
      </trkpt>
      <trkpt lat="43.54661" lon="1.48588">
        <ele>150.60000610352</ele>
        <time>2020-06-08T14:55:57.000Z</time>
      </trkpt>
      <trkpt lat="43.54706" lon="1.48546">
        <ele>150.39999389648</ele>
        <time>2020-06-08T14:56:08.000Z</time>
      </trkpt>
      <trkpt lat="43.54715" lon="1.48539">
        <ele>150.39999389648</ele>
        <time>2020-06-08T14:56:10.000Z</time>
      </trkpt>
      <trkpt lat="43.54733" lon="1.48525">
        <ele>150.39999389648</ele>
        <time>2020-06-08T14:56:15.000Z</time>
      </trkpt>
      <trkpt lat="43.5474" lon="1.4852">
        <ele>150.39999389648</ele>
        <time>2020-06-08T14:56:17.000Z</time>
      </trkpt>
      <trkpt lat="43.54787" lon="1.48484">
        <ele>150.60000610352</ele>
        <time>2020-06-08T14:56:30.000Z</time>
      </trkpt>
      <trkpt lat="43.54824" lon="1.48455">
        <ele>150.60000610352</ele>
        <time>2020-06-08T14:56:43.000Z</time>
      </trkpt>
      <trkpt lat="43.54864" lon="1.48503">
        <ele>150.39999389648</ele>
        <time>2020-06-08T14:57:03.000Z</time>
      </trkpt>
      <trkpt lat="43.54878" lon="1.48532">
        <ele>150.60000610352</ele>
        <time>2020-06-08T14:57:13.000Z</time>
      </trkpt>
      <trkpt lat="43.54897" lon="1.48517">
        <ele>150.60000610352</ele>
        <time>2020-06-08T14:57:21.000Z</time>
      </trkpt>
      <trkpt lat="43.54939" lon="1.4847">
        <ele>149.80000305176</ele>
        <time>2020-06-08T14:57:39.000Z</time>
      </trkpt>
      <trkpt lat="43.54979" lon="1.48425">
        <ele>151.19999694824</ele>
        <time>2020-06-08T14:57:58.000Z</time>
      </trkpt>
      <trkpt lat="43.54968" lon="1.48393">
        <ele>151.19999694824</ele>
        <time>2020-06-08T14:58:07.000Z</time>
      </trkpt>
      <trkpt lat="43.54966" lon="1.48356">
        <ele>151.19999694824</ele>
        <time>2020-06-08T14:58:16.000Z</time>
      </trkpt>
      <trkpt lat="43.54977" lon="1.48326">
        <ele>151.80000305176</ele>
        <time>2020-06-08T14:58:35.000Z</time>
      </trkpt>
      <trkpt lat="43.54971" lon="1.48331">
        <ele>152.80000305176</ele>
        <time>2020-06-08T14:58:45.000Z</time>
      </trkpt>
      <trkpt lat="43.54963" lon="1.48341">
        <ele>152.80000305176</ele>
        <time>2020-06-08T14:58:49.000Z</time>
      </trkpt>
      <trkpt lat="43.54944" lon="1.48361">
        <ele>153.80000305176</ele>
        <time>2020-06-08T14:59:01.000Z</time>
      </trkpt>
      <trkpt lat="43.54939" lon="1.48364">
        <ele>154</ele>
        <time>2020-06-08T14:59:04.000Z</time>
      </trkpt>
      <trkpt lat="43.54931" lon="1.48358">
        <ele>154</ele>
        <time>2020-06-08T14:59:09.000Z</time>
      </trkpt>
      <trkpt lat="43.54906" lon="1.48304">
        <ele>154</ele>
        <time>2020-06-08T14:59:26.000Z</time>
      </trkpt>
      <trkpt lat="43.54899" lon="1.48285">
        <ele>153</ele>
        <time>2020-06-08T14:59:29.000Z</time>
      </trkpt>
      <trkpt lat="43.54893" lon="1.48272">
        <ele>151.80000305176</ele>
        <time>2020-06-08T14:59:31.000Z</time>
      </trkpt>
      <trkpt lat="43.54869" lon="1.48197">
        <ele>151.39999389648</ele>
        <time>2020-06-08T14:59:46.000Z</time>
      </trkpt>
      <trkpt lat="43.54857" lon="1.48174">
        <ele>152.19999694824</ele>
        <time>2020-06-08T14:59:52.000Z</time>
      </trkpt>
      <trkpt lat="43.54846" lon="1.48177">
        <ele>153</ele>
        <time>2020-06-08T14:59:56.000Z</time>
      </trkpt>
      <trkpt lat="43.54838" lon="1.48185">
        <ele>153.39999389648</ele>
        <time>2020-06-08T14:59:59.000Z</time>
      </trkpt>
      <trkpt lat="43.54797" lon="1.48239">
        <ele>153.80000305176</ele>
        <time>2020-06-08T15:00:13.000Z</time>
      </trkpt>
      <trkpt lat="43.54773" lon="1.48286">
        <ele>153</ele>
        <time>2020-06-08T15:00:21.000Z</time>
      </trkpt>
      <trkpt lat="43.54747" lon="1.48295">
        <ele>152.19999694824</ele>
        <time>2020-06-08T15:00:27.000Z</time>
      </trkpt>
      <trkpt lat="43.54705" lon="1.48283">
        <ele>152.39999389648</ele>
        <time>2020-06-08T15:00:36.000Z</time>
      </trkpt>
      <trkpt lat="43.54659" lon="1.4827">
        <ele>154.19999694824</ele>
        <time>2020-06-08T15:00:48.000Z</time>
      </trkpt>
      <trkpt lat="43.54622" lon="1.48261">
        <ele>154.39999389648</ele>
        <time>2020-06-08T15:00:58.000Z</time>
      </trkpt>
      <trkpt lat="43.54572" lon="1.48248">
        <ele>154.80000305176</ele>
        <time>2020-06-08T15:01:12.000Z</time>
      </trkpt>
      <trkpt lat="43.54545" lon="1.4824">
        <ele>155.39999389648</ele>
        <time>2020-06-08T15:01:19.000Z</time>
      </trkpt>
      <trkpt lat="43.54506" lon="1.4822">
        <ele>156.39999389648</ele>
        <time>2020-06-08T15:01:30.000Z</time>
      </trkpt>
      <trkpt lat="43.54452" lon="1.48192">
        <ele>157.19999694824</ele>
        <time>2020-06-08T15:01:46.000Z</time>
      </trkpt>
      <trkpt lat="43.54443" lon="1.48187">
        <ele>157.39999389648</ele>
        <time>2020-06-08T15:01:49.000Z</time>
      </trkpt>
      <trkpt lat="43.544" lon="1.4816">
        <ele>158.39999389648</ele>
        <time>2020-06-08T15:02:04.000Z</time>
      </trkpt>
      <trkpt lat="43.54373" lon="1.48147">
        <ele>159.39999389648</ele>
        <time>2020-06-08T15:02:18.000Z</time>
      </trkpt>
      <trkpt lat="43.54323" lon="1.48171">
        <ele>160</ele>
        <time>2020-06-08T15:02:40.000Z</time>
      </trkpt>
      <trkpt lat="43.54276" lon="1.48213">
        <ele>160.80000305176</ele>
        <time>2020-06-08T15:02:57.000Z</time>
      </trkpt>
      <trkpt lat="43.5423" lon="1.48258">
        <ele>161.19999694824</ele>
        <time>2020-06-08T15:03:14.000Z</time>
      </trkpt>
      <trkpt lat="43.54181" lon="1.4828">
        <ele>161.39999389648</ele>
        <time>2020-06-08T15:03:30.000Z</time>
      </trkpt>
      <trkpt lat="43.54138" lon="1.48249">
        <ele>161.39999389648</ele>
        <time>2020-06-08T15:03:50.000Z</time>
      </trkpt>
      <trkpt lat="43.54134" lon="1.48216">
        <ele>161.19999694824</ele>
        <time>2020-06-08T15:03:57.000Z</time>
      </trkpt>
      <trkpt lat="43.54129" lon="1.4817">
        <ele>160.80000305176</ele>
        <time>2020-06-08T15:04:05.000Z</time>
      </trkpt>
      <trkpt lat="43.54123" lon="1.48098">
        <ele>161</ele>
        <time>2020-06-08T15:04:20.000Z</time>
      </trkpt>
      <trkpt lat="43.54115" lon="1.4807">
        <ele>161.80000305176</ele>
        <time>2020-06-08T15:04:27.000Z</time>
      </trkpt>
      <trkpt lat="43.54107" lon="1.48049">
        <ele>163</ele>
        <time>2020-06-08T15:04:32.000Z</time>
      </trkpt>
      <trkpt lat="43.54096" lon="1.48021">
        <ele>164.19999694824</ele>
        <time>2020-06-08T15:04:40.000Z</time>
      </trkpt>
      <trkpt lat="43.54078" lon="1.47982">
        <ele>165.19999694824</ele>
        <time>2020-06-08T15:04:51.000Z</time>
      </trkpt>
      <trkpt lat="43.54072" lon="1.4797">
        <ele>166.39999389648</ele>
        <time>2020-06-08T15:04:57.000Z</time>
      </trkpt>
      <trkpt lat="43.54044" lon="1.47909">
        <ele>167.39999389648</ele>
        <time>2020-06-08T15:05:16.000Z</time>
      </trkpt>
      <trkpt lat="43.54038" lon="1.47901">
        <ele>167.39999389648</ele>
        <time>2020-06-08T15:05:18.000Z</time>
      </trkpt>
      <trkpt lat="43.54018" lon="1.47873">
        <ele>168.39999389648</ele>
        <time>2020-06-08T15:05:26.000Z</time>
      </trkpt>
      <trkpt lat="43.53997" lon="1.47847">
        <ele>169.60000610352</ele>
        <time>2020-06-08T15:05:34.000Z</time>
      </trkpt>
      <trkpt lat="43.53982" lon="1.47826">
        <ele>170.60000610352</ele>
        <time>2020-06-08T15:05:40.000Z</time>
      </trkpt>
      <trkpt lat="43.53962" lon="1.47801">
        <ele>171.80000305176</ele>
        <time>2020-06-08T15:05:49.000Z</time>
      </trkpt>
      <trkpt lat="43.53942" lon="1.47779">
        <ele>172.80000305176</ele>
        <time>2020-06-08T15:05:57.000Z</time>
      </trkpt>
      <trkpt lat="43.53911" lon="1.47732">
        <ele>174</ele>
        <time>2020-06-08T15:06:09.000Z</time>
      </trkpt>
      <trkpt lat="43.53899" lon="1.47713">
        <ele>175</ele>
        <time>2020-06-08T15:06:13.000Z</time>
      </trkpt>
      <trkpt lat="43.53892" lon="1.47701">
        <ele>175.60000610352</ele>
        <time>2020-06-08T15:06:16.000Z</time>
      </trkpt>
      <trkpt lat="43.53884" lon="1.47684">
        <ele>176.19999694824</ele>
        <time>2020-06-08T15:06:20.000Z</time>
      </trkpt>
      <trkpt lat="43.53878" lon="1.47673">
        <ele>176.80000305176</ele>
        <time>2020-06-08T15:06:23.000Z</time>
      </trkpt>
      <trkpt lat="43.53871" lon="1.47658">
        <ele>177.39999389648</ele>
        <time>2020-06-08T15:06:27.000Z</time>
      </trkpt>
      <trkpt lat="43.53856" lon="1.47601">
        <ele>178.80000305176</ele>
        <time>2020-06-08T15:06:40.000Z</time>
      </trkpt>
      <trkpt lat="43.53848" lon="1.47572">
        <ele>179.80000305176</ele>
        <time>2020-06-08T15:06:46.000Z</time>
      </trkpt>
      <trkpt lat="43.53835" lon="1.47535">
        <ele>181</ele>
        <time>2020-06-08T15:06:56.000Z</time>
      </trkpt>
      <trkpt lat="43.53826" lon="1.47505">
        <ele>182.19999694824</ele>
        <time>2020-06-08T15:07:04.000Z</time>
      </trkpt>
      <trkpt lat="43.53819" lon="1.47485">
        <ele>183.39999389648</ele>
        <time>2020-06-08T15:07:10.000Z</time>
      </trkpt>
      <trkpt lat="43.53811" lon="1.47444">
        <ele>184.80000305176</ele>
        <time>2020-06-08T15:07:19.000Z</time>
      </trkpt>
      <trkpt lat="43.53805" lon="1.47409">
        <ele>186</ele>
        <time>2020-06-08T15:07:27.000Z</time>
      </trkpt>
      <trkpt lat="43.53802" lon="1.47383">
        <ele>187.39999389648</ele>
        <time>2020-06-08T15:07:33.000Z</time>
      </trkpt>
      <trkpt lat="43.53798" lon="1.47356">
        <ele>188.60000610352</ele>
        <time>2020-06-08T15:07:40.000Z</time>
      </trkpt>
      <trkpt lat="43.53789" lon="1.47325">
        <ele>190.19999694824</ele>
        <time>2020-06-08T15:07:50.000Z</time>
      </trkpt>
      <trkpt lat="43.53774" lon="1.4731">
        <ele>191.39999389648</ele>
        <time>2020-06-08T15:07:57.000Z</time>
      </trkpt>
      <trkpt lat="43.53736" lon="1.47245">
        <ele>193</ele>
        <time>2020-06-08T15:08:14.000Z</time>
      </trkpt>
      <trkpt lat="43.53729" lon="1.47166">
        <ele>194.19999694824</ele>
        <time>2020-06-08T15:08:31.000Z</time>
      </trkpt>
      <trkpt lat="43.5373" lon="1.47151">
        <ele>194.60000610352</ele>
        <time>2020-06-08T15:08:35.000Z</time>
      </trkpt>
      <trkpt lat="43.53733" lon="1.47117">
        <ele>195.80000305176</ele>
        <time>2020-06-08T15:08:44.000Z</time>
      </trkpt>
      <trkpt lat="43.53738" lon="1.4709">
        <ele>197.19999694824</ele>
        <time>2020-06-08T15:08:52.000Z</time>
      </trkpt>
      <trkpt lat="43.53738" lon="1.47074">
        <ele>198.39999389648</ele>
        <time>2020-06-08T15:08:57.000Z</time>
      </trkpt>
      <trkpt lat="43.53741" lon="1.4706">
        <ele>199.60000610352</ele>
        <time>2020-06-08T15:09:01.000Z</time>
      </trkpt>
      <trkpt lat="43.53744" lon="1.47039">
        <ele>200.60000610352</ele>
        <time>2020-06-08T15:09:06.000Z</time>
      </trkpt>
      <trkpt lat="43.53742" lon="1.47017">
        <ele>202</ele>
        <time>2020-06-08T15:09:10.000Z</time>
      </trkpt>
      <trkpt lat="43.53735" lon="1.46994">
        <ele>203.19999694824</ele>
        <time>2020-06-08T15:09:15.000Z</time>
      </trkpt>
      <trkpt lat="43.53686" lon="1.46959">
        <ele>204.19999694824</ele>
        <time>2020-06-08T15:09:30.000Z</time>
      </trkpt>
      <trkpt lat="43.53649" lon="1.46908">
        <ele>204.60000610352</ele>
        <time>2020-06-08T15:09:47.000Z</time>
      </trkpt>
      <trkpt lat="43.53649" lon="1.46904">
        <ele>204.60000610352</ele>
        <time>2020-06-08T15:09:48.000Z</time>
      </trkpt>
      <trkpt lat="43.53664" lon="1.46871">
        <ele>205.80000305176</ele>
        <time>2020-06-08T15:09:58.000Z</time>
      </trkpt>
      <trkpt lat="43.53685" lon="1.46834">
        <ele>206.80000305176</ele>
        <time>2020-06-08T15:10:09.000Z</time>
      </trkpt>
      <trkpt lat="43.53712" lon="1.4677">
        <ele>207.39999389648</ele>
        <time>2020-06-08T15:10:25.000Z</time>
      </trkpt>
      <trkpt lat="43.53717" lon="1.4676">
        <ele>207.80000305176</ele>
        <time>2020-06-08T15:10:28.000Z</time>
      </trkpt>
      <trkpt lat="43.53754" lon="1.46706">
        <ele>208.80000305176</ele>
        <time>2020-06-08T15:10:43.000Z</time>
      </trkpt>
      <trkpt lat="43.53762" lon="1.46697">
        <ele>208.80000305176</ele>
        <time>2020-06-08T15:10:46.000Z</time>
      </trkpt>
      <trkpt lat="43.53793" lon="1.46656">
        <ele>209.80000305176</ele>
        <time>2020-06-08T15:10:59.000Z</time>
      </trkpt>
      <trkpt lat="43.53817" lon="1.46625">
        <ele>211</ele>
        <time>2020-06-08T15:11:08.000Z</time>
      </trkpt>
      <trkpt lat="43.53828" lon="1.46609">
        <ele>212.19999694824</ele>
        <time>2020-06-08T15:11:12.000Z</time>
      </trkpt>
      <trkpt lat="43.53858" lon="1.46565">
        <ele>213.19999694824</ele>
        <time>2020-06-08T15:11:22.000Z</time>
      </trkpt>
      <trkpt lat="43.53872" lon="1.4654">
        <ele>214</ele>
        <time>2020-06-08T15:11:27.000Z</time>
      </trkpt>
      <trkpt lat="43.53874" lon="1.46535">
        <ele>214.39999389648</ele>
        <time>2020-06-08T15:11:28.000Z</time>
      </trkpt>
      <trkpt lat="43.53881" lon="1.46518">
        <ele>214.80000305176</ele>
        <time>2020-06-08T15:11:31.000Z</time>
      </trkpt>
      <trkpt lat="43.53896" lon="1.46493">
        <ele>215.39999389648</ele>
        <time>2020-06-08T15:11:36.000Z</time>
      </trkpt>
      <trkpt lat="43.53923" lon="1.46445">
        <ele>216.60000610352</ele>
        <time>2020-06-08T15:11:46.000Z</time>
      </trkpt>
      <trkpt lat="43.53935" lon="1.46421">
        <ele>217.80000305176</ele>
        <time>2020-06-08T15:11:54.000Z</time>
      </trkpt>
      <trkpt lat="43.53939" lon="1.46415">
        <ele>219</ele>
        <time>2020-06-08T15:11:57.000Z</time>
      </trkpt>
      <trkpt lat="43.53957" lon="1.46388">
        <ele>219.80000305176</ele>
        <time>2020-06-08T15:12:07.000Z</time>
      </trkpt>
      <trkpt lat="43.53965" lon="1.46378">
        <ele>220.19999694824</ele>
        <time>2020-06-08T15:12:10.000Z</time>
      </trkpt>
      <trkpt lat="43.53996" lon="1.46339">
        <ele>221.19999694824</ele>
        <time>2020-06-08T15:12:21.000Z</time>
      </trkpt>
      <trkpt lat="43.54026" lon="1.46299">
        <ele>222.19999694824</ele>
        <time>2020-06-08T15:12:36.000Z</time>
      </trkpt>
      <trkpt lat="43.54032" lon="1.46295">
        <ele>223</ele>
        <time>2020-06-08T15:12:43.000Z</time>
      </trkpt>
      <trkpt lat="43.54036" lon="1.46298">
        <ele>223.39999389648</ele>
        <time>2020-06-08T15:12:46.000Z</time>
      </trkpt>
      <trkpt lat="43.54041" lon="1.46295">
        <ele>223.60000610352</ele>
        <time>2020-06-08T15:12:48.000Z</time>
      </trkpt>
      <trkpt lat="43.54077" lon="1.46241">
        <ele>223.80000305176</ele>
        <time>2020-06-08T15:13:05.000Z</time>
      </trkpt>
      <trkpt lat="43.54098" lon="1.46206">
        <ele>224.60000610352</ele>
        <time>2020-06-08T15:13:14.000Z</time>
      </trkpt>
      <trkpt lat="43.5412" lon="1.46164">
        <ele>225.60000610352</ele>
        <time>2020-06-08T15:13:24.000Z</time>
      </trkpt>
      <trkpt lat="43.54139" lon="1.46124">
        <ele>226.80000305176</ele>
        <time>2020-06-08T15:13:33.000Z</time>
      </trkpt>
      <trkpt lat="43.54149" lon="1.46104">
        <ele>228</ele>
        <time>2020-06-08T15:13:38.000Z</time>
      </trkpt>
      <trkpt lat="43.54169" lon="1.46065">
        <ele>229</ele>
        <time>2020-06-08T15:13:48.000Z</time>
      </trkpt>
      <trkpt lat="43.54183" lon="1.46029">
        <ele>229.60000610352</ele>
        <time>2020-06-08T15:13:56.000Z</time>
      </trkpt>
      <trkpt lat="43.54192" lon="1.46008">
        <ele>230</ele>
        <time>2020-06-08T15:14:00.000Z</time>
      </trkpt>
      <trkpt lat="43.54216" lon="1.45947">
        <ele>231</ele>
        <time>2020-06-08T15:14:12.000Z</time>
      </trkpt>
      <trkpt lat="43.54244" lon="1.45883">
        <ele>231.19999694824</ele>
        <time>2020-06-08T15:14:23.000Z</time>
      </trkpt>
      <trkpt lat="43.5428" lon="1.45825">
        <ele>229.60000610352</ele>
        <time>2020-06-08T15:14:31.000Z</time>
      </trkpt>
      <trkpt lat="43.54289" lon="1.4581">
        <ele>228.39999389648</ele>
        <time>2020-06-08T15:14:33.000Z</time>
      </trkpt>
      <trkpt lat="43.54298" lon="1.45796">
        <ele>227.19999694824</ele>
        <time>2020-06-08T15:14:35.000Z</time>
      </trkpt>
      <trkpt lat="43.54335" lon="1.45739">
        <ele>226.39999389648</ele>
        <time>2020-06-08T15:14:44.000Z</time>
      </trkpt>
      <trkpt lat="43.5437" lon="1.45682">
        <ele>227.39999389648</ele>
        <time>2020-06-08T15:14:53.000Z</time>
      </trkpt>
      <trkpt lat="43.54394" lon="1.45644">
        <ele>228.19999694824</ele>
        <time>2020-06-08T15:15:00.000Z</time>
      </trkpt>
      <trkpt lat="43.54421" lon="1.4561">
        <ele>229.39999389648</ele>
        <time>2020-06-08T15:15:08.000Z</time>
      </trkpt>
      <trkpt lat="43.54427" lon="1.45607">
        <ele>229.80000305176</ele>
        <time>2020-06-08T15:15:10.000Z</time>
      </trkpt>
      <trkpt lat="43.54435" lon="1.4562">
        <ele>230.39999389648</ele>
        <time>2020-06-08T15:15:14.000Z</time>
      </trkpt>
      <trkpt lat="43.54434" lon="1.45625">
        <ele>230.80000305176</ele>
        <time>2020-06-08T15:15:15.000Z</time>
      </trkpt>
      <trkpt lat="43.54431" lon="1.45646">
        <ele>231.39999389648</ele>
        <time>2020-06-08T15:15:19.000Z</time>
      </trkpt>
      <trkpt lat="43.54424" lon="1.45677">
        <ele>232</ele>
        <time>2020-06-08T15:15:25.000Z</time>
      </trkpt>
      <trkpt lat="43.54396" lon="1.45734">
        <ele>231.80000305176</ele>
        <time>2020-06-08T15:15:34.000Z</time>
      </trkpt>
      <trkpt lat="43.54375" lon="1.4574">
        <ele>230.39999389648</ele>
        <time>2020-06-08T15:15:38.000Z</time>
      </trkpt>
      <trkpt lat="43.54366" lon="1.45749">
        <ele>229.60000610352</ele>
        <time>2020-06-08T15:15:40.000Z</time>
      </trkpt>
      <trkpt lat="43.54362" lon="1.45755">
        <ele>229.19999694824</ele>
        <time>2020-06-08T15:15:41.000Z</time>
      </trkpt>
      <trkpt lat="43.54351" lon="1.45772">
        <ele>227.80000305176</ele>
        <time>2020-06-08T15:15:44.000Z</time>
      </trkpt>
      <trkpt lat="43.54333" lon="1.45805">
        <ele>226.80000305176</ele>
        <time>2020-06-08T15:15:52.000Z</time>
      </trkpt>
      <trkpt lat="43.5433" lon="1.45809">
        <ele>226.60000610352</ele>
        <time>2020-06-08T15:15:56.000Z</time>
      </trkpt>
      <trkpt lat="43.54327" lon="1.4581">
        <ele>226.39999389648</ele>
        <time>2020-06-08T15:16:13.000Z</time>
      </trkpt>
      <trkpt lat="43.54314" lon="1.45813">
        <ele>226.19999694824</ele>
        <time>2020-06-08T15:16:22.000Z</time>
      </trkpt>
      <trkpt lat="43.54308" lon="1.45816">
        <ele>225.60000610352</ele>
        <time>2020-06-08T15:16:34.000Z</time>
      </trkpt>
      <trkpt lat="43.5431" lon="1.45823">
        <ele>225.60000610352</ele>
        <time>2020-06-08T15:16:45.000Z</time>
      </trkpt>
    </trkseg>
  </trk>
</gpx>